<?xml version="1.0" encoding="UTF-8" standalone="no" ?>
<gpx xmlns="http://www.topografix.com/GPX/1/1" xmlns:xsi="http://www.w3.org/2001/XMLSchema-instance" xsi:schemaLocation="http://www.topografix.com/GPX/1/1 http://www.topografix.com/GPX/1/1/gpx.xsd" version="1.1" creator="VisuGPX - https://www.visugpx.com">
  <metadata>
    <name>Tours to Bourges</name>
    <desc><![CDATA[Tracé récupéré et modifié de http://www.velocanauxdodo.fr/?page_id=5108]]></desc>
  </metadata>
  <wpt lat="47.26835" lon="1.86209">
    <ele>89</ele>
    <name><![CDATA[Camping Municipal Val Rose - Mennetou sur Cher [<51] (07/05-07/09) (90m) +33254980119]]></name>
    <desc><![CDATA[description=Rue de Val Rose 41320 Mennetou-sur-Cher
Tél : 02.54.98.11.02
Mail : mairie.mennetou@wanadoo.fr

OUVERTURE DU CAMPING DU 30 MAI 2019 AU 1er SEPTEMBRE 2019

Horaires d'ouverture :
Du lundi au dimanche
7h00 - 11h00 et 17h00 - 21h00

http://mennetou.fr/tourisme/se-loger-restauration/camping-municipal
name=Camping Municipal Val Rose - Mennetou sur Cher [<51] (07/05-07/09) (90m) +33254980119]]></desc>
  </wpt>
  <wpt lat="47.37073" lon="0.72431">
    <ele>48</ele>
    <name><![CDATA[Camping Val de Loire - St. Avertin (37) (01/02-15/12) -CCA (49m) +33247278747]]></name>
    <desc><![CDATA[description=Camping Onlycamp Tours Val de Loire St 61 rue de Rochepinard 37550 Saint-Avertin

Autre tarif	de 10.10	€	à 12.30	€	Pour 1 personne sans véhicule sans électricité en tente
Taxe de séjour	0.66	€	Pour les plus de 18 ans et par personne et par nuit.

https://www.onlycamp.fr/
name=Camping Val de Loire - St. Avertin (37) (01/02-15/12) -CCA (49m) +33247278747]]></desc>
  </wpt>
  <trk>
    <name><![CDATA[Mennetou-sur-Cher > Bourges (53 km)]]></name>
    <desc><![CDATA[De Bourges à Mehun le chemin est assez roulant. Beaux passages bordés de platanes aux allures de canal du Midi. Entre Mehun et Vierzon, suivre l’itinéraire préconisé par le guide, le halage des variantes est trop herbeux. De Vierzon à Mennetou, le halage est globalement bien roulant. Visite de la cité médiévale.]]></desc>
    <trkseg>
      <trkpt lat="47.26877" lon="1.86434">
        <ele>90.02</ele>
        <time>2015-08-17T14:19:52Z</time>
      </trkpt>
      <trkpt lat="47.2686" lon="1.86492">
        <ele>90.02</ele>
        <time>2015-08-17T14:20:06Z</time>
      </trkpt>
      <trkpt lat="47.26859" lon="1.86496">
        <ele>90.5</ele>
        <time>2015-08-17T14:20:07Z</time>
      </trkpt>
      <trkpt lat="47.26857" lon="1.865">
        <ele>90.02</ele>
        <time>2015-08-17T14:20:08Z</time>
      </trkpt>
      <trkpt lat="47.26856" lon="1.86505">
        <ele>90.5</ele>
        <time>2015-08-17T14:20:09Z</time>
      </trkpt>
      <trkpt lat="47.26856" lon="1.8651">
        <ele>90.02</ele>
        <time>2015-08-17T14:20:10Z</time>
      </trkpt>
      <trkpt lat="47.26855" lon="1.86515">
        <ele>90.02</ele>
        <time>2015-08-17T14:20:11Z</time>
      </trkpt>
      <trkpt lat="47.26854" lon="1.86521">
        <ele>90.02</ele>
        <time>2015-08-17T14:20:12Z</time>
      </trkpt>
      <trkpt lat="47.26854" lon="1.86527">
        <ele>90.5</ele>
        <time>2015-08-17T14:20:13Z</time>
      </trkpt>
      <trkpt lat="47.26853" lon="1.86532">
        <ele>90.5</ele>
        <time>2015-08-17T14:20:14Z</time>
      </trkpt>
      <trkpt lat="47.26852" lon="1.86538">
        <ele>90.5</ele>
        <time>2015-08-17T14:20:15Z</time>
      </trkpt>
      <trkpt lat="47.26851" lon="1.86544">
        <ele>90.5</ele>
        <time>2015-08-17T14:20:16Z</time>
      </trkpt>
      <trkpt lat="47.26855" lon="1.86564">
        <ele>91.46</ele>
        <time>2015-08-17T14:20:20Z</time>
      </trkpt>
      <trkpt lat="47.26856" lon="1.86566">
        <ele>91.46</ele>
        <time>2015-08-17T14:20:21Z</time>
      </trkpt>
      <trkpt lat="47.26858" lon="1.86568">
        <ele>91.46</ele>
        <time>2015-08-17T14:20:22Z</time>
      </trkpt>
      <trkpt lat="47.26858" lon="1.86569">
        <ele>91.46</ele>
        <time>2015-08-17T14:20:23Z</time>
      </trkpt>
      <trkpt lat="47.26859" lon="1.86571">
        <ele>91.46</ele>
        <time>2015-08-17T14:20:24Z</time>
      </trkpt>
      <trkpt lat="47.2686" lon="1.86572">
        <ele>91.46</ele>
        <time>2015-08-17T14:20:25Z</time>
      </trkpt>
      <trkpt lat="47.26859" lon="1.86572">
        <ele>91.46</ele>
        <time>2015-08-17T14:20:36Z</time>
      </trkpt>
      <trkpt lat="47.26858" lon="1.86572">
        <ele>91.46</ele>
        <time>2015-08-17T14:21:12Z</time>
      </trkpt>
      <trkpt lat="47.26859" lon="1.86571">
        <ele>91.46</ele>
        <time>2015-08-17T14:21:46Z</time>
      </trkpt>
      <trkpt lat="47.26859" lon="1.86575">
        <ele>91.46</ele>
        <time>2015-08-17T14:22:08Z</time>
      </trkpt>
      <trkpt lat="47.26859" lon="1.86576">
        <ele>91.46</ele>
        <time>2015-08-17T14:22:48Z</time>
      </trkpt>
      <trkpt lat="47.26859" lon="1.86575">
        <ele>91.46</ele>
        <time>2015-08-17T14:22:59Z</time>
      </trkpt>
      <trkpt lat="47.26853" lon="1.86568">
        <ele>90.98</ele>
        <time>2015-08-17T14:23:04Z</time>
      </trkpt>
      <trkpt lat="47.26851" lon="1.86567">
        <ele>90.98</ele>
        <time>2015-08-17T14:23:05Z</time>
      </trkpt>
      <trkpt lat="47.2685" lon="1.86565">
        <ele>90.98</ele>
        <time>2015-08-17T14:23:06Z</time>
      </trkpt>
      <trkpt lat="47.2685" lon="1.86563">
        <ele>90.98</ele>
        <time>2015-08-17T14:23:07Z</time>
      </trkpt>
      <trkpt lat="47.26849" lon="1.86562">
        <ele>90.98</ele>
        <time>2015-08-17T14:23:08Z</time>
      </trkpt>
      <trkpt lat="47.26848" lon="1.86561">
        <ele>90.5</ele>
        <time>2015-08-17T14:23:09Z</time>
      </trkpt>
      <trkpt lat="47.26846" lon="1.8656">
        <ele>90.5</ele>
        <time>2015-08-17T14:23:10Z</time>
      </trkpt>
      <trkpt lat="47.26845" lon="1.8656">
        <ele>90.5</ele>
        <time>2015-08-17T14:23:11Z</time>
      </trkpt>
      <trkpt lat="47.26829" lon="1.86594">
        <ele>90.5</ele>
        <time>2015-08-17T14:23:21Z</time>
      </trkpt>
      <trkpt lat="47.26811" lon="1.86681">
        <ele>91.46</ele>
        <time>2015-08-17T14:23:36Z</time>
      </trkpt>
      <trkpt lat="47.26805" lon="1.86714">
        <ele>91.46</ele>
        <time>2015-08-17T14:23:41Z</time>
      </trkpt>
      <trkpt lat="47.26804" lon="1.8672">
        <ele>91.46</ele>
        <time>2015-08-17T14:23:42Z</time>
      </trkpt>
      <trkpt lat="47.26792" lon="1.86772">
        <ele>92.42</ele>
        <time>2015-08-17T14:23:50Z</time>
      </trkpt>
      <trkpt lat="47.26786" lon="1.86827">
        <ele>92.9</ele>
        <time>2015-08-17T14:24:00Z</time>
      </trkpt>
      <trkpt lat="47.26803" lon="1.86882">
        <ele>91.94</ele>
        <time>2015-08-17T14:24:13Z</time>
      </trkpt>
      <trkpt lat="47.26825" lon="1.86945">
        <ele>92.42</ele>
        <time>2015-08-17T14:24:28Z</time>
      </trkpt>
      <trkpt lat="47.26826" lon="1.86948">
        <ele>92.42</ele>
        <time>2015-08-17T14:24:29Z</time>
      </trkpt>
      <trkpt lat="47.26826" lon="1.86951">
        <ele>92.9</ele>
        <time>2015-08-17T14:24:30Z</time>
      </trkpt>
      <trkpt lat="47.26827" lon="1.86953">
        <ele>92.42</ele>
        <time>2015-08-17T14:24:31Z</time>
      </trkpt>
      <trkpt lat="47.26828" lon="1.86955">
        <ele>92.42</ele>
        <time>2015-08-17T14:24:32Z</time>
      </trkpt>
      <trkpt lat="47.26828" lon="1.86957">
        <ele>92.42</ele>
        <time>2015-08-17T14:25:00Z</time>
      </trkpt>
      <trkpt lat="47.26829" lon="1.86957">
        <ele>92.9</ele>
        <time>2015-08-17T14:25:25Z</time>
      </trkpt>
      <trkpt lat="47.26829" lon="1.86957">
        <ele>92.42</ele>
        <time>2015-08-17T14:25:51Z</time>
      </trkpt>
      <trkpt lat="47.26828" lon="1.86958">
        <ele>92.9</ele>
        <time>2015-08-17T14:26:03Z</time>
      </trkpt>
      <trkpt lat="47.2683" lon="1.86965">
        <ele>92.9</ele>
        <time>2015-08-17T14:26:07Z</time>
      </trkpt>
      <trkpt lat="47.2683" lon="1.86967">
        <ele>92.9</ele>
        <time>2015-08-17T14:26:08Z</time>
      </trkpt>
      <trkpt lat="47.2683" lon="1.86969">
        <ele>92.9</ele>
        <time>2015-08-17T14:26:09Z</time>
      </trkpt>
      <trkpt lat="47.2683" lon="1.86971">
        <ele>92.9</ele>
        <time>2015-08-17T14:26:10Z</time>
      </trkpt>
      <trkpt lat="47.2683" lon="1.86973">
        <ele>92.9</ele>
        <time>2015-08-17T14:26:11Z</time>
      </trkpt>
      <trkpt lat="47.26832" lon="1.8698">
        <ele>93.39</ele>
        <time>2015-08-17T14:26:15Z</time>
      </trkpt>
      <trkpt lat="47.26837" lon="1.87006">
        <ele>93.87</ele>
        <time>2015-08-17T14:26:27Z</time>
      </trkpt>
      <trkpt lat="47.26837" lon="1.87009">
        <ele>93.87</ele>
        <time>2015-08-17T14:26:28Z</time>
      </trkpt>
      <trkpt lat="47.26838" lon="1.87012">
        <ele>93.87</ele>
        <time>2015-08-17T14:26:29Z</time>
      </trkpt>
      <trkpt lat="47.26838" lon="1.87015">
        <ele>94.35</ele>
        <time>2015-08-17T14:26:30Z</time>
      </trkpt>
      <trkpt lat="47.26839" lon="1.87017">
        <ele>94.35</ele>
        <time>2015-08-17T14:26:31Z</time>
      </trkpt>
      <trkpt lat="47.26839" lon="1.87019">
        <ele>94.35</ele>
        <time>2015-08-17T14:26:32Z</time>
      </trkpt>
      <trkpt lat="47.2684" lon="1.87021">
        <ele>94.35</ele>
        <time>2015-08-17T14:26:33Z</time>
      </trkpt>
      <trkpt lat="47.26844" lon="1.8704">
        <ele>94.35</ele>
        <time>2015-08-17T14:26:40Z</time>
      </trkpt>
      <trkpt lat="47.26853" lon="1.87105">
        <ele>94.35</ele>
        <time>2015-08-17T14:26:55Z</time>
      </trkpt>
      <trkpt lat="47.26853" lon="1.87177">
        <ele>94.35</ele>
        <time>2015-08-17T14:27:12Z</time>
      </trkpt>
      <trkpt lat="47.2685" lon="1.8724">
        <ele>93.87</ele>
        <time>2015-08-17T14:27:27Z</time>
      </trkpt>
      <trkpt lat="47.26848" lon="1.87292">
        <ele>93.87</ele>
        <time>2015-08-17T14:27:40Z</time>
      </trkpt>
      <trkpt lat="47.26845" lon="1.87337">
        <ele>93.87</ele>
        <time>2015-08-17T14:27:52Z</time>
      </trkpt>
      <trkpt lat="47.26842" lon="1.87394">
        <ele>93.87</ele>
        <time>2015-08-17T14:28:05Z</time>
      </trkpt>
      <trkpt lat="47.26841" lon="1.87441">
        <ele>93.87</ele>
        <time>2015-08-17T14:28:17Z</time>
      </trkpt>
      <trkpt lat="47.2684" lon="1.87444">
        <ele>94.35</ele>
        <time>2015-08-17T14:28:18Z</time>
      </trkpt>
      <trkpt lat="47.2684" lon="1.87447">
        <ele>94.35</ele>
        <time>2015-08-17T14:28:19Z</time>
      </trkpt>
      <trkpt lat="47.26837" lon="1.87487">
        <ele>93.87</ele>
        <time>2015-08-17T14:28:29Z</time>
      </trkpt>
      <trkpt lat="47.26834" lon="1.87555">
        <ele>93.87</ele>
        <time>2015-08-17T14:28:45Z</time>
      </trkpt>
      <trkpt lat="47.2683" lon="1.87609">
        <ele>93.87</ele>
        <time>2015-08-17T14:28:58Z</time>
      </trkpt>
      <trkpt lat="47.26822" lon="1.87667">
        <ele>93.87</ele>
        <time>2015-08-17T14:29:12Z</time>
      </trkpt>
      <trkpt lat="47.26816" lon="1.8772">
        <ele>93.87</ele>
        <time>2015-08-17T14:29:24Z</time>
      </trkpt>
      <trkpt lat="47.26805" lon="1.87797">
        <ele>93.87</ele>
        <time>2015-08-17T14:29:41Z</time>
      </trkpt>
      <trkpt lat="47.26798" lon="1.87851">
        <ele>93.87</ele>
        <time>2015-08-17T14:29:54Z</time>
      </trkpt>
      <trkpt lat="47.26791" lon="1.87908">
        <ele>93.87</ele>
        <time>2015-08-17T14:30:08Z</time>
      </trkpt>
      <trkpt lat="47.26783" lon="1.8795">
        <ele>93.87</ele>
        <time>2015-08-17T14:30:21Z</time>
      </trkpt>
      <trkpt lat="47.26783" lon="1.87953">
        <ele>93.87</ele>
        <time>2015-08-17T14:30:22Z</time>
      </trkpt>
      <trkpt lat="47.26783" lon="1.87956">
        <ele>93.87</ele>
        <time>2015-08-17T14:30:23Z</time>
      </trkpt>
      <trkpt lat="47.26782" lon="1.87959">
        <ele>93.87</ele>
        <time>2015-08-17T14:30:24Z</time>
      </trkpt>
      <trkpt lat="47.26782" lon="1.87962">
        <ele>93.87</ele>
        <time>2015-08-17T14:30:25Z</time>
      </trkpt>
      <trkpt lat="47.26782" lon="1.87964">
        <ele>93.87</ele>
        <time>2015-08-17T14:30:26Z</time>
      </trkpt>
      <trkpt lat="47.26782" lon="1.87966">
        <ele>93.87</ele>
        <time>2015-08-17T14:30:27Z</time>
      </trkpt>
      <trkpt lat="47.26781" lon="1.87975">
        <ele>93.87</ele>
        <time>2015-08-17T14:30:37Z</time>
      </trkpt>
      <trkpt lat="47.26781" lon="1.87976">
        <ele>93.87</ele>
        <time>2015-08-17T14:30:38Z</time>
      </trkpt>
      <trkpt lat="47.2678" lon="1.87976">
        <ele>93.87</ele>
        <time>2015-08-17T14:31:12Z</time>
      </trkpt>
      <trkpt lat="47.26777" lon="1.87982">
        <ele>92.9</ele>
        <time>2015-08-17T14:31:24Z</time>
      </trkpt>
      <trkpt lat="47.26771" lon="1.87986">
        <ele>91.94</ele>
        <time>2015-08-17T14:31:35Z</time>
      </trkpt>
      <trkpt lat="47.2677" lon="1.87988">
        <ele>91.94</ele>
        <time>2015-08-17T14:31:44Z</time>
      </trkpt>
      <trkpt lat="47.26771" lon="1.8799">
        <ele>92.42</ele>
        <time>2015-08-17T14:31:45Z</time>
      </trkpt>
      <trkpt lat="47.26762" lon="1.88063">
        <ele>92.9</ele>
        <time>2015-08-17T14:31:58Z</time>
      </trkpt>
      <trkpt lat="47.26745" lon="1.8813">
        <ele>93.39</ele>
        <time>2015-08-17T14:32:12Z</time>
      </trkpt>
      <trkpt lat="47.26744" lon="1.88141">
        <ele>93.87</ele>
        <time>2015-08-17T14:32:17Z</time>
      </trkpt>
      <trkpt lat="47.26745" lon="1.88141">
        <ele>93.87</ele>
        <time>2015-08-17T14:32:42Z</time>
      </trkpt>
      <trkpt lat="47.26745" lon="1.88142">
        <ele>93.87</ele>
        <time>2015-08-17T14:33:18Z</time>
      </trkpt>
      <trkpt lat="47.26745" lon="1.88141">
        <ele>93.87</ele>
        <time>2015-08-17T14:33:47Z</time>
      </trkpt>
      <trkpt lat="47.26744" lon="1.88141">
        <ele>93.87</ele>
        <time>2015-08-17T14:34:10Z</time>
      </trkpt>
      <trkpt lat="47.26744" lon="1.88142">
        <ele>93.87</ele>
        <time>2015-08-17T14:34:30Z</time>
      </trkpt>
      <trkpt lat="47.26739" lon="1.8815">
        <ele>93.39</ele>
        <time>2015-08-17T14:34:43Z</time>
      </trkpt>
      <trkpt lat="47.26734" lon="1.8818">
        <ele>92.42</ele>
        <time>2015-08-17T14:34:52Z</time>
      </trkpt>
      <trkpt lat="47.26724" lon="1.88246">
        <ele>91.94</ele>
        <time>2015-08-17T14:35:06Z</time>
      </trkpt>
      <trkpt lat="47.26715" lon="1.88318">
        <ele>91.94</ele>
        <time>2015-08-17T14:35:20Z</time>
      </trkpt>
      <trkpt lat="47.26708" lon="1.88395">
        <ele>91.94</ele>
        <time>2015-08-17T14:35:36Z</time>
      </trkpt>
      <trkpt lat="47.26699" lon="1.88466">
        <ele>91.94</ele>
        <time>2015-08-17T14:35:51Z</time>
      </trkpt>
      <trkpt lat="47.26693" lon="1.88517">
        <ele>91.94</ele>
        <time>2015-08-17T14:36:04Z</time>
      </trkpt>
      <trkpt lat="47.26685" lon="1.88579">
        <ele>91.94</ele>
        <time>2015-08-17T14:36:19Z</time>
      </trkpt>
      <trkpt lat="47.26679" lon="1.88632">
        <ele>91.94</ele>
        <time>2015-08-17T14:36:31Z</time>
      </trkpt>
      <trkpt lat="47.26671" lon="1.8869">
        <ele>91.94</ele>
        <time>2015-08-17T14:36:44Z</time>
      </trkpt>
      <trkpt lat="47.2666" lon="1.88773">
        <ele>91.94</ele>
        <time>2015-08-17T14:37:01Z</time>
      </trkpt>
      <trkpt lat="47.26652" lon="1.88827">
        <ele>91.94</ele>
        <time>2015-08-17T14:37:14Z</time>
      </trkpt>
      <trkpt lat="47.26648" lon="1.88886">
        <ele>91.94</ele>
        <time>2015-08-17T14:37:28Z</time>
      </trkpt>
      <trkpt lat="47.26637" lon="1.88957">
        <ele>91.94</ele>
        <time>2015-08-17T14:37:44Z</time>
      </trkpt>
      <trkpt lat="47.26631" lon="1.89027">
        <ele>92.42</ele>
        <time>2015-08-17T14:37:58Z</time>
      </trkpt>
      <trkpt lat="47.26619" lon="1.8912">
        <ele>92.42</ele>
        <time>2015-08-17T14:38:14Z</time>
      </trkpt>
      <trkpt lat="47.26604" lon="1.89243">
        <ele>91.94</ele>
        <time>2015-08-17T14:38:33Z</time>
      </trkpt>
      <trkpt lat="47.26601" lon="1.89264">
        <ele>91.94</ele>
        <time>2015-08-17T14:38:36Z</time>
      </trkpt>
      <trkpt lat="47.26586" lon="1.89379">
        <ele>92.9</ele>
        <time>2015-08-17T14:38:51Z</time>
      </trkpt>
      <trkpt lat="47.26574" lon="1.89488">
        <ele>93.39</ele>
        <time>2015-08-17T14:39:07Z</time>
      </trkpt>
      <trkpt lat="47.26569" lon="1.89526">
        <ele>93.87</ele>
        <time>2015-08-17T14:39:13Z</time>
      </trkpt>
      <trkpt lat="47.26555" lon="1.89642">
        <ele>93.87</ele>
        <time>2015-08-17T14:39:29Z</time>
      </trkpt>
      <trkpt lat="47.26538" lon="1.89757">
        <ele>95.31</ele>
        <time>2015-08-17T14:39:45Z</time>
      </trkpt>
      <trkpt lat="47.26537" lon="1.89764">
        <ele>95.31</ele>
        <time>2015-08-17T14:39:46Z</time>
      </trkpt>
      <trkpt lat="47.26541" lon="1.89787">
        <ele>96.27</ele>
        <time>2015-08-17T14:39:53Z</time>
      </trkpt>
      <trkpt lat="47.26537" lon="1.89829">
        <ele>94.35</ele>
        <time>2015-08-17T14:40:03Z</time>
      </trkpt>
      <trkpt lat="47.26528" lon="1.89905">
        <ele>93.87</ele>
        <time>2015-08-17T14:40:16Z</time>
      </trkpt>
      <trkpt lat="47.26522" lon="1.89966">
        <ele>93.87</ele>
        <time>2015-08-17T14:40:29Z</time>
      </trkpt>
      <trkpt lat="47.2652" lon="1.90015">
        <ele>93.87</ele>
        <time>2015-08-17T14:40:43Z</time>
      </trkpt>
      <trkpt lat="47.2652" lon="1.90014">
        <ele>93.87</ele>
        <time>2015-08-17T14:41:00Z</time>
      </trkpt>
      <trkpt lat="47.26522" lon="1.90024">
        <ele>93.87</ele>
        <time>2015-08-17T14:41:14Z</time>
      </trkpt>
      <trkpt lat="47.26524" lon="1.90081">
        <ele>93.87</ele>
        <time>2015-08-17T14:41:25Z</time>
      </trkpt>
      <trkpt lat="47.26525" lon="1.90143">
        <ele>93.87</ele>
        <time>2015-08-17T14:41:37Z</time>
      </trkpt>
      <trkpt lat="47.26514" lon="1.90201">
        <ele>93.87</ele>
        <time>2015-08-17T14:41:50Z</time>
      </trkpt>
      <trkpt lat="47.26495" lon="1.9024">
        <ele>93.87</ele>
        <time>2015-08-17T14:42:01Z</time>
      </trkpt>
      <trkpt lat="47.26463" lon="1.90275">
        <ele>93.87</ele>
        <time>2015-08-17T14:42:14Z</time>
      </trkpt>
      <trkpt lat="47.26433" lon="1.90296">
        <ele>93.87</ele>
        <time>2015-08-17T14:42:26Z</time>
      </trkpt>
      <trkpt lat="47.26401" lon="1.90326">
        <ele>94.35</ele>
        <time>2015-08-17T14:42:38Z</time>
      </trkpt>
      <trkpt lat="47.26379" lon="1.90365">
        <ele>95.31</ele>
        <time>2015-08-17T14:42:51Z</time>
      </trkpt>
      <trkpt lat="47.26365" lon="1.90409">
        <ele>93.87</ele>
        <time>2015-08-17T14:43:03Z</time>
      </trkpt>
      <trkpt lat="47.26351" lon="1.90464">
        <ele>93.87</ele>
        <time>2015-08-17T14:43:18Z</time>
      </trkpt>
      <trkpt lat="47.26343" lon="1.90509">
        <ele>93.87</ele>
        <time>2015-08-17T14:43:32Z</time>
      </trkpt>
      <trkpt lat="47.26334" lon="1.90561">
        <ele>93.87</ele>
        <time>2015-08-17T14:43:46Z</time>
      </trkpt>
      <trkpt lat="47.26327" lon="1.9061">
        <ele>93.87</ele>
        <time>2015-08-17T14:43:59Z</time>
      </trkpt>
      <trkpt lat="47.26324" lon="1.90622">
        <ele>93.87</ele>
        <time>2015-08-17T14:44:03Z</time>
      </trkpt>
      <trkpt lat="47.26324" lon="1.90632">
        <ele>93.87</ele>
        <time>2015-08-17T14:44:06Z</time>
      </trkpt>
      <trkpt lat="47.26317" lon="1.9068">
        <ele>93.39</ele>
        <time>2015-08-17T14:44:20Z</time>
      </trkpt>
      <trkpt lat="47.26305" lon="1.90719">
        <ele>93.87</ele>
        <time>2015-08-17T14:44:33Z</time>
      </trkpt>
      <trkpt lat="47.26288" lon="1.90769">
        <ele>93.87</ele>
        <time>2015-08-17T14:44:47Z</time>
      </trkpt>
      <trkpt lat="47.26277" lon="1.90804">
        <ele>93.87</ele>
        <time>2015-08-17T14:45:00Z</time>
      </trkpt>
      <trkpt lat="47.26259" lon="1.90847">
        <ele>92.42</ele>
        <time>2015-08-17T14:45:14Z</time>
      </trkpt>
      <trkpt lat="47.26237" lon="1.90894">
        <ele>91.94</ele>
        <time>2015-08-17T14:45:26Z</time>
      </trkpt>
      <trkpt lat="47.2621" lon="1.9094">
        <ele>91.94</ele>
        <time>2015-08-17T14:45:40Z</time>
      </trkpt>
      <trkpt lat="47.2619" lon="1.90969">
        <ele>91.94</ele>
        <time>2015-08-17T14:45:50Z</time>
      </trkpt>
      <trkpt lat="47.26167" lon="1.91011">
        <ele>91.94</ele>
        <time>2015-08-17T14:46:03Z</time>
      </trkpt>
      <trkpt lat="47.26137" lon="1.91065">
        <ele>91.46</ele>
        <time>2015-08-17T14:46:15Z</time>
      </trkpt>
      <trkpt lat="47.26132" lon="1.91076">
        <ele>91.46</ele>
        <time>2015-08-17T14:46:17Z</time>
      </trkpt>
      <trkpt lat="47.26113" lon="1.91121">
        <ele>91.46</ele>
        <time>2015-08-17T14:46:26Z</time>
      </trkpt>
      <trkpt lat="47.26096" lon="1.91174">
        <ele>90.98</ele>
        <time>2015-08-17T14:46:36Z</time>
      </trkpt>
      <trkpt lat="47.26077" lon="1.91231">
        <ele>91.94</ele>
        <time>2015-08-17T14:46:47Z</time>
      </trkpt>
      <trkpt lat="47.26064" lon="1.91272">
        <ele>91.94</ele>
        <time>2015-08-17T14:46:58Z</time>
      </trkpt>
      <trkpt lat="47.26056" lon="1.91293">
        <ele>91.94</ele>
        <time>2015-08-17T14:47:06Z</time>
      </trkpt>
      <trkpt lat="47.26051" lon="1.91303">
        <ele>91.94</ele>
        <time>2015-08-17T14:47:26Z</time>
      </trkpt>
      <trkpt lat="47.2605" lon="1.91303">
        <ele>91.94</ele>
        <time>2015-08-17T14:47:50Z</time>
      </trkpt>
      <trkpt lat="47.2605" lon="1.91303">
        <ele>91.94</ele>
        <time>2015-08-17T14:48:25Z</time>
      </trkpt>
      <trkpt lat="47.26052" lon="1.91302">
        <ele>91.94</ele>
        <time>2015-08-17T14:48:44Z</time>
      </trkpt>
      <trkpt lat="47.2605" lon="1.91308">
        <ele>92.42</ele>
        <time>2015-08-17T14:48:53Z</time>
      </trkpt>
      <trkpt lat="47.26032" lon="1.91352">
        <ele>92.9</ele>
        <time>2015-08-17T14:49:04Z</time>
      </trkpt>
      <trkpt lat="47.26025" lon="1.91392">
        <ele>93.39</ele>
        <time>2015-08-17T14:49:15Z</time>
      </trkpt>
      <trkpt lat="47.26023" lon="1.91401">
        <ele>93.39</ele>
        <time>2015-08-17T14:49:18Z</time>
      </trkpt>
      <trkpt lat="47.26014" lon="1.91437">
        <ele>93.39</ele>
        <time>2015-08-17T14:49:28Z</time>
      </trkpt>
      <trkpt lat="47.26001" lon="1.91485">
        <ele>93.87</ele>
        <time>2015-08-17T14:49:40Z</time>
      </trkpt>
      <trkpt lat="47.25989" lon="1.91532">
        <ele>91.94</ele>
        <time>2015-08-17T14:49:53Z</time>
      </trkpt>
      <trkpt lat="47.25967" lon="1.9158">
        <ele>91.46</ele>
        <time>2015-08-17T14:50:06Z</time>
      </trkpt>
      <trkpt lat="47.25925" lon="1.91615">
        <ele>90.5</ele>
        <time>2015-08-17T14:50:19Z</time>
      </trkpt>
      <trkpt lat="47.25883" lon="1.91655">
        <ele>90.98</ele>
        <time>2015-08-17T14:50:32Z</time>
      </trkpt>
      <trkpt lat="47.25856" lon="1.91673">
        <ele>90.98</ele>
        <time>2015-08-17T14:50:41Z</time>
      </trkpt>
      <trkpt lat="47.25828" lon="1.91712">
        <ele>90.98</ele>
        <time>2015-08-17T14:50:54Z</time>
      </trkpt>
      <trkpt lat="47.25821" lon="1.91728">
        <ele>90.5</ele>
        <time>2015-08-17T14:50:59Z</time>
      </trkpt>
      <trkpt lat="47.25819" lon="1.91736">
        <ele>90.5</ele>
        <time>2015-08-17T14:51:05Z</time>
      </trkpt>
      <trkpt lat="47.25804" lon="1.9178">
        <ele>91.46</ele>
        <time>2015-08-17T14:51:17Z</time>
      </trkpt>
      <trkpt lat="47.25786" lon="1.91827">
        <ele>90.98</ele>
        <time>2015-08-17T14:51:28Z</time>
      </trkpt>
      <trkpt lat="47.25757" lon="1.91883">
        <ele>90.98</ele>
        <time>2015-08-17T14:51:41Z</time>
      </trkpt>
      <trkpt lat="47.25742" lon="1.91932">
        <ele>91.46</ele>
        <time>2015-08-17T14:51:52Z</time>
      </trkpt>
      <trkpt lat="47.25737" lon="1.91953">
        <ele>91.46</ele>
        <time>2015-08-17T14:51:56Z</time>
      </trkpt>
      <trkpt lat="47.25717" lon="1.92007">
        <ele>91.46</ele>
        <time>2015-08-17T14:52:07Z</time>
      </trkpt>
      <trkpt lat="47.25714" lon="1.92012">
        <ele>91.46</ele>
        <time>2015-08-17T14:52:08Z</time>
      </trkpt>
      <trkpt lat="47.25686" lon="1.92087">
        <ele>91.94</ele>
        <time>2015-08-17T14:52:22Z</time>
      </trkpt>
      <trkpt lat="47.25667" lon="1.92132">
        <ele>92.42</ele>
        <time>2015-08-17T14:52:31Z</time>
      </trkpt>
      <trkpt lat="47.25662" lon="1.92149">
        <ele>92.9</ele>
        <time>2015-08-17T14:52:34Z</time>
      </trkpt>
      <trkpt lat="47.25644" lon="1.92219">
        <ele>92.9</ele>
        <time>2015-08-17T14:52:47Z</time>
      </trkpt>
      <trkpt lat="47.2562" lon="1.923">
        <ele>92.9</ele>
        <time>2015-08-17T14:53:03Z</time>
      </trkpt>
      <trkpt lat="47.25598" lon="1.92368">
        <ele>93.39</ele>
        <time>2015-08-17T14:53:16Z</time>
      </trkpt>
      <trkpt lat="47.25569" lon="1.92439">
        <ele>93.39</ele>
        <time>2015-08-17T14:53:32Z</time>
      </trkpt>
      <trkpt lat="47.25552" lon="1.92507">
        <ele>93.87</ele>
        <time>2015-08-17T14:53:47Z</time>
      </trkpt>
      <trkpt lat="47.2554" lon="1.92545">
        <ele>93.87</ele>
        <time>2015-08-17T14:54:00Z</time>
      </trkpt>
      <trkpt lat="47.25511" lon="1.9259">
        <ele>93.39</ele>
        <time>2015-08-17T14:54:16Z</time>
      </trkpt>
      <trkpt lat="47.25489" lon="1.92654">
        <ele>93.39</ele>
        <time>2015-08-17T14:54:30Z</time>
      </trkpt>
      <trkpt lat="47.25465" lon="1.92739">
        <ele>92.9</ele>
        <time>2015-08-17T14:54:47Z</time>
      </trkpt>
      <trkpt lat="47.25445" lon="1.92805">
        <ele>92.9</ele>
        <time>2015-08-17T14:55:00Z</time>
      </trkpt>
      <trkpt lat="47.25436" lon="1.9287">
        <ele>92.9</ele>
        <time>2015-08-17T14:55:12Z</time>
      </trkpt>
      <trkpt lat="47.25404" lon="1.92949">
        <ele>92.42</ele>
        <time>2015-08-17T14:55:28Z</time>
      </trkpt>
      <trkpt lat="47.25374" lon="1.93008">
        <ele>92.9</ele>
        <time>2015-08-17T14:55:41Z</time>
      </trkpt>
      <trkpt lat="47.25363" lon="1.93073">
        <ele>92.42</ele>
        <time>2015-08-17T14:55:54Z</time>
      </trkpt>
      <trkpt lat="47.25356" lon="1.93135">
        <ele>92.42</ele>
        <time>2015-08-17T14:56:06Z</time>
      </trkpt>
      <trkpt lat="47.2536" lon="1.93198">
        <ele>92.42</ele>
        <time>2015-08-17T14:56:17Z</time>
      </trkpt>
      <trkpt lat="47.25361" lon="1.93205">
        <ele>92.42</ele>
        <time>2015-08-17T14:56:18Z</time>
      </trkpt>
      <trkpt lat="47.25361" lon="1.93211">
        <ele>92.42</ele>
        <time>2015-08-17T14:56:19Z</time>
      </trkpt>
      <trkpt lat="47.25362" lon="1.93218">
        <ele>92.42</ele>
        <time>2015-08-17T14:56:20Z</time>
      </trkpt>
      <trkpt lat="47.25362" lon="1.93224">
        <ele>92.9</ele>
        <time>2015-08-17T14:56:21Z</time>
      </trkpt>
      <trkpt lat="47.25362" lon="1.9323">
        <ele>92.9</ele>
        <time>2015-08-17T14:56:22Z</time>
      </trkpt>
      <trkpt lat="47.25363" lon="1.93236">
        <ele>92.9</ele>
        <time>2015-08-17T14:56:23Z</time>
      </trkpt>
      <trkpt lat="47.25362" lon="1.93261">
        <ele>92.9</ele>
        <time>2015-08-17T14:56:27Z</time>
      </trkpt>
      <trkpt lat="47.2536" lon="1.93317">
        <ele>93.39</ele>
        <time>2015-08-17T14:56:36Z</time>
      </trkpt>
      <trkpt lat="47.2536" lon="1.93323">
        <ele>93.39</ele>
        <time>2015-08-17T14:56:37Z</time>
      </trkpt>
      <trkpt lat="47.2536" lon="1.93328">
        <ele>93.39</ele>
        <time>2015-08-17T14:56:38Z</time>
      </trkpt>
      <trkpt lat="47.2536" lon="1.93334">
        <ele>93.39</ele>
        <time>2015-08-17T14:56:39Z</time>
      </trkpt>
      <trkpt lat="47.25361" lon="1.93339">
        <ele>93.39</ele>
        <time>2015-08-17T14:56:40Z</time>
      </trkpt>
      <trkpt lat="47.25362" lon="1.93345">
        <ele>93.39</ele>
        <time>2015-08-17T14:56:41Z</time>
      </trkpt>
      <trkpt lat="47.25367" lon="1.93363">
        <ele>93.39</ele>
        <time>2015-08-17T14:56:44Z</time>
      </trkpt>
      <trkpt lat="47.25393" lon="1.93407">
        <ele>93.87</ele>
        <time>2015-08-17T14:56:55Z</time>
      </trkpt>
      <trkpt lat="47.25397" lon="1.9345">
        <ele>94.35</ele>
        <time>2015-08-17T14:57:05Z</time>
      </trkpt>
      <trkpt lat="47.2539" lon="1.93501">
        <ele>94.35</ele>
        <time>2015-08-17T14:57:16Z</time>
      </trkpt>
      <trkpt lat="47.25394" lon="1.93571">
        <ele>93.39</ele>
        <time>2015-08-17T14:57:30Z</time>
      </trkpt>
      <trkpt lat="47.25396" lon="1.93626">
        <ele>93.87</ele>
        <time>2015-08-17T14:57:41Z</time>
      </trkpt>
      <trkpt lat="47.25394" lon="1.93675">
        <ele>93.39</ele>
        <time>2015-08-17T14:57:53Z</time>
      </trkpt>
      <trkpt lat="47.25394" lon="1.93719">
        <ele>93.39</ele>
        <time>2015-08-17T14:58:03Z</time>
      </trkpt>
      <trkpt lat="47.25392" lon="1.93761">
        <ele>93.87</ele>
        <time>2015-08-17T14:58:15Z</time>
      </trkpt>
      <trkpt lat="47.25379" lon="1.93799">
        <ele>93.87</ele>
        <time>2015-08-17T14:58:25Z</time>
      </trkpt>
      <trkpt lat="47.25376" lon="1.93814">
        <ele>93.87</ele>
        <time>2015-08-17T14:58:29Z</time>
      </trkpt>
      <trkpt lat="47.25371" lon="1.93844">
        <ele>93.87</ele>
        <time>2015-08-17T14:58:38Z</time>
      </trkpt>
      <trkpt lat="47.25362" lon="1.93904">
        <ele>93.87</ele>
        <time>2015-08-17T14:58:54Z</time>
      </trkpt>
      <trkpt lat="47.25362" lon="1.9395">
        <ele>93.39</ele>
        <time>2015-08-17T14:59:07Z</time>
      </trkpt>
      <trkpt lat="47.25361" lon="1.93964">
        <ele>93.87</ele>
        <time>2015-08-17T14:59:12Z</time>
      </trkpt>
      <trkpt lat="47.25359" lon="1.93973">
        <ele>93.87</ele>
        <time>2015-08-17T14:59:16Z</time>
      </trkpt>
      <trkpt lat="47.25359" lon="1.93974">
        <ele>93.39</ele>
        <time>2015-08-17T14:59:35Z</time>
      </trkpt>
      <trkpt lat="47.2536" lon="1.93976">
        <ele>93.87</ele>
        <time>2015-08-17T15:00:07Z</time>
      </trkpt>
      <trkpt lat="47.2536" lon="1.93976">
        <ele>93.87</ele>
        <time>2015-08-17T15:00:37Z</time>
      </trkpt>
      <trkpt lat="47.25361" lon="1.93974">
        <ele>93.87</ele>
        <time>2015-08-17T15:01:04Z</time>
      </trkpt>
      <trkpt lat="47.25359" lon="1.93984">
        <ele>93.39</ele>
        <time>2015-08-17T15:01:15Z</time>
      </trkpt>
      <trkpt lat="47.25352" lon="1.94023">
        <ele>93.39</ele>
        <time>2015-08-17T15:01:28Z</time>
      </trkpt>
      <trkpt lat="47.25338" lon="1.9406">
        <ele>93.39</ele>
        <time>2015-08-17T15:01:40Z</time>
      </trkpt>
      <trkpt lat="47.25318" lon="1.94104">
        <ele>93.39</ele>
        <time>2015-08-17T15:01:53Z</time>
      </trkpt>
      <trkpt lat="47.25292" lon="1.94158">
        <ele>93.39</ele>
        <time>2015-08-17T15:02:09Z</time>
      </trkpt>
      <trkpt lat="47.25265" lon="1.94219">
        <ele>93.87</ele>
        <time>2015-08-17T15:02:26Z</time>
      </trkpt>
      <trkpt lat="47.25241" lon="1.94267">
        <ele>94.35</ele>
        <time>2015-08-17T15:02:39Z</time>
      </trkpt>
      <trkpt lat="47.25222" lon="1.94311">
        <ele>93.87</ele>
        <time>2015-08-17T15:02:53Z</time>
      </trkpt>
      <trkpt lat="47.25203" lon="1.94353">
        <ele>93.87</ele>
        <time>2015-08-17T15:03:08Z</time>
      </trkpt>
      <trkpt lat="47.2518" lon="1.94401">
        <ele>94.35</ele>
        <time>2015-08-17T15:03:22Z</time>
      </trkpt>
      <trkpt lat="47.25161" lon="1.94446">
        <ele>94.35</ele>
        <time>2015-08-17T15:03:34Z</time>
      </trkpt>
      <trkpt lat="47.25133" lon="1.94503">
        <ele>94.83</ele>
        <time>2015-08-17T15:03:50Z</time>
      </trkpt>
      <trkpt lat="47.25113" lon="1.94544">
        <ele>94.35</ele>
        <time>2015-08-17T15:04:03Z</time>
      </trkpt>
      <trkpt lat="47.25089" lon="1.94599">
        <ele>94.83</ele>
        <time>2015-08-17T15:04:18Z</time>
      </trkpt>
      <trkpt lat="47.25077" lon="1.94637">
        <ele>94.83</ele>
        <time>2015-08-17T15:04:32Z</time>
      </trkpt>
      <trkpt lat="47.25083" lon="1.94648">
        <ele>95.79</ele>
        <time>2015-08-17T15:04:39Z</time>
      </trkpt>
      <trkpt lat="47.25084" lon="1.94649">
        <ele>95.31</ele>
        <time>2015-08-17T15:05:08Z</time>
      </trkpt>
      <trkpt lat="47.25084" lon="1.94649">
        <ele>95.31</ele>
        <time>2015-08-17T15:05:43Z</time>
      </trkpt>
      <trkpt lat="47.25084" lon="1.9465">
        <ele>95.31</ele>
        <time>2015-08-17T15:06:19Z</time>
      </trkpt>
      <trkpt lat="47.25084" lon="1.9465">
        <ele>95.31</ele>
        <time>2015-08-17T15:06:53Z</time>
      </trkpt>
      <trkpt lat="47.25084" lon="1.94649">
        <ele>95.31</ele>
        <time>2015-08-17T15:07:33Z</time>
      </trkpt>
      <trkpt lat="47.25084" lon="1.94651">
        <ele>95.31</ele>
        <time>2015-08-17T15:08:15Z</time>
      </trkpt>
      <trkpt lat="47.25084" lon="1.94652">
        <ele>95.31</ele>
        <time>2015-08-17T15:09:00Z</time>
      </trkpt>
      <trkpt lat="47.25084" lon="1.94651">
        <ele>95.79</ele>
        <time>2015-08-17T15:09:38Z</time>
      </trkpt>
      <trkpt lat="47.25084" lon="1.94652">
        <ele>95.31</ele>
        <time>2015-08-17T15:10:06Z</time>
      </trkpt>
      <trkpt lat="47.25084" lon="1.9465">
        <ele>95.79</ele>
        <time>2015-08-17T15:10:41Z</time>
      </trkpt>
      <trkpt lat="47.25086" lon="1.94649">
        <ele>95.79</ele>
        <time>2015-08-17T15:10:58Z</time>
      </trkpt>
      <trkpt lat="47.25089" lon="1.94668">
        <ele>95.31</ele>
        <time>2015-08-17T15:11:11Z</time>
      </trkpt>
      <trkpt lat="47.25068" lon="1.94711">
        <ele>95.31</ele>
        <time>2015-08-17T15:11:27Z</time>
      </trkpt>
      <trkpt lat="47.25048" lon="1.94756">
        <ele>94.83</ele>
        <time>2015-08-17T15:11:43Z</time>
      </trkpt>
      <trkpt lat="47.25025" lon="1.94799">
        <ele>94.83</ele>
        <time>2015-08-17T15:11:58Z</time>
      </trkpt>
      <trkpt lat="47.25004" lon="1.94849">
        <ele>94.83</ele>
        <time>2015-08-17T15:12:14Z</time>
      </trkpt>
      <trkpt lat="47.2498" lon="1.94897">
        <ele>94.83</ele>
        <time>2015-08-17T15:12:29Z</time>
      </trkpt>
      <trkpt lat="47.24959" lon="1.94948">
        <ele>94.83</ele>
        <time>2015-08-17T15:12:45Z</time>
      </trkpt>
      <trkpt lat="47.24939" lon="1.94992">
        <ele>95.31</ele>
        <time>2015-08-17T15:12:59Z</time>
      </trkpt>
      <trkpt lat="47.24917" lon="1.9504">
        <ele>95.31</ele>
        <time>2015-08-17T15:13:15Z</time>
      </trkpt>
      <trkpt lat="47.24889" lon="1.95101">
        <ele>95.31</ele>
        <time>2015-08-17T15:13:33Z</time>
      </trkpt>
      <trkpt lat="47.24871" lon="1.95144">
        <ele>95.31</ele>
        <time>2015-08-17T15:13:47Z</time>
      </trkpt>
      <trkpt lat="47.24852" lon="1.95183">
        <ele>95.31</ele>
        <time>2015-08-17T15:14:01Z</time>
      </trkpt>
      <trkpt lat="47.24833" lon="1.95222">
        <ele>95.31</ele>
        <time>2015-08-17T15:14:16Z</time>
      </trkpt>
      <trkpt lat="47.24816" lon="1.95263">
        <ele>95.79</ele>
        <time>2015-08-17T15:14:31Z</time>
      </trkpt>
      <trkpt lat="47.24785" lon="1.95329">
        <ele>95.79</ele>
        <time>2015-08-17T15:14:52Z</time>
      </trkpt>
      <trkpt lat="47.24764" lon="1.95378">
        <ele>95.79</ele>
        <time>2015-08-17T15:15:07Z</time>
      </trkpt>
      <trkpt lat="47.24734" lon="1.95444">
        <ele>95.79</ele>
        <time>2015-08-17T15:15:27Z</time>
      </trkpt>
      <trkpt lat="47.24703" lon="1.95507">
        <ele>95.79</ele>
        <time>2015-08-17T15:15:47Z</time>
      </trkpt>
      <trkpt lat="47.24672" lon="1.95565">
        <ele>95.79</ele>
        <time>2015-08-17T15:16:05Z</time>
      </trkpt>
      <trkpt lat="47.24642" lon="1.95617">
        <ele>96.27</ele>
        <time>2015-08-17T15:16:22Z</time>
      </trkpt>
      <trkpt lat="47.24618" lon="1.95661">
        <ele>96.27</ele>
        <time>2015-08-17T15:16:36Z</time>
      </trkpt>
      <trkpt lat="47.24593" lon="1.95703">
        <ele>96.27</ele>
        <time>2015-08-17T15:16:51Z</time>
      </trkpt>
      <trkpt lat="47.24575" lon="1.95727">
        <ele>97.71</ele>
        <time>2015-08-17T15:17:03Z</time>
      </trkpt>
      <trkpt lat="47.24573" lon="1.95726">
        <ele>97.71</ele>
        <time>2015-08-17T15:17:05Z</time>
      </trkpt>
      <trkpt lat="47.24571" lon="1.95726">
        <ele>97.71</ele>
        <time>2015-08-17T15:17:15Z</time>
      </trkpt>
      <trkpt lat="47.24571" lon="1.95723">
        <ele>97.71</ele>
        <time>2015-08-17T15:17:26Z</time>
      </trkpt>
      <trkpt lat="47.24576" lon="1.95731">
        <ele>97.23</ele>
        <time>2015-08-17T15:17:36Z</time>
      </trkpt>
      <trkpt lat="47.24576" lon="1.95733">
        <ele>97.23</ele>
        <time>2015-08-17T15:17:40Z</time>
      </trkpt>
      <trkpt lat="47.24576" lon="1.95732">
        <ele>97.23</ele>
        <time>2015-08-17T15:18:10Z</time>
      </trkpt>
      <trkpt lat="47.24576" lon="1.95732">
        <ele>97.71</ele>
        <time>2015-08-17T15:18:43Z</time>
      </trkpt>
      <trkpt lat="47.24576" lon="1.95733">
        <ele>97.71</ele>
        <time>2015-08-17T15:19:12Z</time>
      </trkpt>
      <trkpt lat="47.24576" lon="1.95732">
        <ele>97.71</ele>
        <time>2015-08-17T15:19:39Z</time>
      </trkpt>
      <trkpt lat="47.24569" lon="1.95736">
        <ele>97.23</ele>
        <time>2015-08-17T15:19:51Z</time>
      </trkpt>
      <trkpt lat="47.24553" lon="1.95769">
        <ele>97.23</ele>
        <time>2015-08-17T15:20:06Z</time>
      </trkpt>
      <trkpt lat="47.24551" lon="1.95773">
        <ele>97.23</ele>
        <time>2015-08-17T15:20:08Z</time>
      </trkpt>
      <trkpt lat="47.24537" lon="1.95801">
        <ele>97.23</ele>
        <time>2015-08-17T15:20:20Z</time>
      </trkpt>
      <trkpt lat="47.24509" lon="1.95852">
        <ele>97.23</ele>
        <time>2015-08-17T15:20:34Z</time>
      </trkpt>
      <trkpt lat="47.24504" lon="1.95866">
        <ele>97.23</ele>
        <time>2015-08-17T15:20:38Z</time>
      </trkpt>
      <trkpt lat="47.24497" lon="1.95877">
        <ele>97.23</ele>
        <time>2015-08-17T15:20:41Z</time>
      </trkpt>
      <trkpt lat="47.24487" lon="1.95911">
        <ele>97.71</ele>
        <time>2015-08-17T15:20:50Z</time>
      </trkpt>
      <trkpt lat="47.24481" lon="1.95939">
        <ele>97.23</ele>
        <time>2015-08-17T15:20:58Z</time>
      </trkpt>
      <trkpt lat="47.24475" lon="1.95961">
        <ele>97.23</ele>
        <time>2015-08-17T15:21:04Z</time>
      </trkpt>
      <trkpt lat="47.24473" lon="1.95972">
        <ele>97.23</ele>
        <time>2015-08-17T15:21:08Z</time>
      </trkpt>
      <trkpt lat="47.24473" lon="1.95974">
        <ele>97.23</ele>
        <time>2015-08-17T15:21:09Z</time>
      </trkpt>
      <trkpt lat="47.24471" lon="1.95983">
        <ele>97.23</ele>
        <time>2015-08-17T15:21:24Z</time>
      </trkpt>
      <trkpt lat="47.24471" lon="1.95987">
        <ele>97.71</ele>
        <time>2015-08-17T15:21:57Z</time>
      </trkpt>
      <trkpt lat="47.24469" lon="1.96002">
        <ele>97.71</ele>
        <time>2015-08-17T15:22:10Z</time>
      </trkpt>
      <trkpt lat="47.24459" lon="1.96046">
        <ele>97.71</ele>
        <time>2015-08-17T15:22:22Z</time>
      </trkpt>
      <trkpt lat="47.24448" lon="1.96093">
        <ele>97.23</ele>
        <time>2015-08-17T15:22:35Z</time>
      </trkpt>
      <trkpt lat="47.24435" lon="1.96143">
        <ele>97.71</ele>
        <time>2015-08-17T15:22:48Z</time>
      </trkpt>
      <trkpt lat="47.24424" lon="1.9619">
        <ele>97.71</ele>
        <time>2015-08-17T15:23:00Z</time>
      </trkpt>
      <trkpt lat="47.2442" lon="1.96208">
        <ele>97.71</ele>
        <time>2015-08-17T15:23:05Z</time>
      </trkpt>
      <trkpt lat="47.24414" lon="1.9623">
        <ele>98.19</ele>
        <time>2015-08-17T15:23:11Z</time>
      </trkpt>
      <trkpt lat="47.24402" lon="1.96258">
        <ele>97.71</ele>
        <time>2015-08-17T15:23:21Z</time>
      </trkpt>
      <trkpt lat="47.24388" lon="1.96289">
        <ele>97.71</ele>
        <time>2015-08-17T15:23:33Z</time>
      </trkpt>
      <trkpt lat="47.24376" lon="1.9631">
        <ele>97.71</ele>
        <time>2015-08-17T15:23:41Z</time>
      </trkpt>
      <trkpt lat="47.24369" lon="1.96321">
        <ele>97.71</ele>
        <time>2015-08-17T15:23:46Z</time>
      </trkpt>
      <trkpt lat="47.24347" lon="1.9637">
        <ele>97.71</ele>
        <time>2015-08-17T15:24:03Z</time>
      </trkpt>
      <trkpt lat="47.2433" lon="1.96409">
        <ele>97.71</ele>
        <time>2015-08-17T15:24:14Z</time>
      </trkpt>
      <trkpt lat="47.24311" lon="1.96446">
        <ele>97.71</ele>
        <time>2015-08-17T15:24:28Z</time>
      </trkpt>
      <trkpt lat="47.24292" lon="1.96489">
        <ele>97.71</ele>
        <time>2015-08-17T15:24:41Z</time>
      </trkpt>
      <trkpt lat="47.24275" lon="1.96524">
        <ele>97.71</ele>
        <time>2015-08-17T15:24:52Z</time>
      </trkpt>
      <trkpt lat="47.24274" lon="1.96528">
        <ele>97.71</ele>
        <time>2015-08-17T15:24:53Z</time>
      </trkpt>
      <trkpt lat="47.24273" lon="1.96532">
        <ele>97.71</ele>
        <time>2015-08-17T15:24:54Z</time>
      </trkpt>
      <trkpt lat="47.24271" lon="1.96534">
        <ele>97.71</ele>
        <time>2015-08-17T15:24:55Z</time>
      </trkpt>
      <trkpt lat="47.24269" lon="1.96536">
        <ele>97.71</ele>
        <time>2015-08-17T15:24:56Z</time>
      </trkpt>
      <trkpt lat="47.24267" lon="1.96538">
        <ele>97.71</ele>
        <time>2015-08-17T15:24:57Z</time>
      </trkpt>
      <trkpt lat="47.24265" lon="1.9654">
        <ele>97.71</ele>
        <time>2015-08-17T15:24:58Z</time>
      </trkpt>
      <trkpt lat="47.24264" lon="1.96542">
        <ele>98.19</ele>
        <time>2015-08-17T15:24:59Z</time>
      </trkpt>
      <trkpt lat="47.24263" lon="1.96544">
        <ele>98.19</ele>
        <time>2015-08-17T15:25:00Z</time>
      </trkpt>
      <trkpt lat="47.24262" lon="1.96545">
        <ele>97.71</ele>
        <time>2015-08-17T15:25:01Z</time>
      </trkpt>
      <trkpt lat="47.24258" lon="1.9655">
        <ele>98.19</ele>
        <time>2015-08-17T15:25:04Z</time>
      </trkpt>
      <trkpt lat="47.24257" lon="1.96551">
        <ele>98.19</ele>
        <time>2015-08-17T15:25:05Z</time>
      </trkpt>
      <trkpt lat="47.24254" lon="1.96554">
        <ele>98.67</ele>
        <time>2015-08-17T15:25:14Z</time>
      </trkpt>
      <trkpt lat="47.24254" lon="1.96555">
        <ele>98.67</ele>
        <time>2015-08-17T15:25:38Z</time>
      </trkpt>
      <trkpt lat="47.24254" lon="1.96556">
        <ele>98.67</ele>
        <time>2015-08-17T15:26:11Z</time>
      </trkpt>
      <trkpt lat="47.24255" lon="1.96559">
        <ele>98.67</ele>
        <time>2015-08-17T15:26:44Z</time>
      </trkpt>
      <trkpt lat="47.24256" lon="1.96561">
        <ele>98.67</ele>
        <time>2015-08-17T15:27:05Z</time>
      </trkpt>
      <trkpt lat="47.24247" lon="1.96583">
        <ele>98.19</ele>
        <time>2015-08-17T15:27:17Z</time>
      </trkpt>
      <trkpt lat="47.24234" lon="1.96622">
        <ele>98.67</ele>
        <time>2015-08-17T15:27:29Z</time>
      </trkpt>
      <trkpt lat="47.24221" lon="1.96653">
        <ele>98.19</ele>
        <time>2015-08-17T15:27:40Z</time>
      </trkpt>
      <trkpt lat="47.2422" lon="1.96655">
        <ele>98.19</ele>
        <time>2015-08-17T15:27:41Z</time>
      </trkpt>
      <trkpt lat="47.24218" lon="1.96658">
        <ele>98.67</ele>
        <time>2015-08-17T15:27:42Z</time>
      </trkpt>
      <trkpt lat="47.24217" lon="1.96661">
        <ele>98.19</ele>
        <time>2015-08-17T15:27:43Z</time>
      </trkpt>
      <trkpt lat="47.24216" lon="1.96664">
        <ele>98.19</ele>
        <time>2015-08-17T15:27:44Z</time>
      </trkpt>
      <trkpt lat="47.24215" lon="1.96667">
        <ele>98.19</ele>
        <time>2015-08-17T15:27:45Z</time>
      </trkpt>
      <trkpt lat="47.24195" lon="1.96705">
        <ele>98.67</ele>
        <time>2015-08-17T15:27:58Z</time>
      </trkpt>
      <trkpt lat="47.24179" lon="1.96739">
        <ele>98.67</ele>
        <time>2015-08-17T15:28:10Z</time>
      </trkpt>
      <trkpt lat="47.24177" lon="1.96741">
        <ele>98.67</ele>
        <time>2015-08-17T15:28:11Z</time>
      </trkpt>
      <trkpt lat="47.24176" lon="1.96744">
        <ele>98.67</ele>
        <time>2015-08-17T15:28:12Z</time>
      </trkpt>
      <trkpt lat="47.2416" lon="1.96771">
        <ele>98.67</ele>
        <time>2015-08-17T15:28:21Z</time>
      </trkpt>
      <trkpt lat="47.24133" lon="1.96811">
        <ele>99.15</ele>
        <time>2015-08-17T15:28:36Z</time>
      </trkpt>
      <trkpt lat="47.24114" lon="1.96846">
        <ele>99.15</ele>
        <time>2015-08-17T15:28:48Z</time>
      </trkpt>
      <trkpt lat="47.24089" lon="1.96892">
        <ele>99.63</ele>
        <time>2015-08-17T15:29:03Z</time>
      </trkpt>
      <trkpt lat="47.24089" lon="1.96896">
        <ele>99.15</ele>
        <time>2015-08-17T15:29:04Z</time>
      </trkpt>
      <trkpt lat="47.24088" lon="1.969">
        <ele>99.63</ele>
        <time>2015-08-17T15:29:05Z</time>
      </trkpt>
      <trkpt lat="47.24068" lon="1.96936">
        <ele>99.15</ele>
        <time>2015-08-17T15:29:18Z</time>
      </trkpt>
      <trkpt lat="47.2404" lon="1.96972">
        <ele>99.63</ele>
        <time>2015-08-17T15:29:32Z</time>
      </trkpt>
      <trkpt lat="47.24024" lon="1.96987">
        <ele>99.63</ele>
        <time>2015-08-17T15:29:39Z</time>
      </trkpt>
      <trkpt lat="47.24013" lon="1.97018">
        <ele>100.11</ele>
        <time>2015-08-17T15:29:49Z</time>
      </trkpt>
      <trkpt lat="47.24012" lon="1.97021">
        <ele>100.11</ele>
        <time>2015-08-17T15:29:50Z</time>
      </trkpt>
      <trkpt lat="47.24011" lon="1.97024">
        <ele>100.11</ele>
        <time>2015-08-17T15:29:51Z</time>
      </trkpt>
      <trkpt lat="47.24008" lon="1.97029">
        <ele>99.63</ele>
        <time>2015-08-17T15:29:53Z</time>
      </trkpt>
      <trkpt lat="47.24007" lon="1.97032">
        <ele>100.11</ele>
        <time>2015-08-17T15:29:54Z</time>
      </trkpt>
      <trkpt lat="47.24006" lon="1.97035">
        <ele>100.11</ele>
        <time>2015-08-17T15:29:55Z</time>
      </trkpt>
      <trkpt lat="47.24005" lon="1.97038">
        <ele>99.63</ele>
        <time>2015-08-17T15:29:56Z</time>
      </trkpt>
      <trkpt lat="47.24004" lon="1.97041">
        <ele>100.11</ele>
        <time>2015-08-17T15:29:57Z</time>
      </trkpt>
      <trkpt lat="47.24003" lon="1.97043">
        <ele>100.11</ele>
        <time>2015-08-17T15:29:58Z</time>
      </trkpt>
      <trkpt lat="47.24001" lon="1.97044">
        <ele>100.11</ele>
        <time>2015-08-17T15:29:59Z</time>
      </trkpt>
      <trkpt lat="47.23999" lon="1.97047">
        <ele>100.11</ele>
        <time>2015-08-17T15:30:00Z</time>
      </trkpt>
      <trkpt lat="47.23998" lon="1.97049">
        <ele>100.11</ele>
        <time>2015-08-17T15:30:01Z</time>
      </trkpt>
      <trkpt lat="47.23997" lon="1.97052">
        <ele>100.11</ele>
        <time>2015-08-17T15:30:02Z</time>
      </trkpt>
      <trkpt lat="47.23984" lon="1.97084">
        <ele>100.11</ele>
        <time>2015-08-17T15:30:12Z</time>
      </trkpt>
      <trkpt lat="47.23982" lon="1.97087">
        <ele>100.11</ele>
        <time>2015-08-17T15:30:13Z</time>
      </trkpt>
      <trkpt lat="47.23982" lon="1.97092">
        <ele>100.11</ele>
        <time>2015-08-17T15:30:14Z</time>
      </trkpt>
      <trkpt lat="47.23982" lon="1.97096">
        <ele>100.11</ele>
        <time>2015-08-17T15:30:15Z</time>
      </trkpt>
      <trkpt lat="47.23981" lon="1.97101">
        <ele>100.11</ele>
        <time>2015-08-17T15:30:16Z</time>
      </trkpt>
      <trkpt lat="47.23981" lon="1.97105">
        <ele>100.11</ele>
        <time>2015-08-17T15:30:17Z</time>
      </trkpt>
      <trkpt lat="47.2398" lon="1.97108">
        <ele>100.11</ele>
        <time>2015-08-17T15:30:18Z</time>
      </trkpt>
      <trkpt lat="47.23979" lon="1.97112">
        <ele>100.11</ele>
        <time>2015-08-17T15:30:19Z</time>
      </trkpt>
      <trkpt lat="47.23979" lon="1.97116">
        <ele>100.11</ele>
        <time>2015-08-17T15:30:20Z</time>
      </trkpt>
      <trkpt lat="47.23978" lon="1.9712">
        <ele>100.11</ele>
        <time>2015-08-17T15:30:21Z</time>
      </trkpt>
      <trkpt lat="47.23973" lon="1.97137">
        <ele>99.63</ele>
        <time>2015-08-17T15:30:26Z</time>
      </trkpt>
      <trkpt lat="47.23957" lon="1.97182">
        <ele>100.11</ele>
        <time>2015-08-17T15:30:38Z</time>
      </trkpt>
      <trkpt lat="47.23956" lon="1.97185">
        <ele>100.11</ele>
        <time>2015-08-17T15:30:39Z</time>
      </trkpt>
      <trkpt lat="47.23954" lon="1.97189">
        <ele>100.11</ele>
        <time>2015-08-17T15:30:40Z</time>
      </trkpt>
      <trkpt lat="47.23948" lon="1.97215">
        <ele>100.11</ele>
        <time>2015-08-17T15:30:47Z</time>
      </trkpt>
      <trkpt lat="47.23948" lon="1.97219">
        <ele>100.11</ele>
        <time>2015-08-17T15:30:48Z</time>
      </trkpt>
      <trkpt lat="47.23944" lon="1.97228">
        <ele>100.11</ele>
        <time>2015-08-17T15:30:51Z</time>
      </trkpt>
      <trkpt lat="47.23942" lon="1.97231">
        <ele>100.11</ele>
        <time>2015-08-17T15:30:52Z</time>
      </trkpt>
      <trkpt lat="47.23941" lon="1.97234">
        <ele>100.11</ele>
        <time>2015-08-17T15:30:53Z</time>
      </trkpt>
      <trkpt lat="47.2394" lon="1.97237">
        <ele>100.11</ele>
        <time>2015-08-17T15:30:54Z</time>
      </trkpt>
      <trkpt lat="47.23939" lon="1.9724">
        <ele>100.11</ele>
        <time>2015-08-17T15:30:55Z</time>
      </trkpt>
      <trkpt lat="47.23937" lon="1.97242">
        <ele>100.6</ele>
        <time>2015-08-17T15:30:56Z</time>
      </trkpt>
      <trkpt lat="47.23936" lon="1.97244">
        <ele>100.11</ele>
        <time>2015-08-17T15:30:57Z</time>
      </trkpt>
      <trkpt lat="47.23923" lon="1.97262">
        <ele>100.6</ele>
        <time>2015-08-17T15:31:05Z</time>
      </trkpt>
      <trkpt lat="47.2391" lon="1.97297">
        <ele>100.6</ele>
        <time>2015-08-17T15:31:16Z</time>
      </trkpt>
      <trkpt lat="47.23896" lon="1.97335">
        <ele>100.6</ele>
        <time>2015-08-17T15:31:28Z</time>
      </trkpt>
      <trkpt lat="47.23895" lon="1.97338">
        <ele>100.6</ele>
        <time>2015-08-17T15:31:29Z</time>
      </trkpt>
      <trkpt lat="47.23895" lon="1.9734">
        <ele>100.6</ele>
        <time>2015-08-17T15:31:30Z</time>
      </trkpt>
      <trkpt lat="47.23885" lon="1.97372">
        <ele>100.6</ele>
        <time>2015-08-17T15:31:40Z</time>
      </trkpt>
      <trkpt lat="47.23872" lon="1.97412">
        <ele>100.6</ele>
        <time>2015-08-17T15:31:51Z</time>
      </trkpt>
      <trkpt lat="47.23857" lon="1.97459">
        <ele>100.6</ele>
        <time>2015-08-17T15:32:04Z</time>
      </trkpt>
      <trkpt lat="47.23843" lon="1.97503">
        <ele>100.6</ele>
        <time>2015-08-17T15:32:19Z</time>
      </trkpt>
      <trkpt lat="47.23842" lon="1.97506">
        <ele>100.6</ele>
        <time>2015-08-17T15:32:20Z</time>
      </trkpt>
      <trkpt lat="47.2384" lon="1.97508">
        <ele>100.6</ele>
        <time>2015-08-17T15:32:21Z</time>
      </trkpt>
      <trkpt lat="47.2383" lon="1.97536">
        <ele>100.6</ele>
        <time>2015-08-17T15:32:32Z</time>
      </trkpt>
      <trkpt lat="47.23818" lon="1.97582">
        <ele>100.6</ele>
        <time>2015-08-17T15:32:45Z</time>
      </trkpt>
      <trkpt lat="47.23806" lon="1.97626">
        <ele>100.6</ele>
        <time>2015-08-17T15:32:57Z</time>
      </trkpt>
      <trkpt lat="47.23802" lon="1.97637">
        <ele>100.6</ele>
        <time>2015-08-17T15:33:00Z</time>
      </trkpt>
      <trkpt lat="47.23791" lon="1.9767">
        <ele>100.6</ele>
        <time>2015-08-17T15:33:10Z</time>
      </trkpt>
      <trkpt lat="47.23772" lon="1.97717">
        <ele>100.6</ele>
        <time>2015-08-17T15:33:24Z</time>
      </trkpt>
      <trkpt lat="47.23771" lon="1.9772">
        <ele>100.6</ele>
        <time>2015-08-17T15:33:25Z</time>
      </trkpt>
      <trkpt lat="47.23755" lon="1.97763">
        <ele>100.6</ele>
        <time>2015-08-17T15:33:37Z</time>
      </trkpt>
      <trkpt lat="47.23741" lon="1.9781">
        <ele>100.6</ele>
        <time>2015-08-17T15:33:49Z</time>
      </trkpt>
      <trkpt lat="47.2374" lon="1.97815">
        <ele>100.6</ele>
        <time>2015-08-17T15:33:50Z</time>
      </trkpt>
      <trkpt lat="47.23739" lon="1.97819">
        <ele>100.6</ele>
        <time>2015-08-17T15:33:51Z</time>
      </trkpt>
      <trkpt lat="47.23738" lon="1.97824">
        <ele>100.6</ele>
        <time>2015-08-17T15:33:52Z</time>
      </trkpt>
      <trkpt lat="47.23738" lon="1.97828">
        <ele>100.6</ele>
        <time>2015-08-17T15:33:53Z</time>
      </trkpt>
      <trkpt lat="47.23738" lon="1.97833">
        <ele>100.6</ele>
        <time>2015-08-17T15:33:54Z</time>
      </trkpt>
      <trkpt lat="47.23738" lon="1.97837">
        <ele>100.6</ele>
        <time>2015-08-17T15:33:55Z</time>
      </trkpt>
      <trkpt lat="47.23735" lon="1.97851">
        <ele>100.6</ele>
        <time>2015-08-17T15:33:59Z</time>
      </trkpt>
      <trkpt lat="47.23735" lon="1.97855">
        <ele>100.6</ele>
        <time>2015-08-17T15:34:00Z</time>
      </trkpt>
      <trkpt lat="47.23735" lon="1.97859">
        <ele>100.6</ele>
        <time>2015-08-17T15:34:01Z</time>
      </trkpt>
      <trkpt lat="47.23734" lon="1.97863">
        <ele>100.6</ele>
        <time>2015-08-17T15:34:02Z</time>
      </trkpt>
      <trkpt lat="47.23733" lon="1.97867">
        <ele>100.6</ele>
        <time>2015-08-17T15:34:03Z</time>
      </trkpt>
      <trkpt lat="47.23732" lon="1.9787">
        <ele>100.6</ele>
        <time>2015-08-17T15:34:04Z</time>
      </trkpt>
      <trkpt lat="47.23731" lon="1.97873">
        <ele>101.08</ele>
        <time>2015-08-17T15:34:05Z</time>
      </trkpt>
      <trkpt lat="47.2373" lon="1.97875">
        <ele>100.6</ele>
        <time>2015-08-17T15:34:06Z</time>
      </trkpt>
      <trkpt lat="47.23729" lon="1.97879">
        <ele>100.6</ele>
        <time>2015-08-17T15:34:07Z</time>
      </trkpt>
      <trkpt lat="47.23729" lon="1.97882">
        <ele>100.6</ele>
        <time>2015-08-17T15:34:08Z</time>
      </trkpt>
      <trkpt lat="47.23728" lon="1.97885">
        <ele>100.6</ele>
        <time>2015-08-17T15:34:09Z</time>
      </trkpt>
      <trkpt lat="47.23728" lon="1.97887">
        <ele>100.6</ele>
        <time>2015-08-17T15:34:10Z</time>
      </trkpt>
      <trkpt lat="47.23727" lon="1.9789">
        <ele>101.08</ele>
        <time>2015-08-17T15:34:11Z</time>
      </trkpt>
      <trkpt lat="47.23726" lon="1.97894">
        <ele>101.08</ele>
        <time>2015-08-17T15:34:12Z</time>
      </trkpt>
      <trkpt lat="47.23725" lon="1.97897">
        <ele>101.08</ele>
        <time>2015-08-17T15:34:13Z</time>
      </trkpt>
      <trkpt lat="47.23723" lon="1.97901">
        <ele>101.08</ele>
        <time>2015-08-17T15:34:14Z</time>
      </trkpt>
      <trkpt lat="47.23722" lon="1.97904">
        <ele>101.08</ele>
        <time>2015-08-17T15:34:15Z</time>
      </trkpt>
      <trkpt lat="47.2372" lon="1.97907">
        <ele>101.08</ele>
        <time>2015-08-17T15:34:16Z</time>
      </trkpt>
      <trkpt lat="47.23719" lon="1.97911">
        <ele>101.56</ele>
        <time>2015-08-17T15:34:17Z</time>
      </trkpt>
      <trkpt lat="47.23708" lon="1.97953">
        <ele>102.04</ele>
        <time>2015-08-17T15:34:28Z</time>
      </trkpt>
      <trkpt lat="47.23707" lon="1.97956">
        <ele>101.56</ele>
        <time>2015-08-17T15:34:29Z</time>
      </trkpt>
      <trkpt lat="47.23706" lon="1.9796">
        <ele>102.04</ele>
        <time>2015-08-17T15:34:30Z</time>
      </trkpt>
      <trkpt lat="47.23704" lon="1.97963">
        <ele>101.56</ele>
        <time>2015-08-17T15:34:31Z</time>
      </trkpt>
      <trkpt lat="47.23703" lon="1.97966">
        <ele>101.56</ele>
        <time>2015-08-17T15:34:32Z</time>
      </trkpt>
      <trkpt lat="47.23702" lon="1.97969">
        <ele>102.04</ele>
        <time>2015-08-17T15:34:33Z</time>
      </trkpt>
      <trkpt lat="47.237" lon="1.97972">
        <ele>102.04</ele>
        <time>2015-08-17T15:34:34Z</time>
      </trkpt>
      <trkpt lat="47.23699" lon="1.97975">
        <ele>102.04</ele>
        <time>2015-08-17T15:34:35Z</time>
      </trkpt>
      <trkpt lat="47.23699" lon="1.97979">
        <ele>101.56</ele>
        <time>2015-08-17T15:34:36Z</time>
      </trkpt>
      <trkpt lat="47.23699" lon="1.97983">
        <ele>101.56</ele>
        <time>2015-08-17T15:34:37Z</time>
      </trkpt>
      <trkpt lat="47.23698" lon="1.97987">
        <ele>101.56</ele>
        <time>2015-08-17T15:34:38Z</time>
      </trkpt>
      <trkpt lat="47.23698" lon="1.97991">
        <ele>101.56</ele>
        <time>2015-08-17T15:34:39Z</time>
      </trkpt>
      <trkpt lat="47.23698" lon="1.97995">
        <ele>101.56</ele>
        <time>2015-08-17T15:34:40Z</time>
      </trkpt>
      <trkpt lat="47.23698" lon="1.98">
        <ele>101.56</ele>
        <time>2015-08-17T15:34:41Z</time>
      </trkpt>
      <trkpt lat="47.23697" lon="1.98004">
        <ele>101.56</ele>
        <time>2015-08-17T15:34:42Z</time>
      </trkpt>
      <trkpt lat="47.23696" lon="1.98005">
        <ele>101.56</ele>
        <time>2015-08-17T15:34:43Z</time>
      </trkpt>
      <trkpt lat="47.23691" lon="1.98039">
        <ele>101.56</ele>
        <time>2015-08-17T15:34:54Z</time>
      </trkpt>
      <trkpt lat="47.2369" lon="1.98042">
        <ele>101.56</ele>
        <time>2015-08-17T15:34:55Z</time>
      </trkpt>
      <trkpt lat="47.23685" lon="1.98058">
        <ele>101.56</ele>
        <time>2015-08-17T15:35:01Z</time>
      </trkpt>
      <trkpt lat="47.23684" lon="1.9806">
        <ele>101.56</ele>
        <time>2015-08-17T15:35:02Z</time>
      </trkpt>
      <trkpt lat="47.23683" lon="1.98062">
        <ele>102.04</ele>
        <time>2015-08-17T15:35:03Z</time>
      </trkpt>
      <trkpt lat="47.23682" lon="1.98064">
        <ele>101.56</ele>
        <time>2015-08-17T15:35:04Z</time>
      </trkpt>
      <trkpt lat="47.23682" lon="1.98067">
        <ele>101.56</ele>
        <time>2015-08-17T15:35:05Z</time>
      </trkpt>
      <trkpt lat="47.23683" lon="1.98069">
        <ele>101.56</ele>
        <time>2015-08-17T15:35:06Z</time>
      </trkpt>
      <trkpt lat="47.23686" lon="1.98071">
        <ele>102.52</ele>
        <time>2015-08-17T15:35:12Z</time>
      </trkpt>
      <trkpt lat="47.23686" lon="1.98073">
        <ele>102.04</ele>
        <time>2015-08-17T15:35:25Z</time>
      </trkpt>
      <trkpt lat="47.23686" lon="1.98072">
        <ele>102.04</ele>
        <time>2015-08-17T15:35:58Z</time>
      </trkpt>
      <trkpt lat="47.23686" lon="1.98073">
        <ele>102.04</ele>
        <time>2015-08-17T15:36:29Z</time>
      </trkpt>
      <trkpt lat="47.23682" lon="1.9807">
        <ele>102.04</ele>
        <time>2015-08-17T15:36:42Z</time>
      </trkpt>
      <trkpt lat="47.23676" lon="1.98066">
        <ele>102.04</ele>
        <time>2015-08-17T15:36:54Z</time>
      </trkpt>
      <trkpt lat="47.23676" lon="1.98066">
        <ele>101.56</ele>
        <time>2015-08-17T15:37:11Z</time>
      </trkpt>
      <trkpt lat="47.23676" lon="1.98066">
        <ele>101.08</ele>
        <time>2015-08-17T15:37:39Z</time>
      </trkpt>
      <trkpt lat="47.23675" lon="1.98066">
        <ele>102.52</ele>
        <time>2015-08-17T15:37:41Z</time>
      </trkpt>
      <trkpt lat="47.23675" lon="1.98066">
        <ele>101.56</ele>
        <time>2015-08-17T15:37:45Z</time>
      </trkpt>
      <trkpt lat="47.23675" lon="1.98065">
        <ele>101.56</ele>
        <time>2015-08-17T15:38:06Z</time>
      </trkpt>
      <trkpt lat="47.23675" lon="1.98065">
        <ele>101.56</ele>
        <time>2015-08-17T15:38:25Z</time>
      </trkpt>
      <trkpt lat="47.23677" lon="1.98066">
        <ele>101.56</ele>
        <time>2015-08-17T15:38:48Z</time>
      </trkpt>
      <trkpt lat="47.23678" lon="1.98067">
        <ele>101.56</ele>
        <time>2015-08-17T15:39:06Z</time>
      </trkpt>
      <trkpt lat="47.23679" lon="1.98066">
        <ele>101.56</ele>
        <time>2015-08-17T15:39:37Z</time>
      </trkpt>
      <trkpt lat="47.23678" lon="1.98065">
        <ele>101.56</ele>
        <time>2015-08-17T15:40:04Z</time>
      </trkpt>
      <trkpt lat="47.23678" lon="1.98066">
        <ele>101.56</ele>
        <time>2015-08-17T15:40:37Z</time>
      </trkpt>
      <trkpt lat="47.23678" lon="1.98067">
        <ele>101.56</ele>
        <time>2015-08-17T15:41:02Z</time>
      </trkpt>
      <trkpt lat="47.23678" lon="1.98068">
        <ele>101.56</ele>
        <time>2015-08-17T15:41:23Z</time>
      </trkpt>
      <trkpt lat="47.23679" lon="1.98068">
        <ele>101.56</ele>
        <time>2015-08-17T15:41:41Z</time>
      </trkpt>
      <trkpt lat="47.23677" lon="1.98099">
        <ele>101.08</ele>
        <time>2015-08-17T15:41:55Z</time>
      </trkpt>
      <trkpt lat="47.23667" lon="1.98157">
        <ele>101.08</ele>
        <time>2015-08-17T15:42:09Z</time>
      </trkpt>
      <trkpt lat="47.23666" lon="1.98161">
        <ele>101.08</ele>
        <time>2015-08-17T15:42:10Z</time>
      </trkpt>
      <trkpt lat="47.23666" lon="1.98164">
        <ele>100.6</ele>
        <time>2015-08-17T15:42:11Z</time>
      </trkpt>
      <trkpt lat="47.23665" lon="1.98167">
        <ele>100.6</ele>
        <time>2015-08-17T15:42:12Z</time>
      </trkpt>
      <trkpt lat="47.23666" lon="1.98176">
        <ele>100.6</ele>
        <time>2015-08-17T15:42:13Z</time>
      </trkpt>
      <trkpt lat="47.23665" lon="1.9818">
        <ele>100.6</ele>
        <time>2015-08-17T15:42:14Z</time>
      </trkpt>
      <trkpt lat="47.23659" lon="1.98232">
        <ele>100.11</ele>
        <time>2015-08-17T15:42:26Z</time>
      </trkpt>
      <trkpt lat="47.23647" lon="1.983">
        <ele>100.11</ele>
        <time>2015-08-17T15:42:39Z</time>
      </trkpt>
      <trkpt lat="47.23646" lon="1.98306">
        <ele>100.11</ele>
        <time>2015-08-17T15:42:40Z</time>
      </trkpt>
      <trkpt lat="47.23639" lon="1.98363">
        <ele>100.11</ele>
        <time>2015-08-17T15:42:51Z</time>
      </trkpt>
      <trkpt lat="47.23625" lon="1.98414">
        <ele>99.63</ele>
        <time>2015-08-17T15:43:04Z</time>
      </trkpt>
      <trkpt lat="47.23615" lon="1.98473">
        <ele>99.63</ele>
        <time>2015-08-17T15:43:17Z</time>
      </trkpt>
      <trkpt lat="47.23605" lon="1.98513">
        <ele>99.15</ele>
        <time>2015-08-17T15:43:29Z</time>
      </trkpt>
      <trkpt lat="47.23598" lon="1.98557">
        <ele>99.15</ele>
        <time>2015-08-17T15:43:39Z</time>
      </trkpt>
      <trkpt lat="47.23585" lon="1.98606">
        <ele>99.15</ele>
        <time>2015-08-17T15:43:52Z</time>
      </trkpt>
      <trkpt lat="47.23577" lon="1.9865">
        <ele>99.15</ele>
        <time>2015-08-17T15:44:03Z</time>
      </trkpt>
      <trkpt lat="47.23567" lon="1.98712">
        <ele>98.67</ele>
        <time>2015-08-17T15:44:17Z</time>
      </trkpt>
      <trkpt lat="47.23557" lon="1.98767">
        <ele>98.67</ele>
        <time>2015-08-17T15:44:29Z</time>
      </trkpt>
      <trkpt lat="47.23557" lon="1.98772">
        <ele>98.67</ele>
        <time>2015-08-17T15:44:30Z</time>
      </trkpt>
      <trkpt lat="47.23557" lon="1.98779">
        <ele>98.67</ele>
        <time>2015-08-17T15:44:31Z</time>
      </trkpt>
      <trkpt lat="47.23557" lon="1.98785">
        <ele>98.67</ele>
        <time>2015-08-17T15:44:32Z</time>
      </trkpt>
      <trkpt lat="47.23557" lon="1.98791">
        <ele>99.15</ele>
        <time>2015-08-17T15:44:33Z</time>
      </trkpt>
      <trkpt lat="47.23557" lon="1.98796">
        <ele>98.67</ele>
        <time>2015-08-17T15:44:34Z</time>
      </trkpt>
      <trkpt lat="47.23554" lon="1.98802">
        <ele>98.67</ele>
        <time>2015-08-17T15:44:36Z</time>
      </trkpt>
      <trkpt lat="47.23542" lon="1.98866">
        <ele>98.67</ele>
        <time>2015-08-17T15:44:48Z</time>
      </trkpt>
      <trkpt lat="47.2354" lon="1.98872">
        <ele>98.67</ele>
        <time>2015-08-17T15:44:49Z</time>
      </trkpt>
      <trkpt lat="47.23539" lon="1.98878">
        <ele>98.67</ele>
        <time>2015-08-17T15:44:50Z</time>
      </trkpt>
      <trkpt lat="47.23538" lon="1.98884">
        <ele>98.67</ele>
        <time>2015-08-17T15:44:51Z</time>
      </trkpt>
      <trkpt lat="47.23537" lon="1.98891">
        <ele>98.67</ele>
        <time>2015-08-17T15:44:52Z</time>
      </trkpt>
      <trkpt lat="47.23526" lon="1.98948">
        <ele>98.67</ele>
        <time>2015-08-17T15:45:02Z</time>
      </trkpt>
      <trkpt lat="47.23515" lon="1.99006">
        <ele>98.67</ele>
        <time>2015-08-17T15:45:12Z</time>
      </trkpt>
      <trkpt lat="47.23502" lon="1.99083">
        <ele>98.67</ele>
        <time>2015-08-17T15:45:25Z</time>
      </trkpt>
      <trkpt lat="47.23494" lon="1.9913">
        <ele>98.19</ele>
        <time>2015-08-17T15:45:33Z</time>
      </trkpt>
      <trkpt lat="47.23484" lon="1.99206">
        <ele>98.19</ele>
        <time>2015-08-17T15:45:45Z</time>
      </trkpt>
      <trkpt lat="47.23469" lon="1.99264">
        <ele>98.19</ele>
        <time>2015-08-17T15:45:56Z</time>
      </trkpt>
      <trkpt lat="47.23455" lon="1.99314">
        <ele>99.15</ele>
        <time>2015-08-17T15:46:07Z</time>
      </trkpt>
      <trkpt lat="47.23453" lon="1.99337">
        <ele>98.67</ele>
        <time>2015-08-17T15:46:13Z</time>
      </trkpt>
      <trkpt lat="47.23452" lon="1.99343">
        <ele>98.19</ele>
        <time>2015-08-17T15:46:14Z</time>
      </trkpt>
      <trkpt lat="47.23452" lon="1.99349">
        <ele>98.19</ele>
        <time>2015-08-17T15:46:15Z</time>
      </trkpt>
      <trkpt lat="47.23452" lon="1.99358">
        <ele>98.19</ele>
        <time>2015-08-17T15:46:16Z</time>
      </trkpt>
      <trkpt lat="47.23451" lon="1.99366">
        <ele>98.19</ele>
        <time>2015-08-17T15:46:17Z</time>
      </trkpt>
      <trkpt lat="47.23451" lon="1.99374">
        <ele>98.19</ele>
        <time>2015-08-17T15:46:18Z</time>
      </trkpt>
      <trkpt lat="47.23448" lon="1.99386">
        <ele>98.19</ele>
        <time>2015-08-17T15:46:20Z</time>
      </trkpt>
      <trkpt lat="47.23447" lon="1.99392">
        <ele>98.19</ele>
        <time>2015-08-17T15:46:21Z</time>
      </trkpt>
      <trkpt lat="47.23445" lon="1.99398">
        <ele>98.19</ele>
        <time>2015-08-17T15:46:22Z</time>
      </trkpt>
      <trkpt lat="47.23444" lon="1.99404">
        <ele>98.19</ele>
        <time>2015-08-17T15:46:23Z</time>
      </trkpt>
      <trkpt lat="47.23442" lon="1.99409">
        <ele>98.19</ele>
        <time>2015-08-17T15:46:24Z</time>
      </trkpt>
      <trkpt lat="47.23442" lon="1.99416">
        <ele>98.19</ele>
        <time>2015-08-17T15:46:25Z</time>
      </trkpt>
      <trkpt lat="47.23432" lon="1.99465">
        <ele>98.19</ele>
        <time>2015-08-17T15:46:34Z</time>
      </trkpt>
      <trkpt lat="47.23418" lon="1.99525">
        <ele>98.19</ele>
        <time>2015-08-17T15:46:47Z</time>
      </trkpt>
      <trkpt lat="47.23407" lon="1.9958">
        <ele>98.19</ele>
        <time>2015-08-17T15:46:59Z</time>
      </trkpt>
      <trkpt lat="47.23397" lon="1.9963">
        <ele>97.71</ele>
        <time>2015-08-17T15:47:12Z</time>
      </trkpt>
      <trkpt lat="47.23397" lon="1.99633">
        <ele>97.71</ele>
        <time>2015-08-17T15:47:13Z</time>
      </trkpt>
      <trkpt lat="47.23396" lon="1.99635">
        <ele>98.19</ele>
        <time>2015-08-17T15:47:14Z</time>
      </trkpt>
      <trkpt lat="47.23396" lon="1.99638">
        <ele>98.19</ele>
        <time>2015-08-17T15:47:15Z</time>
      </trkpt>
      <trkpt lat="47.23396" lon="1.99641">
        <ele>98.19</ele>
        <time>2015-08-17T15:47:16Z</time>
      </trkpt>
      <trkpt lat="47.23389" lon="1.99682">
        <ele>98.19</ele>
        <time>2015-08-17T15:47:28Z</time>
      </trkpt>
      <trkpt lat="47.23379" lon="1.99728">
        <ele>98.19</ele>
        <time>2015-08-17T15:47:40Z</time>
      </trkpt>
      <trkpt lat="47.23374" lon="1.99773">
        <ele>98.19</ele>
        <time>2015-08-17T15:47:51Z</time>
      </trkpt>
      <trkpt lat="47.23367" lon="1.99821">
        <ele>98.19</ele>
        <time>2015-08-17T15:48:04Z</time>
      </trkpt>
      <trkpt lat="47.23367" lon="1.99826">
        <ele>98.19</ele>
        <time>2015-08-17T15:48:05Z</time>
      </trkpt>
      <trkpt lat="47.23367" lon="1.9983">
        <ele>98.19</ele>
        <time>2015-08-17T15:48:06Z</time>
      </trkpt>
      <trkpt lat="47.23366" lon="1.99834">
        <ele>98.19</ele>
        <time>2015-08-17T15:48:07Z</time>
      </trkpt>
      <trkpt lat="47.23365" lon="1.99838">
        <ele>98.19</ele>
        <time>2015-08-17T15:48:08Z</time>
      </trkpt>
      <trkpt lat="47.23365" lon="1.99842">
        <ele>98.19</ele>
        <time>2015-08-17T15:48:09Z</time>
      </trkpt>
      <trkpt lat="47.23364" lon="1.99845">
        <ele>98.19</ele>
        <time>2015-08-17T15:48:10Z</time>
      </trkpt>
      <trkpt lat="47.23362" lon="1.9985">
        <ele>98.19</ele>
        <time>2015-08-17T15:48:12Z</time>
      </trkpt>
      <trkpt lat="47.23353" lon="1.99889">
        <ele>98.19</ele>
        <time>2015-08-17T15:48:23Z</time>
      </trkpt>
      <trkpt lat="47.23353" lon="1.99892">
        <ele>98.19</ele>
        <time>2015-08-17T15:48:24Z</time>
      </trkpt>
      <trkpt lat="47.23352" lon="1.99893">
        <ele>98.19</ele>
        <time>2015-08-17T15:48:25Z</time>
      </trkpt>
      <trkpt lat="47.23352" lon="1.99895">
        <ele>98.19</ele>
        <time>2015-08-17T15:48:26Z</time>
      </trkpt>
      <trkpt lat="47.23351" lon="1.99896">
        <ele>98.19</ele>
        <time>2015-08-17T15:48:27Z</time>
      </trkpt>
      <trkpt lat="47.2335" lon="1.99898">
        <ele>98.19</ele>
        <time>2015-08-17T15:48:28Z</time>
      </trkpt>
      <trkpt lat="47.2335" lon="1.99901">
        <ele>98.19</ele>
        <time>2015-08-17T15:48:40Z</time>
      </trkpt>
      <trkpt lat="47.23348" lon="1.99908">
        <ele>98.19</ele>
        <time>2015-08-17T15:49:08Z</time>
      </trkpt>
      <trkpt lat="47.23348" lon="1.99909">
        <ele>98.19</ele>
        <time>2015-08-17T15:49:44Z</time>
      </trkpt>
      <trkpt lat="47.23346" lon="1.99909">
        <ele>98.19</ele>
        <time>2015-08-17T15:50:17Z</time>
      </trkpt>
      <trkpt lat="47.23347" lon="1.99912">
        <ele>98.67</ele>
        <time>2015-08-17T15:50:32Z</time>
      </trkpt>
      <trkpt lat="47.2333" lon="1.99996">
        <ele>98.67</ele>
        <time>2015-08-17T15:50:47Z</time>
      </trkpt>
      <trkpt lat="47.23329" lon="2.00003">
        <ele>98.67</ele>
        <time>2015-08-17T15:50:48Z</time>
      </trkpt>
      <trkpt lat="47.23328" lon="2.00015">
        <ele>98.19</ele>
        <time>2015-08-17T15:50:50Z</time>
      </trkpt>
      <trkpt lat="47.23319" lon="2.00069">
        <ele>98.67</ele>
        <time>2015-08-17T15:50:59Z</time>
      </trkpt>
      <trkpt lat="47.23318" lon="2.00075">
        <ele>98.67</ele>
        <time>2015-08-17T15:51:00Z</time>
      </trkpt>
      <trkpt lat="47.23309" lon="2.00118">
        <ele>98.67</ele>
        <time>2015-08-17T15:51:07Z</time>
      </trkpt>
      <trkpt lat="47.23307" lon="2.0013">
        <ele>99.15</ele>
        <time>2015-08-17T15:51:09Z</time>
      </trkpt>
      <trkpt lat="47.23306" lon="2.00136">
        <ele>98.67</ele>
        <time>2015-08-17T15:51:10Z</time>
      </trkpt>
      <trkpt lat="47.23295" lon="2.00198">
        <ele>99.15</ele>
        <time>2015-08-17T15:51:21Z</time>
      </trkpt>
      <trkpt lat="47.2328" lon="2.00283">
        <ele>99.15</ele>
        <time>2015-08-17T15:51:35Z</time>
      </trkpt>
      <trkpt lat="47.23265" lon="2.00362">
        <ele>99.15</ele>
        <time>2015-08-17T15:51:50Z</time>
      </trkpt>
      <trkpt lat="47.23252" lon="2.00439">
        <ele>100.11</ele>
        <time>2015-08-17T15:52:03Z</time>
      </trkpt>
      <trkpt lat="47.23246" lon="2.00463">
        <ele>100.11</ele>
        <time>2015-08-17T15:52:12Z</time>
      </trkpt>
      <trkpt lat="47.2323" lon="2.00546">
        <ele>100.11</ele>
        <time>2015-08-17T15:52:27Z</time>
      </trkpt>
      <trkpt lat="47.23214" lon="2.00634">
        <ele>100.11</ele>
        <time>2015-08-17T15:52:42Z</time>
      </trkpt>
      <trkpt lat="47.23199" lon="2.00719">
        <ele>100.11</ele>
        <time>2015-08-17T15:52:56Z</time>
      </trkpt>
      <trkpt lat="47.23185" lon="2.00805">
        <ele>100.6</ele>
        <time>2015-08-17T15:53:11Z</time>
      </trkpt>
      <trkpt lat="47.23167" lon="2.00888">
        <ele>100.6</ele>
        <time>2015-08-17T15:53:26Z</time>
      </trkpt>
      <trkpt lat="47.23166" lon="2.00894">
        <ele>100.6</ele>
        <time>2015-08-17T15:53:27Z</time>
      </trkpt>
      <trkpt lat="47.23153" lon="2.00975">
        <ele>100.11</ele>
        <time>2015-08-17T15:53:40Z</time>
      </trkpt>
      <trkpt lat="47.2315" lon="2.00987">
        <ele>100.11</ele>
        <time>2015-08-17T15:53:42Z</time>
      </trkpt>
      <trkpt lat="47.23132" lon="2.01081">
        <ele>100.6</ele>
        <time>2015-08-17T15:53:59Z</time>
      </trkpt>
      <trkpt lat="47.23111" lon="2.01195">
        <ele>100.6</ele>
        <time>2015-08-17T15:54:19Z</time>
      </trkpt>
      <trkpt lat="47.23093" lon="2.01296">
        <ele>100.6</ele>
        <time>2015-08-17T15:54:38Z</time>
      </trkpt>
      <trkpt lat="47.23076" lon="2.01388">
        <ele>100.6</ele>
        <time>2015-08-17T15:54:57Z</time>
      </trkpt>
      <trkpt lat="47.23062" lon="2.01467">
        <ele>100.6</ele>
        <time>2015-08-17T15:55:13Z</time>
      </trkpt>
      <trkpt lat="47.23054" lon="2.01525">
        <ele>101.08</ele>
        <time>2015-08-17T15:55:26Z</time>
      </trkpt>
      <trkpt lat="47.23041" lon="2.01577">
        <ele>102.04</ele>
        <time>2015-08-17T15:55:39Z</time>
      </trkpt>
      <trkpt lat="47.2304" lon="2.0158">
        <ele>102.04</ele>
        <time>2015-08-17T15:55:40Z</time>
      </trkpt>
      <trkpt lat="47.23039" lon="2.01583">
        <ele>102.04</ele>
        <time>2015-08-17T15:55:41Z</time>
      </trkpt>
      <trkpt lat="47.23034" lon="2.01586">
        <ele>102.52</ele>
        <time>2015-08-17T15:55:45Z</time>
      </trkpt>
      <trkpt lat="47.23032" lon="2.01585">
        <ele>102.52</ele>
        <time>2015-08-17T15:55:48Z</time>
      </trkpt>
      <trkpt lat="47.23027" lon="2.01588">
        <ele>102.04</ele>
        <time>2015-08-17T15:56:14Z</time>
      </trkpt>
      <trkpt lat="47.23026" lon="2.01586">
        <ele>102.04</ele>
        <time>2015-08-17T15:56:40Z</time>
      </trkpt>
      <trkpt lat="47.23025" lon="2.01586">
        <ele>102.52</ele>
        <time>2015-08-17T15:56:51Z</time>
      </trkpt>
      <trkpt lat="47.23025" lon="2.01584">
        <ele>102.52</ele>
        <time>2015-08-17T15:56:52Z</time>
      </trkpt>
      <trkpt lat="47.23026" lon="2.01582">
        <ele>102.52</ele>
        <time>2015-08-17T15:56:53Z</time>
      </trkpt>
      <trkpt lat="47.23028" lon="2.01581">
        <ele>102.52</ele>
        <time>2015-08-17T15:56:54Z</time>
      </trkpt>
      <trkpt lat="47.2303" lon="2.01581">
        <ele>102.52</ele>
        <time>2015-08-17T15:56:55Z</time>
      </trkpt>
      <trkpt lat="47.23031" lon="2.01582">
        <ele>102.52</ele>
        <time>2015-08-17T15:56:56Z</time>
      </trkpt>
      <trkpt lat="47.23032" lon="2.01584">
        <ele>102.52</ele>
        <time>2015-08-17T15:56:57Z</time>
      </trkpt>
      <trkpt lat="47.23033" lon="2.01586">
        <ele>102.52</ele>
        <time>2015-08-17T15:56:58Z</time>
      </trkpt>
      <trkpt lat="47.23035" lon="2.01587">
        <ele>102.52</ele>
        <time>2015-08-17T15:56:59Z</time>
      </trkpt>
      <trkpt lat="47.23032" lon="2.01598">
        <ele>102.04</ele>
        <time>2015-08-17T15:57:03Z</time>
      </trkpt>
      <trkpt lat="47.2303" lon="2.01637">
        <ele>102.52</ele>
        <time>2015-08-17T15:57:15Z</time>
      </trkpt>
      <trkpt lat="47.23023" lon="2.01679">
        <ele>102.04</ele>
        <time>2015-08-17T15:57:26Z</time>
      </trkpt>
      <trkpt lat="47.23007" lon="2.01765">
        <ele>102.04</ele>
        <time>2015-08-17T15:57:45Z</time>
      </trkpt>
      <trkpt lat="47.22993" lon="2.01847">
        <ele>102.04</ele>
        <time>2015-08-17T15:58:03Z</time>
      </trkpt>
      <trkpt lat="47.22981" lon="2.01908">
        <ele>102.04</ele>
        <time>2015-08-17T15:58:17Z</time>
      </trkpt>
      <trkpt lat="47.22969" lon="2.01984">
        <ele>102.04</ele>
        <time>2015-08-17T15:58:34Z</time>
      </trkpt>
      <trkpt lat="47.22958" lon="2.02037">
        <ele>102.04</ele>
        <time>2015-08-17T15:58:47Z</time>
      </trkpt>
      <trkpt lat="47.22947" lon="2.02099">
        <ele>102.04</ele>
        <time>2015-08-17T15:59:04Z</time>
      </trkpt>
      <trkpt lat="47.2293" lon="2.02195">
        <ele>102.04</ele>
        <time>2015-08-17T15:59:26Z</time>
      </trkpt>
      <trkpt lat="47.22914" lon="2.02274">
        <ele>102.52</ele>
        <time>2015-08-17T15:59:44Z</time>
      </trkpt>
      <trkpt lat="47.229" lon="2.02354">
        <ele>102.04</ele>
        <time>2015-08-17T16:00:02Z</time>
      </trkpt>
      <trkpt lat="47.22888" lon="2.02427">
        <ele>102.04</ele>
        <time>2015-08-17T16:00:17Z</time>
      </trkpt>
      <trkpt lat="47.22875" lon="2.02492">
        <ele>101.56</ele>
        <time>2015-08-17T16:00:31Z</time>
      </trkpt>
      <trkpt lat="47.22863" lon="2.02555">
        <ele>101.56</ele>
        <time>2015-08-17T16:00:45Z</time>
      </trkpt>
      <trkpt lat="47.22849" lon="2.02631">
        <ele>102.04</ele>
        <time>2015-08-17T16:01:03Z</time>
      </trkpt>
      <trkpt lat="47.22836" lon="2.02714">
        <ele>102.04</ele>
        <time>2015-08-17T16:01:21Z</time>
      </trkpt>
      <trkpt lat="47.22828" lon="2.0277">
        <ele>102.04</ele>
        <time>2015-08-17T16:01:33Z</time>
      </trkpt>
      <trkpt lat="47.22827" lon="2.02774">
        <ele>102.04</ele>
        <time>2015-08-17T16:01:34Z</time>
      </trkpt>
      <trkpt lat="47.22826" lon="2.02778">
        <ele>102.04</ele>
        <time>2015-08-17T16:01:35Z</time>
      </trkpt>
      <trkpt lat="47.22825" lon="2.02782">
        <ele>102.04</ele>
        <time>2015-08-17T16:01:36Z</time>
      </trkpt>
      <trkpt lat="47.22824" lon="2.02785">
        <ele>102.04</ele>
        <time>2015-08-17T16:01:37Z</time>
      </trkpt>
      <trkpt lat="47.22821" lon="2.02795">
        <ele>102.04</ele>
        <time>2015-08-17T16:01:40Z</time>
      </trkpt>
      <trkpt lat="47.2281" lon="2.02859">
        <ele>102.04</ele>
        <time>2015-08-17T16:01:56Z</time>
      </trkpt>
      <trkpt lat="47.22799" lon="2.02917">
        <ele>102.04</ele>
        <time>2015-08-17T16:02:11Z</time>
      </trkpt>
      <trkpt lat="47.22799" lon="2.02922">
        <ele>102.04</ele>
        <time>2015-08-17T16:02:12Z</time>
      </trkpt>
      <trkpt lat="47.22798" lon="2.02925">
        <ele>102.04</ele>
        <time>2015-08-17T16:02:13Z</time>
      </trkpt>
      <trkpt lat="47.22797" lon="2.02929">
        <ele>102.04</ele>
        <time>2015-08-17T16:02:14Z</time>
      </trkpt>
      <trkpt lat="47.22796" lon="2.02933">
        <ele>102.04</ele>
        <time>2015-08-17T16:02:15Z</time>
      </trkpt>
      <trkpt lat="47.22792" lon="2.02946">
        <ele>102.04</ele>
        <time>2015-08-17T16:02:20Z</time>
      </trkpt>
      <trkpt lat="47.22788" lon="2.02975">
        <ele>102.04</ele>
        <time>2015-08-17T16:02:33Z</time>
      </trkpt>
      <trkpt lat="47.22776" lon="2.03029">
        <ele>102.04</ele>
        <time>2015-08-17T16:02:48Z</time>
      </trkpt>
      <trkpt lat="47.22763" lon="2.03108">
        <ele>102.04</ele>
        <time>2015-08-17T16:03:06Z</time>
      </trkpt>
      <trkpt lat="47.22749" lon="2.03181">
        <ele>102.52</ele>
        <time>2015-08-17T16:03:21Z</time>
      </trkpt>
      <trkpt lat="47.22732" lon="2.03273">
        <ele>102.52</ele>
        <time>2015-08-17T16:03:39Z</time>
      </trkpt>
      <trkpt lat="47.22713" lon="2.03383">
        <ele>102.04</ele>
        <time>2015-08-17T16:04:01Z</time>
      </trkpt>
      <trkpt lat="47.22699" lon="2.03459">
        <ele>103</ele>
        <time>2015-08-17T16:04:17Z</time>
      </trkpt>
      <trkpt lat="47.22699" lon="2.03463">
        <ele>103</ele>
        <time>2015-08-17T16:04:18Z</time>
      </trkpt>
      <trkpt lat="47.22698" lon="2.03466">
        <ele>103</ele>
        <time>2015-08-17T16:04:19Z</time>
      </trkpt>
      <trkpt lat="47.22697" lon="2.03469">
        <ele>103</ele>
        <time>2015-08-17T16:04:20Z</time>
      </trkpt>
      <trkpt lat="47.22696" lon="2.03471">
        <ele>103</ele>
        <time>2015-08-17T16:04:21Z</time>
      </trkpt>
      <trkpt lat="47.22696" lon="2.03474">
        <ele>103</ele>
        <time>2015-08-17T16:04:22Z</time>
      </trkpt>
      <trkpt lat="47.22701" lon="2.03485">
        <ele>102.04</ele>
        <time>2015-08-17T16:04:26Z</time>
      </trkpt>
      <trkpt lat="47.22702" lon="2.03489">
        <ele>102.04</ele>
        <time>2015-08-17T16:04:27Z</time>
      </trkpt>
      <trkpt lat="47.22691" lon="2.03584">
        <ele>101.56</ele>
        <time>2015-08-17T16:04:41Z</time>
      </trkpt>
      <trkpt lat="47.22669" lon="2.03693">
        <ele>104.44</ele>
        <time>2015-08-17T16:04:55Z</time>
      </trkpt>
      <trkpt lat="47.22668" lon="2.037">
        <ele>104.92</ele>
        <time>2015-08-17T16:04:56Z</time>
      </trkpt>
      <trkpt lat="47.22661" lon="2.0374">
        <ele>106.84</ele>
        <time>2015-08-17T16:05:03Z</time>
      </trkpt>
      <trkpt lat="47.22645" lon="2.03825">
        <ele>108.77</ele>
        <time>2015-08-17T16:05:20Z</time>
      </trkpt>
      <trkpt lat="47.22633" lon="2.03895">
        <ele>106.36</ele>
        <time>2015-08-17T16:05:42Z</time>
      </trkpt>
      <trkpt lat="47.22624" lon="2.03947">
        <ele>103.96</ele>
        <time>2015-08-17T16:06:00Z</time>
      </trkpt>
      <trkpt lat="47.22615" lon="2.04009">
        <ele>102.04</ele>
        <time>2015-08-17T16:06:17Z</time>
      </trkpt>
      <trkpt lat="47.22614" lon="2.04013">
        <ele>102.04</ele>
        <time>2015-08-17T16:06:18Z</time>
      </trkpt>
      <trkpt lat="47.22614" lon="2.04017">
        <ele>102.04</ele>
        <time>2015-08-17T16:06:19Z</time>
      </trkpt>
      <trkpt lat="47.22613" lon="2.04021">
        <ele>102.04</ele>
        <time>2015-08-17T16:06:20Z</time>
      </trkpt>
      <trkpt lat="47.22613" lon="2.04024">
        <ele>102.04</ele>
        <time>2015-08-17T16:06:21Z</time>
      </trkpt>
      <trkpt lat="47.22612" lon="2.04027">
        <ele>102.04</ele>
        <time>2015-08-17T16:06:22Z</time>
      </trkpt>
      <trkpt lat="47.22611" lon="2.0403">
        <ele>102.04</ele>
        <time>2015-08-17T16:06:23Z</time>
      </trkpt>
      <trkpt lat="47.22609" lon="2.04032">
        <ele>102.04</ele>
        <time>2015-08-17T16:06:24Z</time>
      </trkpt>
      <trkpt lat="47.22608" lon="2.04032">
        <ele>102.04</ele>
        <time>2015-08-17T16:06:25Z</time>
      </trkpt>
      <trkpt lat="47.22606" lon="2.04032">
        <ele>102.04</ele>
        <time>2015-08-17T16:06:26Z</time>
      </trkpt>
      <trkpt lat="47.22596" lon="2.04028">
        <ele>102.04</ele>
        <time>2015-08-17T16:06:33Z</time>
      </trkpt>
      <trkpt lat="47.22565" lon="2.0404">
        <ele>101.08</ele>
        <time>2015-08-17T16:06:47Z</time>
      </trkpt>
      <trkpt lat="47.22557" lon="2.04058">
        <ele>101.08</ele>
        <time>2015-08-17T16:07:05Z</time>
      </trkpt>
      <trkpt lat="47.22556" lon="2.04058">
        <ele>101.08</ele>
        <time>2015-08-17T16:07:30Z</time>
      </trkpt>
      <trkpt lat="47.22549" lon="2.04103">
        <ele>101.08</ele>
        <time>2015-08-17T16:07:43Z</time>
      </trkpt>
      <trkpt lat="47.2253" lon="2.0422">
        <ele>101.56</ele>
        <time>2015-08-17T16:08:02Z</time>
      </trkpt>
      <trkpt lat="47.22512" lon="2.04326">
        <ele>101.56</ele>
        <time>2015-08-17T16:08:19Z</time>
      </trkpt>
      <trkpt lat="47.22496" lon="2.04422">
        <ele>101.56</ele>
        <time>2015-08-17T16:08:34Z</time>
      </trkpt>
      <trkpt lat="47.22475" lon="2.04534">
        <ele>101.08</ele>
        <time>2015-08-17T16:08:52Z</time>
      </trkpt>
      <trkpt lat="47.22457" lon="2.04643">
        <ele>101.08</ele>
        <time>2015-08-17T16:09:09Z</time>
      </trkpt>
      <trkpt lat="47.22437" lon="2.04752">
        <ele>101.08</ele>
        <time>2015-08-17T16:09:27Z</time>
      </trkpt>
      <trkpt lat="47.22435" lon="2.04758">
        <ele>101.08</ele>
        <time>2015-08-17T16:09:28Z</time>
      </trkpt>
      <trkpt lat="47.22433" lon="2.0481">
        <ele>101.56</ele>
        <time>2015-08-17T16:09:40Z</time>
      </trkpt>
      <trkpt lat="47.22432" lon="2.0481">
        <ele>101.56</ele>
        <time>2015-08-17T16:09:57Z</time>
      </trkpt>
      <trkpt lat="47.22432" lon="2.04811">
        <ele>101.56</ele>
        <time>2015-08-17T16:10:21Z</time>
      </trkpt>
      <trkpt lat="47.22427" lon="2.04849">
        <ele>101.56</ele>
        <time>2015-08-17T16:10:33Z</time>
      </trkpt>
      <trkpt lat="47.22419" lon="2.04905">
        <ele>101.56</ele>
        <time>2015-08-17T16:10:45Z</time>
      </trkpt>
      <trkpt lat="47.22408" lon="2.04968">
        <ele>101.08</ele>
        <time>2015-08-17T16:10:57Z</time>
      </trkpt>
      <trkpt lat="47.22394" lon="2.05034">
        <ele>101.08</ele>
        <time>2015-08-17T16:11:10Z</time>
      </trkpt>
      <trkpt lat="47.22382" lon="2.05093">
        <ele>101.08</ele>
        <time>2015-08-17T16:11:22Z</time>
      </trkpt>
      <trkpt lat="47.22379" lon="2.05108">
        <ele>101.08</ele>
        <time>2015-08-17T16:11:28Z</time>
      </trkpt>
      <trkpt lat="47.22379" lon="2.05109">
        <ele>101.56</ele>
        <time>2015-08-17T16:11:34Z</time>
      </trkpt>
      <trkpt lat="47.22378" lon="2.05109">
        <ele>101.08</ele>
        <time>2015-08-17T16:12:00Z</time>
      </trkpt>
      <trkpt lat="47.22379" lon="2.05109">
        <ele>101.08</ele>
        <time>2015-08-17T16:12:26Z</time>
      </trkpt>
      <trkpt lat="47.22379" lon="2.05111">
        <ele>101.08</ele>
        <time>2015-08-17T16:12:53Z</time>
      </trkpt>
      <trkpt lat="47.22378" lon="2.05112">
        <ele>101.08</ele>
        <time>2015-08-17T16:13:22Z</time>
      </trkpt>
      <trkpt lat="47.22373" lon="2.05147">
        <ele>101.08</ele>
        <time>2015-08-17T16:13:31Z</time>
      </trkpt>
      <trkpt lat="47.22361" lon="2.05209">
        <ele>101.08</ele>
        <time>2015-08-17T16:13:43Z</time>
      </trkpt>
      <trkpt lat="47.22347" lon="2.05279">
        <ele>101.08</ele>
        <time>2015-08-17T16:13:56Z</time>
      </trkpt>
      <trkpt lat="47.22333" lon="2.05353">
        <ele>101.56</ele>
        <time>2015-08-17T16:14:09Z</time>
      </trkpt>
      <trkpt lat="47.22319" lon="2.05421">
        <ele>101.08</ele>
        <time>2015-08-17T16:14:22Z</time>
      </trkpt>
      <trkpt lat="47.22312" lon="2.05475">
        <ele>101.56</ele>
        <time>2015-08-17T16:14:33Z</time>
      </trkpt>
      <trkpt lat="47.22301" lon="2.05537">
        <ele>100.6</ele>
        <time>2015-08-17T16:14:45Z</time>
      </trkpt>
      <trkpt lat="47.22286" lon="2.05607">
        <ele>101.08</ele>
        <time>2015-08-17T16:14:58Z</time>
      </trkpt>
      <trkpt lat="47.22278" lon="2.05657">
        <ele>101.08</ele>
        <time>2015-08-17T16:15:09Z</time>
      </trkpt>
      <trkpt lat="47.22263" lon="2.05738">
        <ele>101.08</ele>
        <time>2015-08-17T16:15:25Z</time>
      </trkpt>
      <trkpt lat="47.2226" lon="2.05761">
        <ele>101.08</ele>
        <time>2015-08-17T16:15:30Z</time>
      </trkpt>
      <trkpt lat="47.22259" lon="2.05765">
        <ele>101.56</ele>
        <time>2015-08-17T16:15:31Z</time>
      </trkpt>
      <trkpt lat="47.22249" lon="2.05803">
        <ele>100.6</ele>
        <time>2015-08-17T16:15:41Z</time>
      </trkpt>
      <trkpt lat="47.22232" lon="2.05876">
        <ele>100.6</ele>
        <time>2015-08-17T16:15:56Z</time>
      </trkpt>
      <trkpt lat="47.22216" lon="2.05957">
        <ele>100.11</ele>
        <time>2015-08-17T16:16:12Z</time>
      </trkpt>
      <trkpt lat="47.22206" lon="2.0601">
        <ele>100.6</ele>
        <time>2015-08-17T16:16:23Z</time>
      </trkpt>
      <trkpt lat="47.22195" lon="2.06068">
        <ele>101.08</ele>
        <time>2015-08-17T16:16:37Z</time>
      </trkpt>
      <trkpt lat="47.22179" lon="2.06084">
        <ele>101.56</ele>
        <time>2015-08-17T16:16:47Z</time>
      </trkpt>
      <trkpt lat="47.22175" lon="2.06111">
        <ele>101.56</ele>
        <time>2015-08-17T16:16:54Z</time>
      </trkpt>
      <trkpt lat="47.22162" lon="2.06167">
        <ele>102.04</ele>
        <time>2015-08-17T16:17:08Z</time>
      </trkpt>
      <trkpt lat="47.22149" lon="2.06248">
        <ele>102.04</ele>
        <time>2015-08-17T16:17:24Z</time>
      </trkpt>
      <trkpt lat="47.22137" lon="2.06313">
        <ele>102.04</ele>
        <time>2015-08-17T16:17:38Z</time>
      </trkpt>
      <trkpt lat="47.22127" lon="2.06384">
        <ele>102.04</ele>
        <time>2015-08-17T16:17:53Z</time>
      </trkpt>
      <trkpt lat="47.22117" lon="2.06441">
        <ele>102.04</ele>
        <time>2015-08-17T16:18:06Z</time>
      </trkpt>
      <trkpt lat="47.22117" lon="2.0646">
        <ele>102.04</ele>
        <time>2015-08-17T16:18:12Z</time>
      </trkpt>
      <trkpt lat="47.22126" lon="2.06468">
        <ele>102.52</ele>
        <time>2015-08-17T16:18:16Z</time>
      </trkpt>
      <trkpt lat="47.22158" lon="2.06492">
        <ele>102.04</ele>
        <time>2015-08-17T16:18:29Z</time>
      </trkpt>
      <trkpt lat="47.22165" lon="2.06503">
        <ele>102.04</ele>
        <time>2015-08-17T16:18:35Z</time>
      </trkpt>
      <trkpt lat="47.22163" lon="2.06512">
        <ele>102.52</ele>
        <time>2015-08-17T16:18:40Z</time>
      </trkpt>
      <trkpt lat="47.22161" lon="2.06528">
        <ele>103</ele>
        <time>2015-08-17T16:18:45Z</time>
      </trkpt>
      <trkpt lat="47.22155" lon="2.06574">
        <ele>103</ele>
        <time>2015-08-17T16:18:58Z</time>
      </trkpt>
      <trkpt lat="47.22151" lon="2.06612">
        <ele>102.52</ele>
        <time>2015-08-17T16:19:11Z</time>
      </trkpt>
      <trkpt lat="47.2215" lon="2.06615">
        <ele>102.52</ele>
        <time>2015-08-17T16:19:12Z</time>
      </trkpt>
      <trkpt lat="47.22145" lon="2.06638">
        <ele>102.04</ele>
        <time>2015-08-17T16:19:24Z</time>
      </trkpt>
      <trkpt lat="47.2214" lon="2.06661">
        <ele>102.04</ele>
        <time>2015-08-17T16:19:36Z</time>
      </trkpt>
      <trkpt lat="47.22132" lon="2.06689">
        <ele>101.56</ele>
        <time>2015-08-17T16:19:47Z</time>
      </trkpt>
      <trkpt lat="47.22125" lon="2.06705">
        <ele>102.04</ele>
        <time>2015-08-17T16:19:54Z</time>
      </trkpt>
      <trkpt lat="47.22129" lon="2.06718">
        <ele>102.04</ele>
        <time>2015-08-17T16:20:02Z</time>
      </trkpt>
      <trkpt lat="47.22129" lon="2.06719">
        <ele>102.04</ele>
        <time>2015-08-17T16:20:09Z</time>
      </trkpt>
      <trkpt lat="47.2213" lon="2.06722">
        <ele>101.56</ele>
        <time>2015-08-17T16:20:27Z</time>
      </trkpt>
      <trkpt lat="47.22134" lon="2.06725">
        <ele>101.56</ele>
        <time>2015-08-17T16:20:44Z</time>
      </trkpt>
      <trkpt lat="47.22134" lon="2.06726">
        <ele>101.56</ele>
        <time>2015-08-17T16:21:20Z</time>
      </trkpt>
      <trkpt lat="47.22135" lon="2.06727">
        <ele>101.56</ele>
        <time>2015-08-17T16:21:49Z</time>
      </trkpt>
      <trkpt lat="47.22134" lon="2.06726">
        <ele>101.56</ele>
        <time>2015-08-17T16:22:06Z</time>
      </trkpt>
      <trkpt lat="47.22136" lon="2.0673">
        <ele>101.56</ele>
        <time>2015-08-17T16:22:15Z</time>
      </trkpt>
      <trkpt lat="47.22122" lon="2.06726">
        <ele>100.6</ele>
        <time>2015-08-17T16:22:25Z</time>
      </trkpt>
      <trkpt lat="47.22122" lon="2.06737">
        <ele>100.11</ele>
        <time>2015-08-17T16:22:29Z</time>
      </trkpt>
      <trkpt lat="47.22119" lon="2.06755">
        <ele>100.6</ele>
        <time>2015-08-17T16:22:37Z</time>
      </trkpt>
      <trkpt lat="47.22115" lon="2.06763">
        <ele>100.6</ele>
        <time>2015-08-17T16:22:48Z</time>
      </trkpt>
      <trkpt lat="47.22112" lon="2.06781">
        <ele>100.6</ele>
        <time>2015-08-17T16:23:00Z</time>
      </trkpt>
      <trkpt lat="47.22106" lon="2.06808">
        <ele>100.6</ele>
        <time>2015-08-17T16:23:08Z</time>
      </trkpt>
      <trkpt lat="47.22096" lon="2.06862">
        <ele>100.6</ele>
        <time>2015-08-17T16:23:24Z</time>
      </trkpt>
      <trkpt lat="47.22086" lon="2.06924">
        <ele>100.6</ele>
        <time>2015-08-17T16:23:41Z</time>
      </trkpt>
      <trkpt lat="47.22074" lon="2.06983">
        <ele>100.6</ele>
        <time>2015-08-17T16:23:57Z</time>
      </trkpt>
      <trkpt lat="47.22067" lon="2.07034">
        <ele>100.6</ele>
        <time>2015-08-17T16:24:10Z</time>
      </trkpt>
      <trkpt lat="47.22056" lon="2.07085">
        <ele>100.6</ele>
        <time>2015-08-17T16:24:24Z</time>
      </trkpt>
      <trkpt lat="47.22046" lon="2.07139">
        <ele>100.6</ele>
        <time>2015-08-17T16:24:42Z</time>
      </trkpt>
      <trkpt lat="47.22053" lon="2.07152">
        <ele>100.6</ele>
        <time>2015-08-17T16:24:49Z</time>
      </trkpt>
      <trkpt lat="47.22057" lon="2.07166">
        <ele>101.56</ele>
        <time>2015-08-17T16:24:54Z</time>
      </trkpt>
      <trkpt lat="47.2206" lon="2.07183">
        <ele>101.08</ele>
        <time>2015-08-17T16:25:00Z</time>
      </trkpt>
      <trkpt lat="47.22058" lon="2.07187">
        <ele>101.08</ele>
        <time>2015-08-17T16:25:03Z</time>
      </trkpt>
      <trkpt lat="47.22041" lon="2.07196">
        <ele>100.6</ele>
        <time>2015-08-17T16:25:17Z</time>
      </trkpt>
      <trkpt lat="47.22037" lon="2.07195">
        <ele>100.6</ele>
        <time>2015-08-17T16:25:23Z</time>
      </trkpt>
      <trkpt lat="47.22035" lon="2.07192">
        <ele>100.6</ele>
        <time>2015-08-17T16:25:50Z</time>
      </trkpt>
      <trkpt lat="47.22035" lon="2.07186">
        <ele>100.6</ele>
        <time>2015-08-17T16:26:05Z</time>
      </trkpt>
      <trkpt lat="47.22043" lon="2.07184">
        <ele>100.6</ele>
        <time>2015-08-17T16:26:15Z</time>
      </trkpt>
      <trkpt lat="47.2204" lon="2.07184">
        <ele>100.11</ele>
        <time>2015-08-17T16:26:41Z</time>
      </trkpt>
      <trkpt lat="47.22038" lon="2.07181">
        <ele>100.11</ele>
        <time>2015-08-17T16:27:14Z</time>
      </trkpt>
      <trkpt lat="47.22029" lon="2.07187">
        <ele>100.11</ele>
        <time>2015-08-17T16:27:15Z</time>
      </trkpt>
      <trkpt lat="47.22039" lon="2.07184">
        <ele>100.11</ele>
        <time>2015-08-17T17:23:13Z</time>
      </trkpt>
      <trkpt lat="47.22037" lon="2.07185">
        <ele>100.6</ele>
        <time>2015-08-17T17:23:26Z</time>
      </trkpt>
      <trkpt lat="47.22033" lon="2.07194">
        <ele>100.6</ele>
        <time>2015-08-17T17:23:37Z</time>
      </trkpt>
      <trkpt lat="47.22032" lon="2.07196">
        <ele>100.6</ele>
        <time>2015-08-17T17:23:38Z</time>
      </trkpt>
      <trkpt lat="47.22029" lon="2.07202">
        <ele>100.6</ele>
        <time>2015-08-17T17:23:41Z</time>
      </trkpt>
      <trkpt lat="47.22018" lon="2.07254">
        <ele>101.56</ele>
        <time>2015-08-17T17:23:57Z</time>
      </trkpt>
      <trkpt lat="47.22017" lon="2.07257">
        <ele>101.56</ele>
        <time>2015-08-17T17:23:58Z</time>
      </trkpt>
      <trkpt lat="47.22013" lon="2.0726">
        <ele>102.04</ele>
        <time>2015-08-17T17:24:01Z</time>
      </trkpt>
      <trkpt lat="47.22011" lon="2.0726">
        <ele>102.04</ele>
        <time>2015-08-17T17:24:02Z</time>
      </trkpt>
      <trkpt lat="47.2201" lon="2.0726">
        <ele>102.04</ele>
        <time>2015-08-17T17:24:03Z</time>
      </trkpt>
      <trkpt lat="47.2201" lon="2.07262">
        <ele>102.52</ele>
        <time>2015-08-17T17:24:35Z</time>
      </trkpt>
      <trkpt lat="47.22011" lon="2.07264">
        <ele>102.52</ele>
        <time>2015-08-17T17:24:47Z</time>
      </trkpt>
      <trkpt lat="47.2201" lon="2.07266">
        <ele>102.52</ele>
        <time>2015-08-17T17:24:48Z</time>
      </trkpt>
      <trkpt lat="47.22008" lon="2.07268">
        <ele>102.52</ele>
        <time>2015-08-17T17:24:50Z</time>
      </trkpt>
      <trkpt lat="47.22003" lon="2.07304">
        <ele>102.52</ele>
        <time>2015-08-17T17:25:02Z</time>
      </trkpt>
      <trkpt lat="47.21995" lon="2.07373">
        <ele>102.04</ele>
        <time>2015-08-17T17:25:18Z</time>
      </trkpt>
      <trkpt lat="47.21981" lon="2.07447">
        <ele>102.04</ele>
        <time>2015-08-17T17:25:33Z</time>
      </trkpt>
      <trkpt lat="47.21967" lon="2.07527">
        <ele>102.04</ele>
        <time>2015-08-17T17:25:47Z</time>
      </trkpt>
      <trkpt lat="47.21963" lon="2.07551">
        <ele>102.04</ele>
        <time>2015-08-17T17:25:51Z</time>
      </trkpt>
      <trkpt lat="47.2195" lon="2.07621">
        <ele>101.56</ele>
        <time>2015-08-17T17:26:03Z</time>
      </trkpt>
      <trkpt lat="47.21942" lon="2.07664">
        <ele>101.56</ele>
        <time>2015-08-17T17:26:11Z</time>
      </trkpt>
      <trkpt lat="47.21933" lon="2.07711">
        <ele>101.56</ele>
        <time>2015-08-17T17:26:21Z</time>
      </trkpt>
      <trkpt lat="47.21932" lon="2.07716">
        <ele>101.56</ele>
        <time>2015-08-17T17:26:22Z</time>
      </trkpt>
      <trkpt lat="47.21931" lon="2.0772">
        <ele>102.04</ele>
        <time>2015-08-17T17:26:23Z</time>
      </trkpt>
      <trkpt lat="47.2193" lon="2.07725">
        <ele>101.56</ele>
        <time>2015-08-17T17:26:24Z</time>
      </trkpt>
      <trkpt lat="47.21928" lon="2.07729">
        <ele>102.04</ele>
        <time>2015-08-17T17:26:25Z</time>
      </trkpt>
      <trkpt lat="47.21925" lon="2.07732">
        <ele>102.04</ele>
        <time>2015-08-17T17:26:26Z</time>
      </trkpt>
      <trkpt lat="47.21922" lon="2.07734">
        <ele>102.04</ele>
        <time>2015-08-17T17:26:27Z</time>
      </trkpt>
      <trkpt lat="47.2192" lon="2.07734">
        <ele>102.52</ele>
        <time>2015-08-17T17:26:28Z</time>
      </trkpt>
      <trkpt lat="47.21916" lon="2.07745">
        <ele>102.52</ele>
        <time>2015-08-17T17:26:31Z</time>
      </trkpt>
      <trkpt lat="47.21903" lon="2.07817">
        <ele>102.52</ele>
        <time>2015-08-17T17:26:44Z</time>
      </trkpt>
      <trkpt lat="47.21886" lon="2.07906">
        <ele>102.52</ele>
        <time>2015-08-17T17:27:00Z</time>
      </trkpt>
      <trkpt lat="47.21867" lon="2.07994">
        <ele>102.52</ele>
        <time>2015-08-17T17:27:15Z</time>
      </trkpt>
      <trkpt lat="47.21846" lon="2.08075">
        <ele>103</ele>
        <time>2015-08-17T17:27:30Z</time>
      </trkpt>
      <trkpt lat="47.21825" lon="2.08161">
        <ele>102.52</ele>
        <time>2015-08-17T17:27:46Z</time>
      </trkpt>
      <trkpt lat="47.21803" lon="2.08254">
        <ele>102.52</ele>
        <time>2015-08-17T17:28:04Z</time>
      </trkpt>
      <trkpt lat="47.21787" lon="2.08314">
        <ele>102.52</ele>
        <time>2015-08-17T17:28:19Z</time>
      </trkpt>
      <trkpt lat="47.21787" lon="2.08317">
        <ele>102.52</ele>
        <time>2015-08-17T17:28:20Z</time>
      </trkpt>
      <trkpt lat="47.21786" lon="2.08319">
        <ele>102.52</ele>
        <time>2015-08-17T17:28:21Z</time>
      </trkpt>
      <trkpt lat="47.21786" lon="2.0832">
        <ele>102.52</ele>
        <time>2015-08-17T17:28:22Z</time>
      </trkpt>
      <trkpt lat="47.21786" lon="2.08321">
        <ele>102.04</ele>
        <time>2015-08-17T17:28:50Z</time>
      </trkpt>
      <trkpt lat="47.21786" lon="2.08321">
        <ele>105.4</ele>
        <time>2015-08-17T17:28:52Z</time>
      </trkpt>
      <trkpt lat="47.21786" lon="2.08321">
        <ele>100.6</ele>
        <time>2015-08-17T17:28:53Z</time>
      </trkpt>
      <trkpt lat="47.21786" lon="2.08321">
        <ele>105.88</ele>
        <time>2015-08-17T17:28:54Z</time>
      </trkpt>
      <trkpt lat="47.21786" lon="2.0832">
        <ele>99.15</ele>
        <time>2015-08-17T17:28:55Z</time>
      </trkpt>
      <trkpt lat="47.21786" lon="2.08321">
        <ele>102.52</ele>
        <time>2015-08-17T17:29:01Z</time>
      </trkpt>
      <trkpt lat="47.21786" lon="2.08321">
        <ele>105.88</ele>
        <time>2015-08-17T17:29:02Z</time>
      </trkpt>
      <trkpt lat="47.21786" lon="2.08321">
        <ele>102.52</ele>
        <time>2015-08-17T17:29:04Z</time>
      </trkpt>
      <trkpt lat="47.21786" lon="2.08321">
        <ele>99.15</ele>
        <time>2015-08-17T17:29:05Z</time>
      </trkpt>
      <trkpt lat="47.21787" lon="2.08321">
        <ele>102.52</ele>
        <time>2015-08-17T17:29:13Z</time>
      </trkpt>
      <trkpt lat="47.2177" lon="2.08389">
        <ele>103</ele>
        <time>2015-08-17T17:29:30Z</time>
      </trkpt>
      <trkpt lat="47.21748" lon="2.08474">
        <ele>102.52</ele>
        <time>2015-08-17T17:29:49Z</time>
      </trkpt>
      <trkpt lat="47.21728" lon="2.08551">
        <ele>102.52</ele>
        <time>2015-08-17T17:30:06Z</time>
      </trkpt>
      <trkpt lat="47.2171" lon="2.08626">
        <ele>103</ele>
        <time>2015-08-17T17:30:22Z</time>
      </trkpt>
      <trkpt lat="47.21691" lon="2.08702">
        <ele>102.52</ele>
        <time>2015-08-17T17:30:38Z</time>
      </trkpt>
      <trkpt lat="47.21673" lon="2.08784">
        <ele>102.52</ele>
        <time>2015-08-17T17:30:54Z</time>
      </trkpt>
      <trkpt lat="47.21653" lon="2.08861">
        <ele>103</ele>
        <time>2015-08-17T17:31:09Z</time>
      </trkpt>
      <trkpt lat="47.21636" lon="2.08935">
        <ele>103</ele>
        <time>2015-08-17T17:31:23Z</time>
      </trkpt>
      <trkpt lat="47.2162" lon="2.08982">
        <ele>103.48</ele>
        <time>2015-08-17T17:31:35Z</time>
      </trkpt>
      <trkpt lat="47.21619" lon="2.08984">
        <ele>103.48</ele>
        <time>2015-08-17T17:31:36Z</time>
      </trkpt>
      <trkpt lat="47.21619" lon="2.08988">
        <ele>103.48</ele>
        <time>2015-08-17T17:31:56Z</time>
      </trkpt>
      <trkpt lat="47.21615" lon="2.08999">
        <ele>103.96</ele>
        <time>2015-08-17T17:32:10Z</time>
      </trkpt>
      <trkpt lat="47.21614" lon="2.09001">
        <ele>103.48</ele>
        <time>2015-08-17T17:32:11Z</time>
      </trkpt>
      <trkpt lat="47.21613" lon="2.09003">
        <ele>103.48</ele>
        <time>2015-08-17T17:32:12Z</time>
      </trkpt>
      <trkpt lat="47.21612" lon="2.09006">
        <ele>103.48</ele>
        <time>2015-08-17T17:32:13Z</time>
      </trkpt>
      <trkpt lat="47.21611" lon="2.09009">
        <ele>103.48</ele>
        <time>2015-08-17T17:32:14Z</time>
      </trkpt>
      <trkpt lat="47.21611" lon="2.09012">
        <ele>103.96</ele>
        <time>2015-08-17T17:32:15Z</time>
      </trkpt>
      <trkpt lat="47.21608" lon="2.09022">
        <ele>103.96</ele>
        <time>2015-08-17T17:32:19Z</time>
      </trkpt>
      <trkpt lat="47.21608" lon="2.09024">
        <ele>103.96</ele>
        <time>2015-08-17T17:32:20Z</time>
      </trkpt>
      <trkpt lat="47.21608" lon="2.09027">
        <ele>103.96</ele>
        <time>2015-08-17T17:32:21Z</time>
      </trkpt>
      <trkpt lat="47.21603" lon="2.09056">
        <ele>103.96</ele>
        <time>2015-08-17T17:32:30Z</time>
      </trkpt>
      <trkpt lat="47.21592" lon="2.09106">
        <ele>103.96</ele>
        <time>2015-08-17T17:32:41Z</time>
      </trkpt>
      <trkpt lat="47.21577" lon="2.09161">
        <ele>103.96</ele>
        <time>2015-08-17T17:32:53Z</time>
      </trkpt>
      <trkpt lat="47.21576" lon="2.09167">
        <ele>103.96</ele>
        <time>2015-08-17T17:32:54Z</time>
      </trkpt>
      <trkpt lat="47.21553" lon="2.09255">
        <ele>103.96</ele>
        <time>2015-08-17T17:33:11Z</time>
      </trkpt>
      <trkpt lat="47.2153" lon="2.0935">
        <ele>103.96</ele>
        <time>2015-08-17T17:33:29Z</time>
      </trkpt>
      <trkpt lat="47.21514" lon="2.09414">
        <ele>103.96</ele>
        <time>2015-08-17T17:33:42Z</time>
      </trkpt>
      <trkpt lat="47.21509" lon="2.09467">
        <ele>104.44</ele>
        <time>2015-08-17T17:33:54Z</time>
      </trkpt>
      <trkpt lat="47.21502" lon="2.09516">
        <ele>103.96</ele>
        <time>2015-08-17T17:34:07Z</time>
      </trkpt>
      <trkpt lat="47.21506" lon="2.09581">
        <ele>104.44</ele>
        <time>2015-08-17T17:34:20Z</time>
      </trkpt>
      <trkpt lat="47.21487" lon="2.0966">
        <ele>104.44</ele>
        <time>2015-08-17T17:34:36Z</time>
      </trkpt>
      <trkpt lat="47.21456" lon="2.09706">
        <ele>104.44</ele>
        <time>2015-08-17T17:34:49Z</time>
      </trkpt>
      <trkpt lat="47.2141" lon="2.09747">
        <ele>104.44</ele>
        <time>2015-08-17T17:35:04Z</time>
      </trkpt>
      <trkpt lat="47.21381" lon="2.09801">
        <ele>104.44</ele>
        <time>2015-08-17T17:35:19Z</time>
      </trkpt>
      <trkpt lat="47.21368" lon="2.09839">
        <ele>104.44</ele>
        <time>2015-08-17T17:35:30Z</time>
      </trkpt>
      <trkpt lat="47.21368" lon="2.09842">
        <ele>104.44</ele>
        <time>2015-08-17T17:35:31Z</time>
      </trkpt>
      <trkpt lat="47.21369" lon="2.09845">
        <ele>104.44</ele>
        <time>2015-08-17T17:35:32Z</time>
      </trkpt>
      <trkpt lat="47.2137" lon="2.09847">
        <ele>104.44</ele>
        <time>2015-08-17T17:35:33Z</time>
      </trkpt>
      <trkpt lat="47.21371" lon="2.09849">
        <ele>104.44</ele>
        <time>2015-08-17T17:35:34Z</time>
      </trkpt>
      <trkpt lat="47.21371" lon="2.09851">
        <ele>104.44</ele>
        <time>2015-08-17T17:35:35Z</time>
      </trkpt>
      <trkpt lat="47.21372" lon="2.09852">
        <ele>104.44</ele>
        <time>2015-08-17T17:35:36Z</time>
      </trkpt>
      <trkpt lat="47.21374" lon="2.09854">
        <ele>104.44</ele>
        <time>2015-08-17T17:35:37Z</time>
      </trkpt>
      <trkpt lat="47.21375" lon="2.09855">
        <ele>104.44</ele>
        <time>2015-08-17T17:35:38Z</time>
      </trkpt>
      <trkpt lat="47.21376" lon="2.09856">
        <ele>104.44</ele>
        <time>2015-08-17T17:35:39Z</time>
      </trkpt>
      <trkpt lat="47.21377" lon="2.09857">
        <ele>104.44</ele>
        <time>2015-08-17T17:35:40Z</time>
      </trkpt>
      <trkpt lat="47.21379" lon="2.09856">
        <ele>104.44</ele>
        <time>2015-08-17T17:35:41Z</time>
      </trkpt>
      <trkpt lat="47.2138" lon="2.09855">
        <ele>104.44</ele>
        <time>2015-08-17T17:35:42Z</time>
      </trkpt>
      <trkpt lat="47.2138" lon="2.09853">
        <ele>104.44</ele>
        <time>2015-08-17T17:35:43Z</time>
      </trkpt>
      <trkpt lat="47.21378" lon="2.09857">
        <ele>104.44</ele>
        <time>2015-08-17T17:35:50Z</time>
      </trkpt>
      <trkpt lat="47.21361" lon="2.09906">
        <ele>103.96</ele>
        <time>2015-08-17T17:36:04Z</time>
      </trkpt>
      <trkpt lat="47.21359" lon="2.09911">
        <ele>104.44</ele>
        <time>2015-08-17T17:36:05Z</time>
      </trkpt>
      <trkpt lat="47.21357" lon="2.09916">
        <ele>104.44</ele>
        <time>2015-08-17T17:36:06Z</time>
      </trkpt>
      <trkpt lat="47.21327" lon="2.09991">
        <ele>104.44</ele>
        <time>2015-08-17T17:36:21Z</time>
      </trkpt>
      <trkpt lat="47.2131" lon="2.10034">
        <ele>104.44</ele>
        <time>2015-08-17T17:36:28Z</time>
      </trkpt>
      <trkpt lat="47.21301" lon="2.1005">
        <ele>104.92</ele>
        <time>2015-08-17T17:36:31Z</time>
      </trkpt>
      <trkpt lat="47.21298" lon="2.10054">
        <ele>104.92</ele>
        <time>2015-08-17T17:36:32Z</time>
      </trkpt>
      <trkpt lat="47.21278" lon="2.10091">
        <ele>105.88</ele>
        <time>2015-08-17T17:36:44Z</time>
      </trkpt>
      <trkpt lat="47.21277" lon="2.10092">
        <ele>105.88</ele>
        <time>2015-08-17T17:36:45Z</time>
      </trkpt>
      <trkpt lat="47.21275" lon="2.10092">
        <ele>105.88</ele>
        <time>2015-08-17T17:36:47Z</time>
      </trkpt>
      <trkpt lat="47.21273" lon="2.10094">
        <ele>105.88</ele>
        <time>2015-08-17T17:36:58Z</time>
      </trkpt>
      <trkpt lat="47.21264" lon="2.10117">
        <ele>104.44</ele>
        <time>2015-08-17T17:37:11Z</time>
      </trkpt>
      <trkpt lat="47.21263" lon="2.10119">
        <ele>104.44</ele>
        <time>2015-08-17T17:37:12Z</time>
      </trkpt>
      <trkpt lat="47.21262" lon="2.10122">
        <ele>104.44</ele>
        <time>2015-08-17T17:37:13Z</time>
      </trkpt>
      <trkpt lat="47.21261" lon="2.10124">
        <ele>104.44</ele>
        <time>2015-08-17T17:37:14Z</time>
      </trkpt>
      <trkpt lat="47.2126" lon="2.10126">
        <ele>104.44</ele>
        <time>2015-08-17T17:37:15Z</time>
      </trkpt>
      <trkpt lat="47.2126" lon="2.10128">
        <ele>103.96</ele>
        <time>2015-08-17T17:37:16Z</time>
      </trkpt>
      <trkpt lat="47.2126" lon="2.10132">
        <ele>104.44</ele>
        <time>2015-08-17T17:37:19Z</time>
      </trkpt>
      <trkpt lat="47.2126" lon="2.10132">
        <ele>104.44</ele>
        <time>2015-08-17T17:37:25Z</time>
      </trkpt>
      <trkpt lat="47.21261" lon="2.10133">
        <ele>104.44</ele>
        <time>2015-08-17T17:37:55Z</time>
      </trkpt>
      <trkpt lat="47.21259" lon="2.10135">
        <ele>104.44</ele>
        <time>2015-08-17T17:38:24Z</time>
      </trkpt>
      <trkpt lat="47.2126" lon="2.10135">
        <ele>104.44</ele>
        <time>2015-08-17T17:38:58Z</time>
      </trkpt>
      <trkpt lat="47.21259" lon="2.10135">
        <ele>104.44</ele>
        <time>2015-08-17T17:39:32Z</time>
      </trkpt>
      <trkpt lat="47.21259" lon="2.10135">
        <ele>104.44</ele>
        <time>2015-08-17T17:40:08Z</time>
      </trkpt>
      <trkpt lat="47.21261" lon="2.1014">
        <ele>104.44</ele>
        <time>2015-08-17T17:40:43Z</time>
      </trkpt>
      <trkpt lat="47.21262" lon="2.10139">
        <ele>104.44</ele>
        <time>2015-08-17T17:41:18Z</time>
      </trkpt>
      <trkpt lat="47.21261" lon="2.1014">
        <ele>104.44</ele>
        <time>2015-08-17T17:41:52Z</time>
      </trkpt>
      <trkpt lat="47.21259" lon="2.10144">
        <ele>104.92</ele>
        <time>2015-08-17T17:42:03Z</time>
      </trkpt>
      <trkpt lat="47.21242" lon="2.10187">
        <ele>104.44</ele>
        <time>2015-08-17T17:42:18Z</time>
      </trkpt>
      <trkpt lat="47.2123" lon="2.10221">
        <ele>104.44</ele>
        <time>2015-08-17T17:42:30Z</time>
      </trkpt>
      <trkpt lat="47.21229" lon="2.10223">
        <ele>104.44</ele>
        <time>2015-08-17T17:42:31Z</time>
      </trkpt>
      <trkpt lat="47.21229" lon="2.10225">
        <ele>104.44</ele>
        <time>2015-08-17T17:42:32Z</time>
      </trkpt>
      <trkpt lat="47.21228" lon="2.10226">
        <ele>104.44</ele>
        <time>2015-08-17T17:42:33Z</time>
      </trkpt>
      <trkpt lat="47.21229" lon="2.1023">
        <ele>103.96</ele>
        <time>2015-08-17T17:42:45Z</time>
      </trkpt>
      <trkpt lat="47.2123" lon="2.10234">
        <ele>103.96</ele>
        <time>2015-08-17T17:43:06Z</time>
      </trkpt>
      <trkpt lat="47.21229" lon="2.10238">
        <ele>103.96</ele>
        <time>2015-08-17T17:43:17Z</time>
      </trkpt>
      <trkpt lat="47.21209" lon="2.1028">
        <ele>104.92</ele>
        <time>2015-08-17T17:43:30Z</time>
      </trkpt>
      <trkpt lat="47.21192" lon="2.10325">
        <ele>104.92</ele>
        <time>2015-08-17T17:43:42Z</time>
      </trkpt>
      <trkpt lat="47.21166" lon="2.10407">
        <ele>104.92</ele>
        <time>2015-08-17T17:43:59Z</time>
      </trkpt>
      <trkpt lat="47.21146" lon="2.10454">
        <ele>104.92</ele>
        <time>2015-08-17T17:44:13Z</time>
      </trkpt>
      <trkpt lat="47.21145" lon="2.10456">
        <ele>104.92</ele>
        <time>2015-08-17T17:44:14Z</time>
      </trkpt>
      <trkpt lat="47.21146" lon="2.10463">
        <ele>104.92</ele>
        <time>2015-08-17T17:44:20Z</time>
      </trkpt>
      <trkpt lat="47.21134" lon="2.10493">
        <ele>104.92</ele>
        <time>2015-08-17T17:44:31Z</time>
      </trkpt>
      <trkpt lat="47.21132" lon="2.10497">
        <ele>104.92</ele>
        <time>2015-08-17T17:44:32Z</time>
      </trkpt>
      <trkpt lat="47.2113" lon="2.105">
        <ele>105.4</ele>
        <time>2015-08-17T17:44:33Z</time>
      </trkpt>
      <trkpt lat="47.21128" lon="2.10504">
        <ele>105.4</ele>
        <time>2015-08-17T17:44:34Z</time>
      </trkpt>
      <trkpt lat="47.21127" lon="2.10508">
        <ele>105.4</ele>
        <time>2015-08-17T17:44:35Z</time>
      </trkpt>
      <trkpt lat="47.21122" lon="2.10518">
        <ele>104.92</ele>
        <time>2015-08-17T17:44:38Z</time>
      </trkpt>
      <trkpt lat="47.21121" lon="2.10522">
        <ele>104.92</ele>
        <time>2015-08-17T17:44:39Z</time>
      </trkpt>
      <trkpt lat="47.21119" lon="2.10525">
        <ele>104.92</ele>
        <time>2015-08-17T17:44:40Z</time>
      </trkpt>
      <trkpt lat="47.21118" lon="2.10529">
        <ele>104.92</ele>
        <time>2015-08-17T17:44:41Z</time>
      </trkpt>
      <trkpt lat="47.21116" lon="2.10533">
        <ele>104.92</ele>
        <time>2015-08-17T17:44:42Z</time>
      </trkpt>
      <trkpt lat="47.21114" lon="2.10537">
        <ele>104.92</ele>
        <time>2015-08-17T17:44:43Z</time>
      </trkpt>
      <trkpt lat="47.21112" lon="2.10542">
        <ele>105.4</ele>
        <time>2015-08-17T17:44:44Z</time>
      </trkpt>
      <trkpt lat="47.21111" lon="2.10546">
        <ele>104.92</ele>
        <time>2015-08-17T17:44:45Z</time>
      </trkpt>
      <trkpt lat="47.2111" lon="2.1055">
        <ele>104.92</ele>
        <time>2015-08-17T17:44:46Z</time>
      </trkpt>
      <trkpt lat="47.21107" lon="2.10562">
        <ele>104.92</ele>
        <time>2015-08-17T17:44:49Z</time>
      </trkpt>
      <trkpt lat="47.21091" lon="2.10602">
        <ele>104.92</ele>
        <time>2015-08-17T17:44:59Z</time>
      </trkpt>
      <trkpt lat="47.2109" lon="2.10606">
        <ele>104.92</ele>
        <time>2015-08-17T17:45:00Z</time>
      </trkpt>
      <trkpt lat="47.21089" lon="2.10611">
        <ele>104.92</ele>
        <time>2015-08-17T17:45:01Z</time>
      </trkpt>
      <trkpt lat="47.21083" lon="2.10629">
        <ele>104.92</ele>
        <time>2015-08-17T17:45:06Z</time>
      </trkpt>
      <trkpt lat="47.2107" lon="2.10668">
        <ele>104.92</ele>
        <time>2015-08-17T17:45:16Z</time>
      </trkpt>
      <trkpt lat="47.21053" lon="2.10718">
        <ele>105.4</ele>
        <time>2015-08-17T17:45:28Z</time>
      </trkpt>
      <trkpt lat="47.2103" lon="2.10772">
        <ele>105.4</ele>
        <time>2015-08-17T17:45:41Z</time>
      </trkpt>
      <trkpt lat="47.21011" lon="2.10822">
        <ele>105.88</ele>
        <time>2015-08-17T17:45:54Z</time>
      </trkpt>
      <trkpt lat="47.20992" lon="2.10873">
        <ele>105.88</ele>
        <time>2015-08-17T17:46:07Z</time>
      </trkpt>
      <trkpt lat="47.20974" lon="2.10917">
        <ele>105.88</ele>
        <time>2015-08-17T17:46:19Z</time>
      </trkpt>
      <trkpt lat="47.20952" lon="2.10971">
        <ele>105.88</ele>
        <time>2015-08-17T17:46:32Z</time>
      </trkpt>
      <trkpt lat="47.20936" lon="2.11011">
        <ele>105.88</ele>
        <time>2015-08-17T17:46:43Z</time>
      </trkpt>
      <trkpt lat="47.20918" lon="2.1106">
        <ele>105.88</ele>
        <time>2015-08-17T17:46:55Z</time>
      </trkpt>
      <trkpt lat="47.20903" lon="2.11105">
        <ele>105.4</ele>
        <time>2015-08-17T17:47:07Z</time>
      </trkpt>
      <trkpt lat="47.20886" lon="2.1115">
        <ele>105.88</ele>
        <time>2015-08-17T17:47:18Z</time>
      </trkpt>
      <trkpt lat="47.20868" lon="2.11199">
        <ele>105.88</ele>
        <time>2015-08-17T17:47:29Z</time>
      </trkpt>
      <trkpt lat="47.2085" lon="2.11253">
        <ele>105.88</ele>
        <time>2015-08-17T17:47:41Z</time>
      </trkpt>
      <trkpt lat="47.20831" lon="2.11304">
        <ele>105.88</ele>
        <time>2015-08-17T17:47:53Z</time>
      </trkpt>
      <trkpt lat="47.20829" lon="2.11308">
        <ele>105.88</ele>
        <time>2015-08-17T17:47:54Z</time>
      </trkpt>
      <trkpt lat="47.20827" lon="2.11312">
        <ele>105.88</ele>
        <time>2015-08-17T17:47:55Z</time>
      </trkpt>
      <trkpt lat="47.20825" lon="2.11315">
        <ele>105.88</ele>
        <time>2015-08-17T17:47:56Z</time>
      </trkpt>
      <trkpt lat="47.20823" lon="2.11319">
        <ele>105.88</ele>
        <time>2015-08-17T17:47:57Z</time>
      </trkpt>
      <trkpt lat="47.20822" lon="2.11324">
        <ele>106.36</ele>
        <time>2015-08-17T17:47:58Z</time>
      </trkpt>
      <trkpt lat="47.20812" lon="2.11355">
        <ele>105.88</ele>
        <time>2015-08-17T17:48:05Z</time>
      </trkpt>
      <trkpt lat="47.20793" lon="2.11403">
        <ele>105.88</ele>
        <time>2015-08-17T17:48:16Z</time>
      </trkpt>
      <trkpt lat="47.20774" lon="2.1145">
        <ele>106.36</ele>
        <time>2015-08-17T17:48:28Z</time>
      </trkpt>
      <trkpt lat="47.2076" lon="2.1149">
        <ele>106.36</ele>
        <time>2015-08-17T17:48:39Z</time>
      </trkpt>
      <trkpt lat="47.20744" lon="2.11528">
        <ele>105.88</ele>
        <time>2015-08-17T17:48:51Z</time>
      </trkpt>
      <trkpt lat="47.20731" lon="2.11569">
        <ele>105.4</ele>
        <time>2015-08-17T17:49:03Z</time>
      </trkpt>
      <trkpt lat="47.20719" lon="2.11607">
        <ele>105.4</ele>
        <time>2015-08-17T17:49:15Z</time>
      </trkpt>
      <trkpt lat="47.20702" lon="2.11658">
        <ele>105.4</ele>
        <time>2015-08-17T17:49:30Z</time>
      </trkpt>
      <trkpt lat="47.20686" lon="2.11702">
        <ele>104.92</ele>
        <time>2015-08-17T17:49:43Z</time>
      </trkpt>
      <trkpt lat="47.20663" lon="2.11759">
        <ele>105.4</ele>
        <time>2015-08-17T17:50:00Z</time>
      </trkpt>
      <trkpt lat="47.20649" lon="2.11802">
        <ele>104.92</ele>
        <time>2015-08-17T17:50:12Z</time>
      </trkpt>
      <trkpt lat="47.20632" lon="2.11849">
        <ele>104.92</ele>
        <time>2015-08-17T17:50:25Z</time>
      </trkpt>
      <trkpt lat="47.20616" lon="2.11895">
        <ele>104.92</ele>
        <time>2015-08-17T17:50:39Z</time>
      </trkpt>
      <trkpt lat="47.20606" lon="2.11917">
        <ele>104.92</ele>
        <time>2015-08-17T17:50:50Z</time>
      </trkpt>
      <trkpt lat="47.20603" lon="2.11926">
        <ele>104.44</ele>
        <time>2015-08-17T17:51:00Z</time>
      </trkpt>
      <trkpt lat="47.20584" lon="2.11976">
        <ele>104.44</ele>
        <time>2015-08-17T17:51:15Z</time>
      </trkpt>
      <trkpt lat="47.20569" lon="2.12017">
        <ele>104.44</ele>
        <time>2015-08-17T17:51:28Z</time>
      </trkpt>
      <trkpt lat="47.20552" lon="2.12069">
        <ele>104.44</ele>
        <time>2015-08-17T17:51:43Z</time>
      </trkpt>
      <trkpt lat="47.20533" lon="2.12118">
        <ele>104.44</ele>
        <time>2015-08-17T17:51:58Z</time>
      </trkpt>
      <trkpt lat="47.20519" lon="2.1216">
        <ele>104.44</ele>
        <time>2015-08-17T17:52:11Z</time>
      </trkpt>
      <trkpt lat="47.20503" lon="2.12201">
        <ele>104.44</ele>
        <time>2015-08-17T17:52:24Z</time>
      </trkpt>
      <trkpt lat="47.20489" lon="2.1224">
        <ele>104.92</ele>
        <time>2015-08-17T17:52:36Z</time>
      </trkpt>
      <trkpt lat="47.20469" lon="2.12292">
        <ele>104.44</ele>
        <time>2015-08-17T17:52:51Z</time>
      </trkpt>
      <trkpt lat="47.20453" lon="2.12335">
        <ele>104.44</ele>
        <time>2015-08-17T17:53:04Z</time>
      </trkpt>
      <trkpt lat="47.20438" lon="2.12375">
        <ele>104.44</ele>
        <time>2015-08-17T17:53:18Z</time>
      </trkpt>
      <trkpt lat="47.20423" lon="2.12417">
        <ele>104.44</ele>
        <time>2015-08-17T17:53:32Z</time>
      </trkpt>
      <trkpt lat="47.20406" lon="2.12469">
        <ele>104.44</ele>
        <time>2015-08-17T17:53:47Z</time>
      </trkpt>
      <trkpt lat="47.2039" lon="2.12515">
        <ele>105.4</ele>
        <time>2015-08-17T17:53:59Z</time>
      </trkpt>
      <trkpt lat="47.20389" lon="2.12519">
        <ele>105.4</ele>
        <time>2015-08-17T17:54:00Z</time>
      </trkpt>
      <trkpt lat="47.20388" lon="2.12522">
        <ele>105.4</ele>
        <time>2015-08-17T17:54:01Z</time>
      </trkpt>
      <trkpt lat="47.20388" lon="2.12524">
        <ele>105.4</ele>
        <time>2015-08-17T17:54:02Z</time>
      </trkpt>
      <trkpt lat="47.20387" lon="2.12526">
        <ele>105.4</ele>
        <time>2015-08-17T17:54:03Z</time>
      </trkpt>
      <trkpt lat="47.20385" lon="2.12527">
        <ele>105.88</ele>
        <time>2015-08-17T17:54:04Z</time>
      </trkpt>
      <trkpt lat="47.2038" lon="2.12527">
        <ele>106.36</ele>
        <time>2015-08-17T17:54:09Z</time>
      </trkpt>
      <trkpt lat="47.20379" lon="2.12526">
        <ele>106.36</ele>
        <time>2015-08-17T17:54:28Z</time>
      </trkpt>
      <trkpt lat="47.20378" lon="2.12526">
        <ele>106.36</ele>
        <time>2015-08-17T17:54:50Z</time>
      </trkpt>
      <trkpt lat="47.20372" lon="2.12522">
        <ele>105.88</ele>
        <time>2015-08-17T17:55:03Z</time>
      </trkpt>
      <trkpt lat="47.20336" lon="2.12497">
        <ele>104.44</ele>
        <time>2015-08-17T17:55:17Z</time>
      </trkpt>
      <trkpt lat="47.20332" lon="2.12496">
        <ele>104.92</ele>
        <time>2015-08-17T17:55:18Z</time>
      </trkpt>
      <trkpt lat="47.20323" lon="2.12495">
        <ele>104.44</ele>
        <time>2015-08-17T17:55:20Z</time>
      </trkpt>
      <trkpt lat="47.20302" lon="2.12497">
        <ele>104.92</ele>
        <time>2015-08-17T17:55:25Z</time>
      </trkpt>
      <trkpt lat="47.20298" lon="2.12498">
        <ele>104.92</ele>
        <time>2015-08-17T17:55:26Z</time>
      </trkpt>
      <trkpt lat="47.20257" lon="2.125">
        <ele>104.92</ele>
        <time>2015-08-17T17:55:35Z</time>
      </trkpt>
      <trkpt lat="47.20253" lon="2.125">
        <ele>104.92</ele>
        <time>2015-08-17T17:55:36Z</time>
      </trkpt>
      <trkpt lat="47.20249" lon="2.12501">
        <ele>104.92</ele>
        <time>2015-08-17T17:55:37Z</time>
      </trkpt>
      <trkpt lat="47.20244" lon="2.125">
        <ele>104.92</ele>
        <time>2015-08-17T17:55:38Z</time>
      </trkpt>
      <trkpt lat="47.2024" lon="2.12501">
        <ele>104.92</ele>
        <time>2015-08-17T17:55:39Z</time>
      </trkpt>
      <trkpt lat="47.20236" lon="2.12502">
        <ele>104.92</ele>
        <time>2015-08-17T17:55:40Z</time>
      </trkpt>
      <trkpt lat="47.20227" lon="2.12504">
        <ele>104.92</ele>
        <time>2015-08-17T17:55:42Z</time>
      </trkpt>
      <trkpt lat="47.20185" lon="2.12512">
        <ele>104.92</ele>
        <time>2015-08-17T17:55:52Z</time>
      </trkpt>
      <trkpt lat="47.20135" lon="2.12515">
        <ele>104.92</ele>
        <time>2015-08-17T17:56:05Z</time>
      </trkpt>
      <trkpt lat="47.20091" lon="2.12485">
        <ele>104.44</ele>
        <time>2015-08-17T17:56:18Z</time>
      </trkpt>
      <trkpt lat="47.20087" lon="2.12482">
        <ele>104.44</ele>
        <time>2015-08-17T17:56:19Z</time>
      </trkpt>
      <trkpt lat="47.20062" lon="2.12464">
        <ele>104.44</ele>
        <time>2015-08-17T17:56:26Z</time>
      </trkpt>
      <trkpt lat="47.20059" lon="2.12461">
        <ele>104.92</ele>
        <time>2015-08-17T17:56:27Z</time>
      </trkpt>
      <trkpt lat="47.20055" lon="2.12458">
        <ele>104.92</ele>
        <time>2015-08-17T17:56:28Z</time>
      </trkpt>
      <trkpt lat="47.20052" lon="2.12454">
        <ele>104.92</ele>
        <time>2015-08-17T17:56:29Z</time>
      </trkpt>
      <trkpt lat="47.20049" lon="2.12449">
        <ele>105.4</ele>
        <time>2015-08-17T17:56:30Z</time>
      </trkpt>
      <trkpt lat="47.20048" lon="2.12443">
        <ele>105.4</ele>
        <time>2015-08-17T17:56:31Z</time>
      </trkpt>
      <trkpt lat="47.20055" lon="2.12393">
        <ele>106.36</ele>
        <time>2015-08-17T17:56:39Z</time>
      </trkpt>
      <trkpt lat="47.20053" lon="2.12322">
        <ele>108.29</ele>
        <time>2015-08-17T17:56:51Z</time>
      </trkpt>
      <trkpt lat="47.2005" lon="2.12267">
        <ele>109.73</ele>
        <time>2015-08-17T17:57:02Z</time>
      </trkpt>
      <trkpt lat="47.20045" lon="2.12235">
        <ele>110.21</ele>
        <time>2015-08-17T17:57:13Z</time>
      </trkpt>
      <trkpt lat="47.20045" lon="2.12229">
        <ele>110.21</ele>
        <time>2015-08-17T17:57:14Z</time>
      </trkpt>
      <trkpt lat="47.20044" lon="2.12223">
        <ele>110.21</ele>
        <time>2015-08-17T17:57:15Z</time>
      </trkpt>
      <trkpt lat="47.20043" lon="2.12217">
        <ele>110.21</ele>
        <time>2015-08-17T17:57:16Z</time>
      </trkpt>
      <trkpt lat="47.20041" lon="2.1221">
        <ele>110.21</ele>
        <time>2015-08-17T17:57:17Z</time>
      </trkpt>
      <trkpt lat="47.2004" lon="2.12204">
        <ele>110.69</ele>
        <time>2015-08-17T17:57:18Z</time>
      </trkpt>
      <trkpt lat="47.20038" lon="2.12198">
        <ele>111.17</ele>
        <time>2015-08-17T17:57:19Z</time>
      </trkpt>
      <trkpt lat="47.20037" lon="2.12192">
        <ele>111.17</ele>
        <time>2015-08-17T17:57:20Z</time>
      </trkpt>
      <trkpt lat="47.20022" lon="2.1215">
        <ele>112.13</ele>
        <time>2015-08-17T17:57:27Z</time>
      </trkpt>
      <trkpt lat="47.2002" lon="2.12144">
        <ele>112.13</ele>
        <time>2015-08-17T17:57:28Z</time>
      </trkpt>
      <trkpt lat="47.20005" lon="2.12118">
        <ele>112.61</ele>
        <time>2015-08-17T17:57:34Z</time>
      </trkpt>
      <trkpt lat="47.19968" lon="2.1207">
        <ele>113.57</ele>
        <time>2015-08-17T17:57:49Z</time>
      </trkpt>
      <trkpt lat="47.19933" lon="2.1204">
        <ele>114.05</ele>
        <time>2015-08-17T17:58:05Z</time>
      </trkpt>
      <trkpt lat="47.19931" lon="2.12039">
        <ele>114.05</ele>
        <time>2015-08-17T17:58:06Z</time>
      </trkpt>
      <trkpt lat="47.1993" lon="2.12037">
        <ele>114.05</ele>
        <time>2015-08-17T17:58:07Z</time>
      </trkpt>
      <trkpt lat="47.19928" lon="2.12036">
        <ele>114.05</ele>
        <time>2015-08-17T17:58:08Z</time>
      </trkpt>
      <trkpt lat="47.19926" lon="2.12036">
        <ele>114.05</ele>
        <time>2015-08-17T17:58:09Z</time>
      </trkpt>
      <trkpt lat="47.19926" lon="2.12036">
        <ele>114.05</ele>
        <time>2015-08-17T17:58:34Z</time>
      </trkpt>
      <trkpt lat="47.19925" lon="2.12036">
        <ele>114.05</ele>
        <time>2015-08-17T17:58:48Z</time>
      </trkpt>
      <trkpt lat="47.19908" lon="2.12052">
        <ele>114.05</ele>
        <time>2015-08-17T17:58:57Z</time>
      </trkpt>
      <trkpt lat="47.1987" lon="2.12104">
        <ele>113.57</ele>
        <time>2015-08-17T17:59:15Z</time>
      </trkpt>
      <trkpt lat="47.19834" lon="2.12157">
        <ele>113.57</ele>
        <time>2015-08-17T17:59:32Z</time>
      </trkpt>
      <trkpt lat="47.19802" lon="2.12204">
        <ele>113.57</ele>
        <time>2015-08-17T17:59:48Z</time>
      </trkpt>
      <trkpt lat="47.19772" lon="2.12249">
        <ele>113.09</ele>
        <time>2015-08-17T18:00:03Z</time>
      </trkpt>
      <trkpt lat="47.19742" lon="2.12292">
        <ele>112.61</ele>
        <time>2015-08-17T18:00:18Z</time>
      </trkpt>
      <trkpt lat="47.19714" lon="2.12335">
        <ele>110.69</ele>
        <time>2015-08-17T18:00:33Z</time>
      </trkpt>
      <trkpt lat="47.19688" lon="2.12371">
        <ele>109.73</ele>
        <time>2015-08-17T18:00:46Z</time>
      </trkpt>
      <trkpt lat="47.19663" lon="2.12406">
        <ele>108.77</ele>
        <time>2015-08-17T18:01:00Z</time>
      </trkpt>
      <trkpt lat="47.19662" lon="2.12408">
        <ele>108.77</ele>
        <time>2015-08-17T18:01:01Z</time>
      </trkpt>
      <trkpt lat="47.1966" lon="2.12409">
        <ele>108.77</ele>
        <time>2015-08-17T18:01:02Z</time>
      </trkpt>
      <trkpt lat="47.19659" lon="2.12411">
        <ele>109.25</ele>
        <time>2015-08-17T18:01:10Z</time>
      </trkpt>
      <trkpt lat="47.19659" lon="2.12411">
        <ele>112.13</ele>
        <time>2015-08-17T18:01:11Z</time>
      </trkpt>
      <trkpt lat="47.19659" lon="2.12411">
        <ele>108.77</ele>
        <time>2015-08-17T18:01:21Z</time>
      </trkpt>
      <trkpt lat="47.19655" lon="2.12416">
        <ele>108.77</ele>
        <time>2015-08-17T18:01:34Z</time>
      </trkpt>
      <trkpt lat="47.19654" lon="2.12417">
        <ele>108.77</ele>
        <time>2015-08-17T18:01:35Z</time>
      </trkpt>
      <trkpt lat="47.19653" lon="2.12418">
        <ele>108.77</ele>
        <time>2015-08-17T18:01:36Z</time>
      </trkpt>
      <trkpt lat="47.19652" lon="2.1242">
        <ele>108.77</ele>
        <time>2015-08-17T18:01:37Z</time>
      </trkpt>
      <trkpt lat="47.19651" lon="2.12421">
        <ele>108.77</ele>
        <time>2015-08-17T18:01:38Z</time>
      </trkpt>
      <trkpt lat="47.1965" lon="2.12422">
        <ele>108.77</ele>
        <time>2015-08-17T18:01:39Z</time>
      </trkpt>
      <trkpt lat="47.19628" lon="2.12455">
        <ele>108.77</ele>
        <time>2015-08-17T18:01:54Z</time>
      </trkpt>
      <trkpt lat="47.19591" lon="2.12508">
        <ele>109.25</ele>
        <time>2015-08-17T18:02:09Z</time>
      </trkpt>
      <trkpt lat="47.19575" lon="2.12532">
        <ele>109.25</ele>
        <time>2015-08-17T18:02:14Z</time>
      </trkpt>
      <trkpt lat="47.19513" lon="2.12622">
        <ele>110.21</ele>
        <time>2015-08-17T18:02:29Z</time>
      </trkpt>
      <trkpt lat="47.19435" lon="2.12733">
        <ele>113.09</ele>
        <time>2015-08-17T18:02:44Z</time>
      </trkpt>
      <trkpt lat="47.19364" lon="2.12835">
        <ele>116.46</ele>
        <time>2015-08-17T18:02:59Z</time>
      </trkpt>
      <trkpt lat="47.19319" lon="2.12898">
        <ele>119.82</ele>
        <time>2015-08-17T18:03:10Z</time>
      </trkpt>
      <trkpt lat="47.19313" lon="2.12907">
        <ele>119.82</ele>
        <time>2015-08-17T18:03:12Z</time>
      </trkpt>
      <trkpt lat="47.19285" lon="2.12948">
        <ele>120.78</ele>
        <time>2015-08-17T18:03:26Z</time>
      </trkpt>
      <trkpt lat="47.1928" lon="2.12953">
        <ele>120.78</ele>
        <time>2015-08-17T18:03:47Z</time>
      </trkpt>
      <trkpt lat="47.1928" lon="2.12953">
        <ele>120.78</ele>
        <time>2015-08-17T18:04:12Z</time>
      </trkpt>
      <trkpt lat="47.1927" lon="2.1297">
        <ele>121.26</ele>
        <time>2015-08-17T18:04:28Z</time>
      </trkpt>
      <trkpt lat="47.19269" lon="2.12971">
        <ele>121.74</ele>
        <time>2015-08-17T18:04:29Z</time>
      </trkpt>
      <trkpt lat="47.19268" lon="2.12972">
        <ele>121.74</ele>
        <time>2015-08-17T18:04:30Z</time>
      </trkpt>
      <trkpt lat="47.19267" lon="2.12973">
        <ele>121.26</ele>
        <time>2015-08-17T18:04:31Z</time>
      </trkpt>
      <trkpt lat="47.19266" lon="2.12974">
        <ele>121.74</ele>
        <time>2015-08-17T18:04:32Z</time>
      </trkpt>
      <trkpt lat="47.19265" lon="2.12976">
        <ele>121.26</ele>
        <time>2015-08-17T18:04:33Z</time>
      </trkpt>
      <trkpt lat="47.19254" lon="2.12994">
        <ele>121.74</ele>
        <time>2015-08-17T18:04:44Z</time>
      </trkpt>
      <trkpt lat="47.19233" lon="2.13022">
        <ele>122.22</ele>
        <time>2015-08-17T18:05:00Z</time>
      </trkpt>
      <trkpt lat="47.19209" lon="2.13063">
        <ele>122.71</ele>
        <time>2015-08-17T18:05:14Z</time>
      </trkpt>
      <trkpt lat="47.19195" lon="2.13128">
        <ele>123.19</ele>
        <time>2015-08-17T18:05:29Z</time>
      </trkpt>
      <trkpt lat="47.19169" lon="2.13189">
        <ele>123.67</ele>
        <time>2015-08-17T18:05:43Z</time>
      </trkpt>
      <trkpt lat="47.19127" lon="2.13231">
        <ele>123.67</ele>
        <time>2015-08-17T18:05:57Z</time>
      </trkpt>
      <trkpt lat="47.19101" lon="2.13283">
        <ele>122.71</ele>
        <time>2015-08-17T18:06:10Z</time>
      </trkpt>
      <trkpt lat="47.19082" lon="2.13334">
        <ele>123.19</ele>
        <time>2015-08-17T18:06:23Z</time>
      </trkpt>
      <trkpt lat="47.19081" lon="2.13337">
        <ele>123.19</ele>
        <time>2015-08-17T18:06:24Z</time>
      </trkpt>
      <trkpt lat="47.1908" lon="2.1334">
        <ele>123.19</ele>
        <time>2015-08-17T18:06:25Z</time>
      </trkpt>
      <trkpt lat="47.19051" lon="2.13397">
        <ele>122.71</ele>
        <time>2015-08-17T18:06:43Z</time>
      </trkpt>
      <trkpt lat="47.19036" lon="2.1343">
        <ele>122.22</ele>
        <time>2015-08-17T18:06:56Z</time>
      </trkpt>
      <trkpt lat="47.19016" lon="2.13483">
        <ele>122.22</ele>
        <time>2015-08-17T18:07:11Z</time>
      </trkpt>
      <trkpt lat="47.18998" lon="2.13534">
        <ele>120.78</ele>
        <time>2015-08-17T18:07:25Z</time>
      </trkpt>
      <trkpt lat="47.18975" lon="2.13613">
        <ele>119.82</ele>
        <time>2015-08-17T18:07:43Z</time>
      </trkpt>
      <trkpt lat="47.18952" lon="2.13681">
        <ele>119.82</ele>
        <time>2015-08-17T18:07:57Z</time>
      </trkpt>
      <trkpt lat="47.1891" lon="2.13759">
        <ele>120.3</ele>
        <time>2015-08-17T18:08:14Z</time>
      </trkpt>
      <trkpt lat="47.18872" lon="2.1383">
        <ele>121.74</ele>
        <time>2015-08-17T18:08:30Z</time>
      </trkpt>
      <trkpt lat="47.1884" lon="2.13912">
        <ele>121.74</ele>
        <time>2015-08-17T18:08:48Z</time>
      </trkpt>
      <trkpt lat="47.18817" lon="2.13978">
        <ele>121.74</ele>
        <time>2015-08-17T18:09:03Z</time>
      </trkpt>
      <trkpt lat="47.1879" lon="2.14058">
        <ele>121.26</ele>
        <time>2015-08-17T18:09:23Z</time>
      </trkpt>
      <trkpt lat="47.18766" lon="2.14129">
        <ele>120.3</ele>
        <time>2015-08-17T18:09:40Z</time>
      </trkpt>
      <trkpt lat="47.18731" lon="2.14219">
        <ele>119.34</ele>
        <time>2015-08-17T18:09:59Z</time>
      </trkpt>
      <trkpt lat="47.18686" lon="2.14319">
        <ele>119.34</ele>
        <time>2015-08-17T18:10:19Z</time>
      </trkpt>
      <trkpt lat="47.18639" lon="2.1442">
        <ele>119.82</ele>
        <time>2015-08-17T18:10:38Z</time>
      </trkpt>
      <trkpt lat="47.18594" lon="2.14502">
        <ele>120.3</ele>
        <time>2015-08-17T18:10:55Z</time>
      </trkpt>
      <trkpt lat="47.18566" lon="2.1455">
        <ele>120.78</ele>
        <time>2015-08-17T18:11:06Z</time>
      </trkpt>
      <trkpt lat="47.18536" lon="2.14604">
        <ele>121.74</ele>
        <time>2015-08-17T18:11:20Z</time>
      </trkpt>
      <trkpt lat="47.18492" lon="2.14681">
        <ele>120.78</ele>
        <time>2015-08-17T18:11:40Z</time>
      </trkpt>
      <trkpt lat="47.18454" lon="2.14761">
        <ele>120.3</ele>
        <time>2015-08-17T18:11:59Z</time>
      </trkpt>
      <trkpt lat="47.18422" lon="2.14825">
        <ele>119.34</ele>
        <time>2015-08-17T18:12:15Z</time>
      </trkpt>
      <trkpt lat="47.18399" lon="2.14875">
        <ele>118.86</ele>
        <time>2015-08-17T18:12:28Z</time>
      </trkpt>
      <trkpt lat="47.18371" lon="2.1493">
        <ele>118.38</ele>
        <time>2015-08-17T18:12:43Z</time>
      </trkpt>
      <trkpt lat="47.18342" lon="2.14973">
        <ele>117.42</ele>
        <time>2015-08-17T18:12:57Z</time>
      </trkpt>
      <trkpt lat="47.18294" lon="2.15027">
        <ele>116.94</ele>
        <time>2015-08-17T18:13:16Z</time>
      </trkpt>
      <trkpt lat="47.18255" lon="2.15069">
        <ele>116.46</ele>
        <time>2015-08-17T18:13:32Z</time>
      </trkpt>
      <trkpt lat="47.1822" lon="2.15113">
        <ele>116.46</ele>
        <time>2015-08-17T18:13:46Z</time>
      </trkpt>
      <trkpt lat="47.18193" lon="2.15146">
        <ele>116.94</ele>
        <time>2015-08-17T18:13:58Z</time>
      </trkpt>
      <trkpt lat="47.18161" lon="2.15178">
        <ele>117.42</ele>
        <time>2015-08-17T18:14:15Z</time>
      </trkpt>
      <trkpt lat="47.18132" lon="2.15209">
        <ele>116.94</ele>
        <time>2015-08-17T18:14:32Z</time>
      </trkpt>
      <trkpt lat="47.18118" lon="2.15214">
        <ele>116.94</ele>
        <time>2015-08-17T18:14:43Z</time>
      </trkpt>
      <trkpt lat="47.18116" lon="2.152">
        <ele>116.94</ele>
        <time>2015-08-17T18:14:51Z</time>
      </trkpt>
      <trkpt lat="47.18113" lon="2.15192">
        <ele>116.46</ele>
        <time>2015-08-17T18:14:56Z</time>
      </trkpt>
      <trkpt lat="47.18112" lon="2.15188">
        <ele>116.94</ele>
        <time>2015-08-17T18:15:07Z</time>
      </trkpt>
      <trkpt lat="47.18113" lon="2.15188">
        <ele>116.46</ele>
        <time>2015-08-17T18:15:32Z</time>
      </trkpt>
      <trkpt lat="47.18115" lon="2.15186">
        <ele>116.46</ele>
        <time>2015-08-17T18:15:46Z</time>
      </trkpt>
      <trkpt lat="47.18115" lon="2.15186">
        <ele>116.46</ele>
        <time>2015-08-17T18:15:49Z</time>
      </trkpt>
      <trkpt lat="47.18117" lon="2.15186">
        <ele>116.94</ele>
        <time>2015-08-17T18:16:26Z</time>
      </trkpt>
      <trkpt lat="47.18117" lon="2.15189">
        <ele>116.94</ele>
        <time>2015-08-17T18:17:00Z</time>
      </trkpt>
      <trkpt lat="47.18116" lon="2.15188">
        <ele>116.94</ele>
        <time>2015-08-17T18:17:27Z</time>
      </trkpt>
      <trkpt lat="47.18116" lon="2.15186">
        <ele>116.94</ele>
        <time>2015-08-17T18:17:55Z</time>
      </trkpt>
      <trkpt lat="47.18116" lon="2.15185">
        <ele>116.94</ele>
        <time>2015-08-17T18:18:26Z</time>
      </trkpt>
      <trkpt lat="47.18114" lon="2.15185">
        <ele>116.94</ele>
        <time>2015-08-17T18:19:00Z</time>
      </trkpt>
      <trkpt lat="47.18115" lon="2.15186">
        <ele>116.94</ele>
        <time>2015-08-17T18:19:23Z</time>
      </trkpt>
      <trkpt lat="47.18113" lon="2.15197">
        <ele>116.94</ele>
        <time>2015-08-17T18:19:37Z</time>
      </trkpt>
      <trkpt lat="47.18113" lon="2.15202">
        <ele>116.94</ele>
        <time>2015-08-17T18:19:40Z</time>
      </trkpt>
      <trkpt lat="47.18117" lon="2.15218">
        <ele>117.42</ele>
        <time>2015-08-17T18:19:46Z</time>
      </trkpt>
      <trkpt lat="47.18114" lon="2.15224">
        <ele>117.42</ele>
        <time>2015-08-17T18:19:49Z</time>
      </trkpt>
      <trkpt lat="47.1808" lon="2.15254">
        <ele>117.9</ele>
        <time>2015-08-17T18:20:01Z</time>
      </trkpt>
      <trkpt lat="47.18036" lon="2.15286">
        <ele>117.9</ele>
        <time>2015-08-17T18:20:12Z</time>
      </trkpt>
      <trkpt lat="47.17971" lon="2.15333">
        <ele>117.42</ele>
        <time>2015-08-17T18:20:28Z</time>
      </trkpt>
      <trkpt lat="47.17899" lon="2.15387">
        <ele>118.38</ele>
        <time>2015-08-17T18:20:46Z</time>
      </trkpt>
      <trkpt lat="47.17895" lon="2.1539">
        <ele>118.38</ele>
        <time>2015-08-17T18:20:47Z</time>
      </trkpt>
      <trkpt lat="47.17883" lon="2.15398">
        <ele>117.9</ele>
        <time>2015-08-17T18:20:50Z</time>
      </trkpt>
      <trkpt lat="47.17834" lon="2.15436">
        <ele>118.38</ele>
        <time>2015-08-17T18:21:04Z</time>
      </trkpt>
      <trkpt lat="47.17787" lon="2.15471">
        <ele>119.34</ele>
        <time>2015-08-17T18:21:18Z</time>
      </trkpt>
      <trkpt lat="47.17783" lon="2.15474">
        <ele>119.82</ele>
        <time>2015-08-17T18:21:19Z</time>
      </trkpt>
      <trkpt lat="47.17757" lon="2.15491">
        <ele>120.3</ele>
        <time>2015-08-17T18:21:24Z</time>
      </trkpt>
      <trkpt lat="47.17685" lon="2.15547">
        <ele>122.71</ele>
        <time>2015-08-17T18:21:40Z</time>
      </trkpt>
      <trkpt lat="47.17681" lon="2.15549">
        <ele>122.71</ele>
        <time>2015-08-17T18:21:41Z</time>
      </trkpt>
      <trkpt lat="47.17677" lon="2.15553">
        <ele>123.19</ele>
        <time>2015-08-17T18:21:42Z</time>
      </trkpt>
      <trkpt lat="47.17673" lon="2.15557">
        <ele>123.19</ele>
        <time>2015-08-17T18:21:43Z</time>
      </trkpt>
      <trkpt lat="47.1767" lon="2.15561">
        <ele>124.15</ele>
        <time>2015-08-17T18:21:44Z</time>
      </trkpt>
      <trkpt lat="47.17666" lon="2.15563">
        <ele>124.63</ele>
        <time>2015-08-17T18:21:45Z</time>
      </trkpt>
      <trkpt lat="47.17662" lon="2.15566">
        <ele>126.55</ele>
        <time>2015-08-17T18:21:46Z</time>
      </trkpt>
      <trkpt lat="47.17658" lon="2.15569">
        <ele>127.03</ele>
        <time>2015-08-17T18:21:47Z</time>
      </trkpt>
      <trkpt lat="47.17654" lon="2.15573">
        <ele>125.11</ele>
        <time>2015-08-17T18:21:48Z</time>
      </trkpt>
      <trkpt lat="47.1765" lon="2.15577">
        <ele>124.15</ele>
        <time>2015-08-17T18:21:49Z</time>
      </trkpt>
      <trkpt lat="47.17642" lon="2.15584">
        <ele>123.67</ele>
        <time>2015-08-17T18:21:51Z</time>
      </trkpt>
      <trkpt lat="47.17621" lon="2.15603">
        <ele>124.15</ele>
        <time>2015-08-17T18:21:56Z</time>
      </trkpt>
      <trkpt lat="47.17617" lon="2.15607">
        <ele>124.63</ele>
        <time>2015-08-17T18:21:57Z</time>
      </trkpt>
      <trkpt lat="47.17613" lon="2.1561">
        <ele>124.15</ele>
        <time>2015-08-17T18:21:58Z</time>
      </trkpt>
      <trkpt lat="47.17553" lon="2.15664">
        <ele>125.59</ele>
        <time>2015-08-17T18:22:12Z</time>
      </trkpt>
      <trkpt lat="47.17509" lon="2.15702">
        <ele>126.55</ele>
        <time>2015-08-17T18:22:25Z</time>
      </trkpt>
      <trkpt lat="47.1748" lon="2.15726">
        <ele>126.07</ele>
        <time>2015-08-17T18:22:39Z</time>
      </trkpt>
      <trkpt lat="47.17446" lon="2.15754">
        <ele>126.07</ele>
        <time>2015-08-17T18:22:55Z</time>
      </trkpt>
      <trkpt lat="47.17426" lon="2.1577">
        <ele>126.07</ele>
        <time>2015-08-17T18:23:08Z</time>
      </trkpt>
      <trkpt lat="47.17424" lon="2.15771">
        <ele>126.55</ele>
        <time>2015-08-17T18:23:09Z</time>
      </trkpt>
      <trkpt lat="47.17422" lon="2.15772">
        <ele>126.07</ele>
        <time>2015-08-17T18:23:10Z</time>
      </trkpt>
      <trkpt lat="47.1742" lon="2.15773">
        <ele>126.07</ele>
        <time>2015-08-17T18:23:11Z</time>
      </trkpt>
      <trkpt lat="47.17418" lon="2.15774">
        <ele>126.07</ele>
        <time>2015-08-17T18:23:12Z</time>
      </trkpt>
      <trkpt lat="47.17416" lon="2.15775">
        <ele>126.07</ele>
        <time>2015-08-17T18:23:13Z</time>
      </trkpt>
      <trkpt lat="47.17414" lon="2.15777">
        <ele>126.07</ele>
        <time>2015-08-17T18:23:14Z</time>
      </trkpt>
      <trkpt lat="47.1739" lon="2.15796">
        <ele>125.59</ele>
        <time>2015-08-17T18:23:28Z</time>
      </trkpt>
      <trkpt lat="47.17389" lon="2.15797">
        <ele>125.59</ele>
        <time>2015-08-17T18:23:29Z</time>
      </trkpt>
      <trkpt lat="47.17388" lon="2.15799">
        <ele>125.59</ele>
        <time>2015-08-17T18:23:30Z</time>
      </trkpt>
      <trkpt lat="47.17378" lon="2.15807">
        <ele>125.59</ele>
        <time>2015-08-17T18:23:35Z</time>
      </trkpt>
      <trkpt lat="47.17376" lon="2.15808">
        <ele>125.59</ele>
        <time>2015-08-17T18:23:36Z</time>
      </trkpt>
      <trkpt lat="47.17375" lon="2.1581">
        <ele>125.59</ele>
        <time>2015-08-17T18:23:37Z</time>
      </trkpt>
      <trkpt lat="47.17373" lon="2.15812">
        <ele>125.11</ele>
        <time>2015-08-17T18:23:38Z</time>
      </trkpt>
      <trkpt lat="47.17372" lon="2.15815">
        <ele>125.59</ele>
        <time>2015-08-17T18:23:39Z</time>
      </trkpt>
      <trkpt lat="47.17371" lon="2.15818">
        <ele>125.11</ele>
        <time>2015-08-17T18:23:40Z</time>
      </trkpt>
      <trkpt lat="47.17369" lon="2.15819">
        <ele>125.59</ele>
        <time>2015-08-17T18:23:41Z</time>
      </trkpt>
      <trkpt lat="47.17366" lon="2.15821">
        <ele>125.59</ele>
        <time>2015-08-17T18:23:42Z</time>
      </trkpt>
      <trkpt lat="47.17364" lon="2.15822">
        <ele>125.59</ele>
        <time>2015-08-17T18:23:43Z</time>
      </trkpt>
      <trkpt lat="47.17362" lon="2.15824">
        <ele>125.59</ele>
        <time>2015-08-17T18:23:44Z</time>
      </trkpt>
      <trkpt lat="47.17359" lon="2.15826">
        <ele>125.11</ele>
        <time>2015-08-17T18:23:45Z</time>
      </trkpt>
      <trkpt lat="47.17357" lon="2.15828">
        <ele>125.59</ele>
        <time>2015-08-17T18:23:46Z</time>
      </trkpt>
      <trkpt lat="47.17355" lon="2.1583">
        <ele>125.11</ele>
        <time>2015-08-17T18:23:47Z</time>
      </trkpt>
      <trkpt lat="47.17354" lon="2.15833">
        <ele>125.11</ele>
        <time>2015-08-17T18:23:48Z</time>
      </trkpt>
      <trkpt lat="47.17352" lon="2.15836">
        <ele>125.11</ele>
        <time>2015-08-17T18:23:49Z</time>
      </trkpt>
      <trkpt lat="47.17351" lon="2.15838">
        <ele>125.11</ele>
        <time>2015-08-17T18:23:50Z</time>
      </trkpt>
      <trkpt lat="47.1735" lon="2.15841">
        <ele>125.11</ele>
        <time>2015-08-17T18:23:51Z</time>
      </trkpt>
      <trkpt lat="47.1735" lon="2.15844">
        <ele>124.63</ele>
        <time>2015-08-17T18:23:52Z</time>
      </trkpt>
      <trkpt lat="47.17377" lon="2.15887">
        <ele>124.63</ele>
        <time>2015-08-17T18:24:06Z</time>
      </trkpt>
      <trkpt lat="47.17408" lon="2.15932">
        <ele>124.63</ele>
        <time>2015-08-17T18:24:20Z</time>
      </trkpt>
      <trkpt lat="47.17436" lon="2.15972">
        <ele>124.63</ele>
        <time>2015-08-17T18:24:33Z</time>
      </trkpt>
      <trkpt lat="47.1744" lon="2.15978">
        <ele>125.59</ele>
        <time>2015-08-17T18:24:35Z</time>
      </trkpt>
      <trkpt lat="47.1745" lon="2.15994">
        <ele>123.67</ele>
        <time>2015-08-17T18:24:41Z</time>
      </trkpt>
      <trkpt lat="47.1748" lon="2.16038">
        <ele>122.22</ele>
        <time>2015-08-17T18:24:57Z</time>
      </trkpt>
      <trkpt lat="47.17505" lon="2.16074">
        <ele>121.26</ele>
        <time>2015-08-17T18:25:10Z</time>
      </trkpt>
      <trkpt lat="47.17535" lon="2.16117">
        <ele>120.3</ele>
        <time>2015-08-17T18:25:25Z</time>
      </trkpt>
      <trkpt lat="47.17571" lon="2.1616">
        <ele>118.86</ele>
        <time>2015-08-17T18:25:41Z</time>
      </trkpt>
      <trkpt lat="47.17606" lon="2.16195">
        <ele>117.9</ele>
        <time>2015-08-17T18:25:56Z</time>
      </trkpt>
      <trkpt lat="47.17646" lon="2.16241">
        <ele>117.42</ele>
        <time>2015-08-17T18:26:12Z</time>
      </trkpt>
      <trkpt lat="47.17677" lon="2.16268">
        <ele>117.42</ele>
        <time>2015-08-17T18:26:24Z</time>
      </trkpt>
      <trkpt lat="47.1768" lon="2.16269">
        <ele>117.42</ele>
        <time>2015-08-17T18:26:25Z</time>
      </trkpt>
      <trkpt lat="47.17683" lon="2.16272">
        <ele>117.42</ele>
        <time>2015-08-17T18:26:26Z</time>
      </trkpt>
      <trkpt lat="47.1769" lon="2.16307">
        <ele>116.94</ele>
        <time>2015-08-17T18:26:34Z</time>
      </trkpt>
      <trkpt lat="47.17711" lon="2.1637">
        <ele>116.46</ele>
        <time>2015-08-17T18:26:48Z</time>
      </trkpt>
      <trkpt lat="47.17723" lon="2.1641">
        <ele>116.46</ele>
        <time>2015-08-17T18:26:59Z</time>
      </trkpt>
      <trkpt lat="47.17723" lon="2.16459">
        <ele>115.98</ele>
        <time>2015-08-17T18:27:12Z</time>
      </trkpt>
      <trkpt lat="47.17723" lon="2.16462">
        <ele>115.98</ele>
        <time>2015-08-17T18:27:13Z</time>
      </trkpt>
      <trkpt lat="47.17723" lon="2.16464">
        <ele>115.98</ele>
        <time>2015-08-17T18:27:14Z</time>
      </trkpt>
      <trkpt lat="47.17722" lon="2.16467">
        <ele>115.98</ele>
        <time>2015-08-17T18:27:15Z</time>
      </trkpt>
      <trkpt lat="47.17722" lon="2.1647">
        <ele>115.98</ele>
        <time>2015-08-17T18:27:16Z</time>
      </trkpt>
      <trkpt lat="47.17721" lon="2.16473">
        <ele>115.98</ele>
        <time>2015-08-17T18:27:17Z</time>
      </trkpt>
      <trkpt lat="47.17721" lon="2.16476">
        <ele>115.98</ele>
        <time>2015-08-17T18:27:18Z</time>
      </trkpt>
      <trkpt lat="47.1772" lon="2.16478">
        <ele>115.98</ele>
        <time>2015-08-17T18:27:19Z</time>
      </trkpt>
      <trkpt lat="47.17718" lon="2.16481">
        <ele>115.98</ele>
        <time>2015-08-17T18:27:20Z</time>
      </trkpt>
      <trkpt lat="47.17715" lon="2.16482">
        <ele>115.98</ele>
        <time>2015-08-17T18:27:21Z</time>
      </trkpt>
      <trkpt lat="47.17712" lon="2.16482">
        <ele>115.98</ele>
        <time>2015-08-17T18:27:22Z</time>
      </trkpt>
      <trkpt lat="47.17709" lon="2.16481">
        <ele>115.98</ele>
        <time>2015-08-17T18:27:23Z</time>
      </trkpt>
      <trkpt lat="47.17707" lon="2.1648">
        <ele>115.98</ele>
        <time>2015-08-17T18:27:24Z</time>
      </trkpt>
      <trkpt lat="47.17705" lon="2.16478">
        <ele>115.98</ele>
        <time>2015-08-17T18:27:25Z</time>
      </trkpt>
      <trkpt lat="47.17702" lon="2.16475">
        <ele>116.46</ele>
        <time>2015-08-17T18:27:26Z</time>
      </trkpt>
      <trkpt lat="47.17699" lon="2.16473">
        <ele>116.46</ele>
        <time>2015-08-17T18:27:27Z</time>
      </trkpt>
      <trkpt lat="47.17697" lon="2.16473">
        <ele>116.46</ele>
        <time>2015-08-17T18:27:28Z</time>
      </trkpt>
      <trkpt lat="47.17674" lon="2.16506">
        <ele>116.46</ele>
        <time>2015-08-17T18:27:39Z</time>
      </trkpt>
      <trkpt lat="47.17684" lon="2.16541">
        <ele>115.5</ele>
        <time>2015-08-17T18:27:50Z</time>
      </trkpt>
      <trkpt lat="47.17715" lon="2.16574">
        <ele>114.53</ele>
        <time>2015-08-17T18:28:04Z</time>
      </trkpt>
      <trkpt lat="47.17717" lon="2.16575">
        <ele>114.05</ele>
        <time>2015-08-17T18:28:05Z</time>
      </trkpt>
      <trkpt lat="47.17719" lon="2.16575">
        <ele>114.05</ele>
        <time>2015-08-17T18:28:06Z</time>
      </trkpt>
      <trkpt lat="47.1772" lon="2.16577">
        <ele>114.53</ele>
        <time>2015-08-17T18:28:07Z</time>
      </trkpt>
      <trkpt lat="47.17722" lon="2.16579">
        <ele>114.05</ele>
        <time>2015-08-17T18:28:08Z</time>
      </trkpt>
      <trkpt lat="47.17721" lon="2.16598">
        <ele>114.05</ele>
        <time>2015-08-17T18:28:13Z</time>
      </trkpt>
      <trkpt lat="47.17707" lon="2.16661">
        <ele>113.09</ele>
        <time>2015-08-17T18:28:29Z</time>
      </trkpt>
      <trkpt lat="47.17706" lon="2.16664">
        <ele>113.09</ele>
        <time>2015-08-17T18:28:30Z</time>
      </trkpt>
      <trkpt lat="47.17705" lon="2.16666">
        <ele>113.57</ele>
        <time>2015-08-17T18:28:31Z</time>
      </trkpt>
      <trkpt lat="47.17706" lon="2.16671">
        <ele>113.57</ele>
        <time>2015-08-17T18:28:56Z</time>
      </trkpt>
      <trkpt lat="47.17709" lon="2.16673">
        <ele>113.57</ele>
        <time>2015-08-17T18:29:15Z</time>
      </trkpt>
      <trkpt lat="47.17731" lon="2.16725">
        <ele>112.61</ele>
        <time>2015-08-17T18:29:30Z</time>
      </trkpt>
      <trkpt lat="47.17726" lon="2.16789">
        <ele>112.61</ele>
        <time>2015-08-17T18:29:43Z</time>
      </trkpt>
      <trkpt lat="47.17736" lon="2.16845">
        <ele>112.13</ele>
        <time>2015-08-17T18:29:57Z</time>
      </trkpt>
      <trkpt lat="47.17748" lon="2.16888">
        <ele>111.65</ele>
        <time>2015-08-17T18:30:11Z</time>
      </trkpt>
      <trkpt lat="47.1778" lon="2.16918">
        <ele>110.21</ele>
        <time>2015-08-17T18:30:26Z</time>
      </trkpt>
      <trkpt lat="47.17813" lon="2.16947">
        <ele>109.25</ele>
        <time>2015-08-17T18:30:40Z</time>
      </trkpt>
      <trkpt lat="47.17815" lon="2.1695">
        <ele>109.25</ele>
        <time>2015-08-17T18:30:41Z</time>
      </trkpt>
      <trkpt lat="47.17817" lon="2.16953">
        <ele>109.25</ele>
        <time>2015-08-17T18:30:42Z</time>
      </trkpt>
      <trkpt lat="47.17819" lon="2.16956">
        <ele>109.25</ele>
        <time>2015-08-17T18:30:43Z</time>
      </trkpt>
      <trkpt lat="47.17821" lon="2.16959">
        <ele>109.25</ele>
        <time>2015-08-17T18:30:44Z</time>
      </trkpt>
      <trkpt lat="47.17822" lon="2.16962">
        <ele>109.25</ele>
        <time>2015-08-17T18:30:45Z</time>
      </trkpt>
      <trkpt lat="47.17821" lon="2.16986">
        <ele>108.77</ele>
        <time>2015-08-17T18:30:52Z</time>
      </trkpt>
      <trkpt lat="47.17829" lon="2.1704">
        <ele>109.25</ele>
        <time>2015-08-17T18:31:06Z</time>
      </trkpt>
      <trkpt lat="47.17838" lon="2.17083">
        <ele>108.77</ele>
        <time>2015-08-17T18:31:19Z</time>
      </trkpt>
      <trkpt lat="47.17842" lon="2.17101">
        <ele>108.77</ele>
        <time>2015-08-17T18:31:31Z</time>
      </trkpt>
      <trkpt lat="47.17854" lon="2.17127">
        <ele>109.25</ele>
        <time>2015-08-17T18:31:43Z</time>
      </trkpt>
      <trkpt lat="47.17866" lon="2.17159">
        <ele>110.21</ele>
        <time>2015-08-17T18:31:53Z</time>
      </trkpt>
      <trkpt lat="47.17866" lon="2.17162">
        <ele>110.69</ele>
        <time>2015-08-17T18:31:54Z</time>
      </trkpt>
      <trkpt lat="47.17867" lon="2.17167">
        <ele>110.69</ele>
        <time>2015-08-17T18:31:56Z</time>
      </trkpt>
      <trkpt lat="47.17868" lon="2.1717">
        <ele>110.69</ele>
        <time>2015-08-17T18:31:57Z</time>
      </trkpt>
      <trkpt lat="47.17869" lon="2.17172">
        <ele>110.69</ele>
        <time>2015-08-17T18:31:58Z</time>
      </trkpt>
      <trkpt lat="47.17869" lon="2.17174">
        <ele>110.69</ele>
        <time>2015-08-17T18:31:59Z</time>
      </trkpt>
      <trkpt lat="47.1787" lon="2.17175">
        <ele>110.69</ele>
        <time>2015-08-17T18:32:00Z</time>
      </trkpt>
      <trkpt lat="47.17871" lon="2.17177">
        <ele>110.69</ele>
        <time>2015-08-17T18:32:01Z</time>
      </trkpt>
      <trkpt lat="47.17871" lon="2.17179">
        <ele>110.69</ele>
        <time>2015-08-17T18:32:16Z</time>
      </trkpt>
      <trkpt lat="47.17868" lon="2.17184">
        <ele>110.69</ele>
        <time>2015-08-17T18:32:27Z</time>
      </trkpt>
      <trkpt lat="47.17844" lon="2.17209">
        <ele>110.21</ele>
        <time>2015-08-17T18:32:42Z</time>
      </trkpt>
      <trkpt lat="47.17819" lon="2.17235">
        <ele>110.21</ele>
        <time>2015-08-17T18:32:56Z</time>
      </trkpt>
      <trkpt lat="47.1779" lon="2.17263">
        <ele>110.21</ele>
        <time>2015-08-17T18:33:12Z</time>
      </trkpt>
      <trkpt lat="47.17764" lon="2.17289">
        <ele>110.21</ele>
        <time>2015-08-17T18:33:26Z</time>
      </trkpt>
      <trkpt lat="47.17737" lon="2.17311">
        <ele>110.21</ele>
        <time>2015-08-17T18:33:41Z</time>
      </trkpt>
      <trkpt lat="47.17708" lon="2.17338">
        <ele>110.21</ele>
        <time>2015-08-17T18:33:57Z</time>
      </trkpt>
      <trkpt lat="47.17679" lon="2.17368">
        <ele>110.21</ele>
        <time>2015-08-17T18:34:13Z</time>
      </trkpt>
      <trkpt lat="47.17655" lon="2.17391">
        <ele>110.69</ele>
        <time>2015-08-17T18:34:26Z</time>
      </trkpt>
      <trkpt lat="47.17635" lon="2.17409">
        <ele>110.69</ele>
        <time>2015-08-17T18:34:38Z</time>
      </trkpt>
      <trkpt lat="47.17612" lon="2.17431">
        <ele>110.21</ele>
        <time>2015-08-17T18:34:51Z</time>
      </trkpt>
      <trkpt lat="47.176" lon="2.17444">
        <ele>110.69</ele>
        <time>2015-08-17T18:35:03Z</time>
      </trkpt>
      <trkpt lat="47.17594" lon="2.17449">
        <ele>110.69</ele>
        <time>2015-08-17T18:35:14Z</time>
      </trkpt>
      <trkpt lat="47.1757" lon="2.17473">
        <ele>110.69</ele>
        <time>2015-08-17T18:35:28Z</time>
      </trkpt>
      <trkpt lat="47.17542" lon="2.17499">
        <ele>110.69</ele>
        <time>2015-08-17T18:35:44Z</time>
      </trkpt>
      <trkpt lat="47.17513" lon="2.17527">
        <ele>110.69</ele>
        <time>2015-08-17T18:36:00Z</time>
      </trkpt>
      <trkpt lat="47.17481" lon="2.17556">
        <ele>110.69</ele>
        <time>2015-08-17T18:36:16Z</time>
      </trkpt>
      <trkpt lat="47.17451" lon="2.17586">
        <ele>110.69</ele>
        <time>2015-08-17T18:36:31Z</time>
      </trkpt>
      <trkpt lat="47.17417" lon="2.17621">
        <ele>110.69</ele>
        <time>2015-08-17T18:36:48Z</time>
      </trkpt>
      <trkpt lat="47.17396" lon="2.17642">
        <ele>110.69</ele>
        <time>2015-08-17T18:37:00Z</time>
      </trkpt>
      <trkpt lat="47.17371" lon="2.17665">
        <ele>111.17</ele>
        <time>2015-08-17T18:37:14Z</time>
      </trkpt>
      <trkpt lat="47.17343" lon="2.17695">
        <ele>111.17</ele>
        <time>2015-08-17T18:37:29Z</time>
      </trkpt>
      <trkpt lat="47.17318" lon="2.17721">
        <ele>111.17</ele>
        <time>2015-08-17T18:37:43Z</time>
      </trkpt>
      <trkpt lat="47.17292" lon="2.17745">
        <ele>111.17</ele>
        <time>2015-08-17T18:37:57Z</time>
      </trkpt>
      <trkpt lat="47.17269" lon="2.17769">
        <ele>111.17</ele>
        <time>2015-08-17T18:38:10Z</time>
      </trkpt>
      <trkpt lat="47.17244" lon="2.17797">
        <ele>111.17</ele>
        <time>2015-08-17T18:38:25Z</time>
      </trkpt>
      <trkpt lat="47.17222" lon="2.17814">
        <ele>111.17</ele>
        <time>2015-08-17T18:38:37Z</time>
      </trkpt>
      <trkpt lat="47.17197" lon="2.17838">
        <ele>111.17</ele>
        <time>2015-08-17T18:38:51Z</time>
      </trkpt>
      <trkpt lat="47.17169" lon="2.17865">
        <ele>111.17</ele>
        <time>2015-08-17T18:39:06Z</time>
      </trkpt>
      <trkpt lat="47.17139" lon="2.17893">
        <ele>111.17</ele>
        <time>2015-08-17T18:39:21Z</time>
      </trkpt>
      <trkpt lat="47.17112" lon="2.17918">
        <ele>111.65</ele>
        <time>2015-08-17T18:39:35Z</time>
      </trkpt>
      <trkpt lat="47.1711" lon="2.17919">
        <ele>111.17</ele>
        <time>2015-08-17T18:39:36Z</time>
      </trkpt>
      <trkpt lat="47.17108" lon="2.17921">
        <ele>111.17</ele>
        <time>2015-08-17T18:39:37Z</time>
      </trkpt>
      <trkpt lat="47.17105" lon="2.17923">
        <ele>111.17</ele>
        <time>2015-08-17T18:39:38Z</time>
      </trkpt>
      <trkpt lat="47.17103" lon="2.17924">
        <ele>111.17</ele>
        <time>2015-08-17T18:39:39Z</time>
      </trkpt>
      <trkpt lat="47.17101" lon="2.17926">
        <ele>111.17</ele>
        <time>2015-08-17T18:39:40Z</time>
      </trkpt>
      <trkpt lat="47.17097" lon="2.17931">
        <ele>111.65</ele>
        <time>2015-08-17T18:39:42Z</time>
      </trkpt>
      <trkpt lat="47.17077" lon="2.17951">
        <ele>111.17</ele>
        <time>2015-08-17T18:39:53Z</time>
      </trkpt>
      <trkpt lat="47.17051" lon="2.17976">
        <ele>111.17</ele>
        <time>2015-08-17T18:40:07Z</time>
      </trkpt>
      <trkpt lat="47.17028" lon="2.18">
        <ele>111.17</ele>
        <time>2015-08-17T18:40:21Z</time>
      </trkpt>
      <trkpt lat="47.17007" lon="2.18023">
        <ele>111.17</ele>
        <time>2015-08-17T18:40:35Z</time>
      </trkpt>
      <trkpt lat="47.17005" lon="2.18024">
        <ele>111.17</ele>
        <time>2015-08-17T18:40:36Z</time>
      </trkpt>
      <trkpt lat="47.17003" lon="2.18028">
        <ele>111.17</ele>
        <time>2015-08-17T18:40:50Z</time>
      </trkpt>
      <trkpt lat="47.17001" lon="2.18028">
        <ele>111.17</ele>
        <time>2015-08-17T18:41:16Z</time>
      </trkpt>
      <trkpt lat="47.16997" lon="2.18031">
        <ele>111.17</ele>
        <time>2015-08-17T18:41:33Z</time>
      </trkpt>
      <trkpt lat="47.16993" lon="2.18032">
        <ele>111.65</ele>
        <time>2015-08-17T18:41:47Z</time>
      </trkpt>
      <trkpt lat="47.16968" lon="2.18042">
        <ele>112.61</ele>
        <time>2015-08-17T18:42:01Z</time>
      </trkpt>
      <trkpt lat="47.16931" lon="2.18056">
        <ele>111.65</ele>
        <time>2015-08-17T18:42:16Z</time>
      </trkpt>
      <trkpt lat="47.16886" lon="2.18067">
        <ele>110.69</ele>
        <time>2015-08-17T18:42:30Z</time>
      </trkpt>
      <trkpt lat="47.16853" lon="2.18002">
        <ele>110.69</ele>
        <time>2015-08-17T18:42:44Z</time>
      </trkpt>
      <trkpt lat="47.1681" lon="2.17911">
        <ele>112.13</ele>
        <time>2015-08-17T18:43:01Z</time>
      </trkpt>
      <trkpt lat="47.16783" lon="2.17869">
        <ele>114.53</ele>
        <time>2015-08-17T18:43:12Z</time>
      </trkpt>
      <trkpt lat="47.16765" lon="2.17837">
        <ele>115.98</ele>
        <time>2015-08-17T18:43:22Z</time>
      </trkpt>
      <trkpt lat="47.16751" lon="2.17815">
        <ele>115.98</ele>
        <time>2015-08-17T18:43:27Z</time>
      </trkpt>
      <trkpt lat="47.16748" lon="2.17811">
        <ele>115.98</ele>
        <time>2015-08-17T18:43:28Z</time>
      </trkpt>
      <trkpt lat="47.16745" lon="2.17808">
        <ele>116.46</ele>
        <time>2015-08-17T18:43:29Z</time>
      </trkpt>
      <trkpt lat="47.16743" lon="2.17805">
        <ele>116.46</ele>
        <time>2015-08-17T18:43:30Z</time>
      </trkpt>
      <trkpt lat="47.16741" lon="2.17802">
        <ele>116.46</ele>
        <time>2015-08-17T18:43:31Z</time>
      </trkpt>
      <trkpt lat="47.16739" lon="2.178">
        <ele>116.46</ele>
        <time>2015-08-17T18:43:32Z</time>
      </trkpt>
      <trkpt lat="47.16738" lon="2.17797">
        <ele>116.46</ele>
        <time>2015-08-17T18:43:33Z</time>
      </trkpt>
      <trkpt lat="47.16737" lon="2.17796">
        <ele>116.46</ele>
        <time>2015-08-17T18:43:34Z</time>
      </trkpt>
      <trkpt lat="47.16736" lon="2.17794">
        <ele>116.46</ele>
        <time>2015-08-17T18:43:41Z</time>
      </trkpt>
      <trkpt lat="47.16735" lon="2.17794">
        <ele>116.94</ele>
        <time>2015-08-17T18:44:11Z</time>
      </trkpt>
      <trkpt lat="47.16734" lon="2.17795">
        <ele>116.94</ele>
        <time>2015-08-17T18:44:44Z</time>
      </trkpt>
      <trkpt lat="47.16734" lon="2.17796">
        <ele>116.94</ele>
        <time>2015-08-17T18:45:15Z</time>
      </trkpt>
      <trkpt lat="47.16733" lon="2.17796">
        <ele>116.94</ele>
        <time>2015-08-17T18:45:32Z</time>
      </trkpt>
      <trkpt lat="47.16709" lon="2.17821">
        <ele>117.42</ele>
        <time>2015-08-17T18:45:43Z</time>
      </trkpt>
      <trkpt lat="47.16651" lon="2.179">
        <ele>116.94</ele>
        <time>2015-08-17T18:46:02Z</time>
      </trkpt>
      <trkpt lat="47.16594" lon="2.17961">
        <ele>117.42</ele>
        <time>2015-08-17T18:46:20Z</time>
      </trkpt>
      <trkpt lat="47.16537" lon="2.18017">
        <ele>117.9</ele>
        <time>2015-08-17T18:46:37Z</time>
      </trkpt>
      <trkpt lat="47.16488" lon="2.18073">
        <ele>118.38</ele>
        <time>2015-08-17T18:46:53Z</time>
      </trkpt>
      <trkpt lat="47.16436" lon="2.18145">
        <ele>118.86</ele>
        <time>2015-08-17T18:47:10Z</time>
      </trkpt>
      <trkpt lat="47.16389" lon="2.18232">
        <ele>118.86</ele>
        <time>2015-08-17T18:47:31Z</time>
      </trkpt>
      <trkpt lat="47.16359" lon="2.18286">
        <ele>119.34</ele>
        <time>2015-08-17T18:47:45Z</time>
      </trkpt>
      <trkpt lat="47.16312" lon="2.18362">
        <ele>119.82</ele>
        <time>2015-08-17T18:48:03Z</time>
      </trkpt>
      <trkpt lat="47.16306" lon="2.18371">
        <ele>119.82</ele>
        <time>2015-08-17T18:48:05Z</time>
      </trkpt>
      <trkpt lat="47.16282" lon="2.18403">
        <ele>119.82</ele>
        <time>2015-08-17T18:48:13Z</time>
      </trkpt>
      <trkpt lat="47.16279" lon="2.18407">
        <ele>119.82</ele>
        <time>2015-08-17T18:48:14Z</time>
      </trkpt>
      <trkpt lat="47.16223" lon="2.18474">
        <ele>120.3</ele>
        <time>2015-08-17T18:48:31Z</time>
      </trkpt>
      <trkpt lat="47.16174" lon="2.18551">
        <ele>119.82</ele>
        <time>2015-08-17T18:48:50Z</time>
      </trkpt>
      <trkpt lat="47.16134" lon="2.18611">
        <ele>119.34</ele>
        <time>2015-08-17T18:49:06Z</time>
      </trkpt>
      <trkpt lat="47.16076" lon="2.18704">
        <ele>119.34</ele>
        <time>2015-08-17T18:49:26Z</time>
      </trkpt>
      <trkpt lat="47.16002" lon="2.18819">
        <ele>119.34</ele>
        <time>2015-08-17T18:49:48Z</time>
      </trkpt>
      <trkpt lat="47.15961" lon="2.18903">
        <ele>119.34</ele>
        <time>2015-08-17T18:50:02Z</time>
      </trkpt>
      <trkpt lat="47.15916" lon="2.19017">
        <ele>119.82</ele>
        <time>2015-08-17T18:50:22Z</time>
      </trkpt>
      <trkpt lat="47.15873" lon="2.19126">
        <ele>119.34</ele>
        <time>2015-08-17T18:50:41Z</time>
      </trkpt>
      <trkpt lat="47.1583" lon="2.19222">
        <ele>119.34</ele>
        <time>2015-08-17T18:50:59Z</time>
      </trkpt>
      <trkpt lat="47.15828" lon="2.19227">
        <ele>119.34</ele>
        <time>2015-08-17T18:51:00Z</time>
      </trkpt>
      <trkpt lat="47.15798" lon="2.1929">
        <ele>119.82</ele>
        <time>2015-08-17T18:51:12Z</time>
      </trkpt>
      <trkpt lat="47.15767" lon="2.19357">
        <ele>119.82</ele>
        <time>2015-08-17T18:51:25Z</time>
      </trkpt>
      <trkpt lat="47.15712" lon="2.19442">
        <ele>118.86</ele>
        <time>2015-08-17T18:51:45Z</time>
      </trkpt>
      <trkpt lat="47.15655" lon="2.19506">
        <ele>117.9</ele>
        <time>2015-08-17T18:52:04Z</time>
      </trkpt>
      <trkpt lat="47.15572" lon="2.19576">
        <ele>116.94</ele>
        <time>2015-08-17T18:52:22Z</time>
      </trkpt>
      <trkpt lat="47.15483" lon="2.1966">
        <ele>117.9</ele>
        <time>2015-08-17T18:52:41Z</time>
      </trkpt>
      <trkpt lat="47.15391" lon="2.19752">
        <ele>119.34</ele>
        <time>2015-08-17T18:53:01Z</time>
      </trkpt>
      <trkpt lat="47.15332" lon="2.19845">
        <ele>119.82</ele>
        <time>2015-08-17T18:53:19Z</time>
      </trkpt>
      <trkpt lat="47.1529" lon="2.19923">
        <ele>119.34</ele>
        <time>2015-08-17T18:53:35Z</time>
      </trkpt>
      <trkpt lat="47.15242" lon="2.20004">
        <ele>118.86</ele>
        <time>2015-08-17T18:53:51Z</time>
      </trkpt>
      <trkpt lat="47.15133" lon="2.2018">
        <ele>120.3</ele>
        <time>2015-08-17T18:54:25Z</time>
      </trkpt>
      <trkpt lat="47.1513" lon="2.20184">
        <ele>120.3</ele>
        <time>2015-08-17T18:54:26Z</time>
      </trkpt>
      <trkpt lat="47.15127" lon="2.20188">
        <ele>120.3</ele>
        <time>2015-08-17T18:54:27Z</time>
      </trkpt>
      <trkpt lat="47.1509" lon="2.20226">
        <ele>120.3</ele>
        <time>2015-08-17T18:54:40Z</time>
      </trkpt>
      <trkpt lat="47.15087" lon="2.20231">
        <ele>119.82</ele>
        <time>2015-08-17T18:54:42Z</time>
      </trkpt>
      <trkpt lat="47.15085" lon="2.20234">
        <ele>120.3</ele>
        <time>2015-08-17T18:54:50Z</time>
      </trkpt>
      <trkpt lat="47.15102" lon="2.20279">
        <ele>119.34</ele>
        <time>2015-08-17T18:57:59Z</time>
      </trkpt>
      <trkpt lat="47.15131" lon="2.20345">
        <ele>119.34</ele>
        <time>2015-08-17T18:58:15Z</time>
      </trkpt>
      <trkpt lat="47.15161" lon="2.20413">
        <ele>117.9</ele>
        <time>2015-08-17T18:58:32Z</time>
      </trkpt>
      <trkpt lat="47.15187" lon="2.2048">
        <ele>116.94</ele>
        <time>2015-08-17T18:58:48Z</time>
      </trkpt>
      <trkpt lat="47.15211" lon="2.20546">
        <ele>115.98</ele>
        <time>2015-08-17T18:59:04Z</time>
      </trkpt>
      <trkpt lat="47.15246" lon="2.20599">
        <ele>115.01</ele>
        <time>2015-08-17T18:59:20Z</time>
      </trkpt>
      <trkpt lat="47.1529" lon="2.20604">
        <ele>113.09</ele>
        <time>2015-08-17T19:04:00Z</time>
      </trkpt>
      <trkpt lat="47.1529" lon="2.20604">
        <ele>116.46</ele>
        <time>2015-08-17T19:04:01Z</time>
      </trkpt>
      <trkpt lat="47.15288" lon="2.20604">
        <ele>113.57</ele>
        <time>2015-08-17T19:04:24Z</time>
      </trkpt>
      <trkpt lat="47.15287" lon="2.20603">
        <ele>113.57</ele>
        <time>2015-08-17T19:04:40Z</time>
      </trkpt>
      <trkpt lat="47.15286" lon="2.20603">
        <ele>113.57</ele>
        <time>2015-08-17T19:04:41Z</time>
      </trkpt>
      <trkpt lat="47.15285" lon="2.20604">
        <ele>113.57</ele>
        <time>2015-08-17T19:04:42Z</time>
      </trkpt>
      <trkpt lat="47.15284" lon="2.20606">
        <ele>113.57</ele>
        <time>2015-08-17T19:04:43Z</time>
      </trkpt>
      <trkpt lat="47.15283" lon="2.20608">
        <ele>114.05</ele>
        <time>2015-08-17T19:04:44Z</time>
      </trkpt>
      <trkpt lat="47.15282" lon="2.2061">
        <ele>113.57</ele>
        <time>2015-08-17T19:04:45Z</time>
      </trkpt>
      <trkpt lat="47.15273" lon="2.20625">
        <ele>112.61</ele>
        <time>2015-08-17T19:04:52Z</time>
      </trkpt>
      <trkpt lat="47.15237" lon="2.20669">
        <ele>112.13</ele>
        <time>2015-08-17T19:05:08Z</time>
      </trkpt>
      <trkpt lat="47.15211" lon="2.20694">
        <ele>111.65</ele>
        <time>2015-08-17T19:05:20Z</time>
      </trkpt>
      <trkpt lat="47.15174" lon="2.20719">
        <ele>112.13</ele>
        <time>2015-08-17T19:05:33Z</time>
      </trkpt>
      <trkpt lat="47.15138" lon="2.20734">
        <ele>112.13</ele>
        <time>2015-08-17T19:05:43Z</time>
      </trkpt>
      <trkpt lat="47.15093" lon="2.20752">
        <ele>112.13</ele>
        <time>2015-08-17T19:05:58Z</time>
      </trkpt>
      <trkpt lat="47.15089" lon="2.20753">
        <ele>112.13</ele>
        <time>2015-08-17T19:05:59Z</time>
      </trkpt>
      <trkpt lat="47.15086" lon="2.20755">
        <ele>112.61</ele>
        <time>2015-08-17T19:06:00Z</time>
      </trkpt>
      <trkpt lat="47.15083" lon="2.20758">
        <ele>112.13</ele>
        <time>2015-08-17T19:06:01Z</time>
      </trkpt>
      <trkpt lat="47.15081" lon="2.2076">
        <ele>112.13</ele>
        <time>2015-08-17T19:06:02Z</time>
      </trkpt>
      <trkpt lat="47.15078" lon="2.20763">
        <ele>112.13</ele>
        <time>2015-08-17T19:06:03Z</time>
      </trkpt>
      <trkpt lat="47.15042" lon="2.20774">
        <ele>112.13</ele>
        <time>2015-08-17T19:06:16Z</time>
      </trkpt>
      <trkpt lat="47.15017" lon="2.20783">
        <ele>112.13</ele>
        <time>2015-08-17T19:06:26Z</time>
      </trkpt>
      <trkpt lat="47.14978" lon="2.20787">
        <ele>112.61</ele>
        <time>2015-08-17T19:06:38Z</time>
      </trkpt>
      <trkpt lat="47.14951" lon="2.20788">
        <ele>112.61</ele>
        <time>2015-08-17T19:06:49Z</time>
      </trkpt>
      <trkpt lat="47.14923" lon="2.20787">
        <ele>112.13</ele>
        <time>2015-08-17T19:07:02Z</time>
      </trkpt>
      <trkpt lat="47.14921" lon="2.20787">
        <ele>112.61</ele>
        <time>2015-08-17T19:07:03Z</time>
      </trkpt>
      <trkpt lat="47.1492" lon="2.20786">
        <ele>112.61</ele>
        <time>2015-08-17T19:07:04Z</time>
      </trkpt>
      <trkpt lat="47.14918" lon="2.20785">
        <ele>112.61</ele>
        <time>2015-08-17T19:07:24Z</time>
      </trkpt>
      <trkpt lat="47.14916" lon="2.20788">
        <ele>112.61</ele>
        <time>2015-08-17T19:07:42Z</time>
      </trkpt>
      <trkpt lat="47.14883" lon="2.20787">
        <ele>112.61</ele>
        <time>2015-08-17T19:07:54Z</time>
      </trkpt>
      <trkpt lat="47.14838" lon="2.20785">
        <ele>112.13</ele>
        <time>2015-08-17T19:08:07Z</time>
      </trkpt>
      <trkpt lat="47.14771" lon="2.20786">
        <ele>112.61</ele>
        <time>2015-08-17T19:08:24Z</time>
      </trkpt>
      <trkpt lat="47.14711" lon="2.20786">
        <ele>112.13</ele>
        <time>2015-08-17T19:08:40Z</time>
      </trkpt>
      <trkpt lat="47.14655" lon="2.20783">
        <ele>112.13</ele>
        <time>2015-08-17T19:08:54Z</time>
      </trkpt>
      <trkpt lat="47.14625" lon="2.20786">
        <ele>112.13</ele>
        <time>2015-08-17T19:09:01Z</time>
      </trkpt>
      <trkpt lat="47.14582" lon="2.20794">
        <ele>112.13</ele>
        <time>2015-08-17T19:09:14Z</time>
      </trkpt>
      <trkpt lat="47.1455" lon="2.2081">
        <ele>112.13</ele>
        <time>2015-08-17T19:09:26Z</time>
      </trkpt>
      <trkpt lat="47.1452" lon="2.20832">
        <ele>111.65</ele>
        <time>2015-08-17T19:09:37Z</time>
      </trkpt>
      <trkpt lat="47.14503" lon="2.20851">
        <ele>111.65</ele>
        <time>2015-08-17T19:09:47Z</time>
      </trkpt>
      <trkpt lat="47.14501" lon="2.20855">
        <ele>111.65</ele>
        <time>2015-08-17T19:09:48Z</time>
      </trkpt>
      <trkpt lat="47.145" lon="2.2086">
        <ele>111.65</ele>
        <time>2015-08-17T19:09:49Z</time>
      </trkpt>
      <trkpt lat="47.14498" lon="2.20865">
        <ele>111.65</ele>
        <time>2015-08-17T19:09:50Z</time>
      </trkpt>
      <trkpt lat="47.14496" lon="2.20868">
        <ele>111.65</ele>
        <time>2015-08-17T19:09:51Z</time>
      </trkpt>
      <trkpt lat="47.14494" lon="2.20869">
        <ele>111.65</ele>
        <time>2015-08-17T19:09:52Z</time>
      </trkpt>
      <trkpt lat="47.14492" lon="2.20867">
        <ele>111.65</ele>
        <time>2015-08-17T19:09:53Z</time>
      </trkpt>
      <trkpt lat="47.14485" lon="2.2087">
        <ele>111.65</ele>
        <time>2015-08-17T19:10:00Z</time>
      </trkpt>
      <trkpt lat="47.14484" lon="2.20871">
        <ele>111.65</ele>
        <time>2015-08-17T19:10:01Z</time>
      </trkpt>
      <trkpt lat="47.14488" lon="2.20877">
        <ele>112.61</ele>
        <time>2015-08-17T19:10:05Z</time>
      </trkpt>
      <trkpt lat="47.14489" lon="2.20879">
        <ele>112.61</ele>
        <time>2015-08-17T19:10:06Z</time>
      </trkpt>
      <trkpt lat="47.1449" lon="2.20881">
        <ele>112.61</ele>
        <time>2015-08-17T19:10:07Z</time>
      </trkpt>
      <trkpt lat="47.14491" lon="2.20883">
        <ele>112.61</ele>
        <time>2015-08-17T19:10:08Z</time>
      </trkpt>
      <trkpt lat="47.14491" lon="2.20886">
        <ele>112.13</ele>
        <time>2015-08-17T19:10:09Z</time>
      </trkpt>
      <trkpt lat="47.14492" lon="2.20889">
        <ele>112.13</ele>
        <time>2015-08-17T19:10:10Z</time>
      </trkpt>
      <trkpt lat="47.14492" lon="2.20893">
        <ele>111.65</ele>
        <time>2015-08-17T19:10:11Z</time>
      </trkpt>
      <trkpt lat="47.14491" lon="2.20897">
        <ele>111.65</ele>
        <time>2015-08-17T19:10:12Z</time>
      </trkpt>
      <trkpt lat="47.14488" lon="2.209">
        <ele>111.65</ele>
        <time>2015-08-17T19:10:13Z</time>
      </trkpt>
      <trkpt lat="47.14486" lon="2.20903">
        <ele>111.65</ele>
        <time>2015-08-17T19:10:14Z</time>
      </trkpt>
      <trkpt lat="47.14483" lon="2.20906">
        <ele>111.65</ele>
        <time>2015-08-17T19:10:15Z</time>
      </trkpt>
      <trkpt lat="47.14481" lon="2.20909">
        <ele>112.13</ele>
        <time>2015-08-17T19:10:16Z</time>
      </trkpt>
      <trkpt lat="47.14478" lon="2.20913">
        <ele>112.13</ele>
        <time>2015-08-17T19:10:17Z</time>
      </trkpt>
      <trkpt lat="47.14475" lon="2.20917">
        <ele>112.13</ele>
        <time>2015-08-17T19:10:18Z</time>
      </trkpt>
      <trkpt lat="47.14474" lon="2.20921">
        <ele>112.13</ele>
        <time>2015-08-17T19:10:19Z</time>
      </trkpt>
      <trkpt lat="47.14474" lon="2.20925">
        <ele>112.13</ele>
        <time>2015-08-17T19:10:20Z</time>
      </trkpt>
      <trkpt lat="47.14474" lon="2.20929">
        <ele>112.13</ele>
        <time>2015-08-17T19:10:21Z</time>
      </trkpt>
      <trkpt lat="47.14463" lon="2.20947">
        <ele>112.61</ele>
        <time>2015-08-17T19:10:27Z</time>
      </trkpt>
      <trkpt lat="47.14431" lon="2.20979">
        <ele>112.61</ele>
        <time>2015-08-17T19:10:37Z</time>
      </trkpt>
      <trkpt lat="47.14428" lon="2.20982">
        <ele>112.61</ele>
        <time>2015-08-17T19:10:38Z</time>
      </trkpt>
      <trkpt lat="47.14424" lon="2.20985">
        <ele>112.61</ele>
        <time>2015-08-17T19:10:39Z</time>
      </trkpt>
      <trkpt lat="47.14386" lon="2.21025">
        <ele>112.61</ele>
        <time>2015-08-17T19:10:51Z</time>
      </trkpt>
      <trkpt lat="47.14383" lon="2.21028">
        <ele>112.61</ele>
        <time>2015-08-17T19:10:52Z</time>
      </trkpt>
      <trkpt lat="47.1438" lon="2.21031">
        <ele>112.61</ele>
        <time>2015-08-17T19:10:53Z</time>
      </trkpt>
      <trkpt lat="47.14378" lon="2.21034">
        <ele>112.61</ele>
        <time>2015-08-17T19:10:54Z</time>
      </trkpt>
      <trkpt lat="47.14375" lon="2.21037">
        <ele>112.61</ele>
        <time>2015-08-17T19:10:55Z</time>
      </trkpt>
      <trkpt lat="47.14371" lon="2.21039">
        <ele>112.61</ele>
        <time>2015-08-17T19:10:56Z</time>
      </trkpt>
      <trkpt lat="47.14368" lon="2.2104">
        <ele>112.61</ele>
        <time>2015-08-17T19:10:57Z</time>
      </trkpt>
      <trkpt lat="47.14366" lon="2.21042">
        <ele>112.61</ele>
        <time>2015-08-17T19:10:58Z</time>
      </trkpt>
      <trkpt lat="47.14342" lon="2.21043">
        <ele>112.61</ele>
        <time>2015-08-17T19:11:05Z</time>
      </trkpt>
      <trkpt lat="47.14309" lon="2.21064">
        <ele>112.61</ele>
        <time>2015-08-17T19:11:17Z</time>
      </trkpt>
      <trkpt lat="47.14306" lon="2.21068">
        <ele>112.61</ele>
        <time>2015-08-17T19:11:19Z</time>
      </trkpt>
      <trkpt lat="47.14304" lon="2.21069">
        <ele>112.61</ele>
        <time>2015-08-17T19:11:25Z</time>
      </trkpt>
      <trkpt lat="47.14302" lon="2.21071">
        <ele>112.61</ele>
        <time>2015-08-17T19:11:39Z</time>
      </trkpt>
      <trkpt lat="47.143" lon="2.21071">
        <ele>112.61</ele>
        <time>2015-08-17T19:11:40Z</time>
      </trkpt>
      <trkpt lat="47.14283" lon="2.21088">
        <ele>113.57</ele>
        <time>2015-08-17T19:11:52Z</time>
      </trkpt>
      <trkpt lat="47.14282" lon="2.21089">
        <ele>113.57</ele>
        <time>2015-08-17T19:11:53Z</time>
      </trkpt>
      <trkpt lat="47.14292" lon="2.21119">
        <ele>112.61</ele>
        <time>2015-08-17T19:12:02Z</time>
      </trkpt>
      <trkpt lat="47.14325" lon="2.21208">
        <ele>113.57</ele>
        <time>2015-08-17T19:12:16Z</time>
      </trkpt>
      <trkpt lat="47.14346" lon="2.21273">
        <ele>112.61</ele>
        <time>2015-08-17T19:12:29Z</time>
      </trkpt>
      <trkpt lat="47.14349" lon="2.21279">
        <ele>112.61</ele>
        <time>2015-08-17T19:12:30Z</time>
      </trkpt>
      <trkpt lat="47.1437" lon="2.21337">
        <ele>112.61</ele>
        <time>2015-08-17T19:12:39Z</time>
      </trkpt>
      <trkpt lat="47.14388" lon="2.21395">
        <ele>112.13</ele>
        <time>2015-08-17T19:12:47Z</time>
      </trkpt>
      <trkpt lat="47.1439" lon="2.21402">
        <ele>112.61</ele>
        <time>2015-08-17T19:12:48Z</time>
      </trkpt>
      <trkpt lat="47.14394" lon="2.21424">
        <ele>112.61</ele>
        <time>2015-08-17T19:12:51Z</time>
      </trkpt>
      <trkpt lat="47.14396" lon="2.21431">
        <ele>113.09</ele>
        <time>2015-08-17T19:12:52Z</time>
      </trkpt>
      <trkpt lat="47.14397" lon="2.21438">
        <ele>113.09</ele>
        <time>2015-08-17T19:12:53Z</time>
      </trkpt>
      <trkpt lat="47.14397" lon="2.21444">
        <ele>113.57</ele>
        <time>2015-08-17T19:12:54Z</time>
      </trkpt>
      <trkpt lat="47.14398" lon="2.2145">
        <ele>113.57</ele>
        <time>2015-08-17T19:12:55Z</time>
      </trkpt>
      <trkpt lat="47.14398" lon="2.21456">
        <ele>114.05</ele>
        <time>2015-08-17T19:12:56Z</time>
      </trkpt>
      <trkpt lat="47.14399" lon="2.21463">
        <ele>114.05</ele>
        <time>2015-08-17T19:12:57Z</time>
      </trkpt>
      <trkpt lat="47.14419" lon="2.21523">
        <ele>116.94</ele>
        <time>2015-08-17T19:13:05Z</time>
      </trkpt>
      <trkpt lat="47.14421" lon="2.21531">
        <ele>117.42</ele>
        <time>2015-08-17T19:13:06Z</time>
      </trkpt>
      <trkpt lat="47.14437" lon="2.2157">
        <ele>118.38</ele>
        <time>2015-08-17T19:13:12Z</time>
      </trkpt>
      <trkpt lat="47.1444" lon="2.21575">
        <ele>118.38</ele>
        <time>2015-08-17T19:13:13Z</time>
      </trkpt>
      <trkpt lat="47.14442" lon="2.2158">
        <ele>118.86</ele>
        <time>2015-08-17T19:13:14Z</time>
      </trkpt>
      <trkpt lat="47.14448" lon="2.21592">
        <ele>118.86</ele>
        <time>2015-08-17T19:13:17Z</time>
      </trkpt>
      <trkpt lat="47.14445" lon="2.21618">
        <ele>119.34</ele>
        <time>2015-08-17T19:13:26Z</time>
      </trkpt>
      <trkpt lat="47.14466" lon="2.21663">
        <ele>119.82</ele>
        <time>2015-08-17T19:13:40Z</time>
      </trkpt>
      <trkpt lat="47.14467" lon="2.21668">
        <ele>119.82</ele>
        <time>2015-08-17T19:13:43Z</time>
      </trkpt>
      <trkpt lat="47.14467" lon="2.21669">
        <ele>119.82</ele>
        <time>2015-08-17T19:13:53Z</time>
      </trkpt>
      <trkpt lat="47.14463" lon="2.21668">
        <ele>119.34</ele>
        <time>2015-08-17T19:14:21Z</time>
      </trkpt>
      <trkpt lat="47.1446" lon="2.21668">
        <ele>119.34</ele>
        <time>2015-08-17T19:14:48Z</time>
      </trkpt>
      <trkpt lat="47.14452" lon="2.21666">
        <ele>119.34</ele>
        <time>2015-08-17T19:15:18Z</time>
      </trkpt>
      <trkpt lat="47.14449" lon="2.21653">
        <ele>119.34</ele>
        <time>2015-08-17T19:15:30Z</time>
      </trkpt>
      <trkpt lat="47.14451" lon="2.21651">
        <ele>119.34</ele>
        <time>2015-08-17T19:15:32Z</time>
      </trkpt>
      <trkpt lat="47.14456" lon="2.21626">
        <ele>118.38</ele>
        <time>2015-08-17T19:15:48Z</time>
      </trkpt>
      <trkpt lat="47.14441" lon="2.21589">
        <ele>117.9</ele>
        <time>2015-08-17T19:16:07Z</time>
      </trkpt>
      <trkpt lat="47.14438" lon="2.21583">
        <ele>117.9</ele>
        <time>2015-08-17T19:16:11Z</time>
      </trkpt>
      <trkpt lat="47.14436" lon="2.21569">
        <ele>117.42</ele>
        <time>2015-08-17T19:16:22Z</time>
      </trkpt>
      <trkpt lat="47.14432" lon="2.21546">
        <ele>116.46</ele>
        <time>2015-08-17T19:16:38Z</time>
      </trkpt>
      <trkpt lat="47.14436" lon="2.21541">
        <ele>115.98</ele>
        <time>2015-08-17T19:16:45Z</time>
      </trkpt>
      <trkpt lat="47.14436" lon="2.21539">
        <ele>115.98</ele>
        <time>2015-08-17T19:16:46Z</time>
      </trkpt>
      <trkpt lat="47.14427" lon="2.21511">
        <ele>114.53</ele>
        <time>2015-08-17T19:17:01Z</time>
      </trkpt>
      <trkpt lat="47.14422" lon="2.21498">
        <ele>114.53</ele>
        <time>2015-08-17T19:17:10Z</time>
      </trkpt>
      <trkpt lat="47.14418" lon="2.2149">
        <ele>113.57</ele>
        <time>2015-08-17T19:17:21Z</time>
      </trkpt>
      <trkpt lat="47.14413" lon="2.21464">
        <ele>112.61</ele>
        <time>2015-08-17T19:17:35Z</time>
      </trkpt>
      <trkpt lat="47.14409" lon="2.21458">
        <ele>112.61</ele>
        <time>2015-08-17T19:17:40Z</time>
      </trkpt>
      <trkpt lat="47.14408" lon="2.21454">
        <ele>112.61</ele>
        <time>2015-08-17T19:17:43Z</time>
      </trkpt>
      <trkpt lat="47.14409" lon="2.21442">
        <ele>112.13</ele>
        <time>2015-08-17T19:17:55Z</time>
      </trkpt>
      <trkpt lat="47.14399" lon="2.21425">
        <ele>111.65</ele>
        <time>2015-08-17T19:18:02Z</time>
      </trkpt>
      <trkpt lat="47.14379" lon="2.21381">
        <ele>111.65</ele>
        <time>2015-08-17T19:18:14Z</time>
      </trkpt>
      <trkpt lat="47.14368" lon="2.21324">
        <ele>111.17</ele>
        <time>2015-08-17T19:18:30Z</time>
      </trkpt>
      <trkpt lat="47.14351" lon="2.2128">
        <ele>112.13</ele>
        <time>2015-08-17T19:18:41Z</time>
      </trkpt>
      <trkpt lat="47.14326" lon="2.21215">
        <ele>112.61</ele>
        <time>2015-08-17T19:18:56Z</time>
      </trkpt>
      <trkpt lat="47.14298" lon="2.21145">
        <ele>111.65</ele>
        <time>2015-08-17T19:19:11Z</time>
      </trkpt>
      <trkpt lat="47.14296" lon="2.21139">
        <ele>111.65</ele>
        <time>2015-08-17T19:19:12Z</time>
      </trkpt>
      <trkpt lat="47.14286" lon="2.21107">
        <ele>112.13</ele>
        <time>2015-08-17T19:19:19Z</time>
      </trkpt>
      <trkpt lat="47.14284" lon="2.21103">
        <ele>112.13</ele>
        <time>2015-08-17T19:19:20Z</time>
      </trkpt>
      <trkpt lat="47.14283" lon="2.211">
        <ele>112.13</ele>
        <time>2015-08-17T19:19:21Z</time>
      </trkpt>
      <trkpt lat="47.14282" lon="2.21098">
        <ele>112.13</ele>
        <time>2015-08-17T19:19:22Z</time>
      </trkpt>
      <trkpt lat="47.14281" lon="2.21095">
        <ele>112.13</ele>
        <time>2015-08-17T19:19:23Z</time>
      </trkpt>
      <trkpt lat="47.14279" lon="2.21093">
        <ele>112.61</ele>
        <time>2015-08-17T19:19:24Z</time>
      </trkpt>
      <trkpt lat="47.14278" lon="2.21091">
        <ele>112.13</ele>
        <time>2015-08-17T19:19:25Z</time>
      </trkpt>
      <trkpt lat="47.14277" lon="2.21089">
        <ele>112.13</ele>
        <time>2015-08-17T19:19:26Z</time>
      </trkpt>
      <trkpt lat="47.14277" lon="2.21087">
        <ele>112.13</ele>
        <time>2015-08-17T19:19:27Z</time>
      </trkpt>
      <trkpt lat="47.14276" lon="2.21084">
        <ele>112.13</ele>
        <time>2015-08-17T19:19:29Z</time>
      </trkpt>
      <trkpt lat="47.14277" lon="2.21082">
        <ele>112.61</ele>
        <time>2015-08-17T19:19:30Z</time>
      </trkpt>
      <trkpt lat="47.14278" lon="2.21081">
        <ele>112.13</ele>
        <time>2015-08-17T19:19:31Z</time>
      </trkpt>
      <trkpt lat="47.14279" lon="2.21081">
        <ele>112.13</ele>
        <time>2015-08-17T19:19:34Z</time>
      </trkpt>
      <trkpt lat="47.14279" lon="2.21082">
        <ele>112.13</ele>
        <time>2015-08-17T19:19:48Z</time>
      </trkpt>
      <trkpt lat="47.14276" lon="2.21083">
        <ele>112.13</ele>
        <time>2015-08-17T19:20:09Z</time>
      </trkpt>
      <trkpt lat="47.14258" lon="2.21085">
        <ele>112.61</ele>
        <time>2015-08-17T19:20:22Z</time>
      </trkpt>
      <trkpt lat="47.14254" lon="2.21088">
        <ele>112.13</ele>
        <time>2015-08-17T19:20:24Z</time>
      </trkpt>
      <trkpt lat="47.14254" lon="2.2109">
        <ele>112.13</ele>
        <time>2015-08-17T19:20:25Z</time>
      </trkpt>
      <trkpt lat="47.14254" lon="2.21092">
        <ele>112.13</ele>
        <time>2015-08-17T19:20:26Z</time>
      </trkpt>
      <trkpt lat="47.1425" lon="2.21095">
        <ele>112.13</ele>
        <time>2015-08-17T19:20:30Z</time>
      </trkpt>
      <trkpt lat="47.14249" lon="2.21096">
        <ele>112.13</ele>
        <time>2015-08-17T19:20:31Z</time>
      </trkpt>
      <trkpt lat="47.14248" lon="2.21097">
        <ele>112.13</ele>
        <time>2015-08-17T19:20:32Z</time>
      </trkpt>
      <trkpt lat="47.14247" lon="2.21099">
        <ele>111.65</ele>
        <time>2015-08-17T19:20:33Z</time>
      </trkpt>
      <trkpt lat="47.14241" lon="2.21104">
        <ele>111.17</ele>
        <time>2015-08-17T19:20:36Z</time>
      </trkpt>
      <trkpt lat="47.1421" lon="2.2114">
        <ele>111.17</ele>
        <time>2015-08-17T19:20:49Z</time>
      </trkpt>
      <trkpt lat="47.14209" lon="2.21142">
        <ele>111.17</ele>
        <time>2015-08-17T19:20:50Z</time>
      </trkpt>
      <trkpt lat="47.14207" lon="2.21145">
        <ele>110.69</ele>
        <time>2015-08-17T19:20:51Z</time>
      </trkpt>
      <trkpt lat="47.14206" lon="2.21148">
        <ele>110.69</ele>
        <time>2015-08-17T19:20:52Z</time>
      </trkpt>
      <trkpt lat="47.14204" lon="2.21151">
        <ele>110.69</ele>
        <time>2015-08-17T19:20:53Z</time>
      </trkpt>
      <trkpt lat="47.14203" lon="2.21154">
        <ele>110.69</ele>
        <time>2015-08-17T19:20:54Z</time>
      </trkpt>
      <trkpt lat="47.14202" lon="2.21158">
        <ele>110.69</ele>
        <time>2015-08-17T19:20:55Z</time>
      </trkpt>
      <trkpt lat="47.14201" lon="2.21161">
        <ele>110.69</ele>
        <time>2015-08-17T19:20:56Z</time>
      </trkpt>
      <trkpt lat="47.14191" lon="2.21176">
        <ele>110.69</ele>
        <time>2015-08-17T19:21:03Z</time>
      </trkpt>
      <trkpt lat="47.14168" lon="2.2124">
        <ele>111.65</ele>
        <time>2015-08-17T19:21:16Z</time>
      </trkpt>
      <trkpt lat="47.14165" lon="2.21254">
        <ele>111.17</ele>
        <time>2015-08-17T19:21:18Z</time>
      </trkpt>
      <trkpt lat="47.14163" lon="2.21267">
        <ele>111.17</ele>
        <time>2015-08-17T19:21:20Z</time>
      </trkpt>
      <trkpt lat="47.14162" lon="2.21273">
        <ele>111.17</ele>
        <time>2015-08-17T19:21:21Z</time>
      </trkpt>
      <trkpt lat="47.14161" lon="2.21279">
        <ele>110.69</ele>
        <time>2015-08-17T19:21:22Z</time>
      </trkpt>
      <trkpt lat="47.14159" lon="2.21285">
        <ele>110.69</ele>
        <time>2015-08-17T19:21:23Z</time>
      </trkpt>
      <trkpt lat="47.14157" lon="2.21292">
        <ele>110.69</ele>
        <time>2015-08-17T19:21:24Z</time>
      </trkpt>
      <trkpt lat="47.14156" lon="2.21299">
        <ele>110.69</ele>
        <time>2015-08-17T19:21:25Z</time>
      </trkpt>
      <trkpt lat="47.14138" lon="2.21357">
        <ele>112.61</ele>
        <time>2015-08-17T19:21:37Z</time>
      </trkpt>
      <trkpt lat="47.14137" lon="2.21369">
        <ele>112.61</ele>
        <time>2015-08-17T19:21:41Z</time>
      </trkpt>
      <trkpt lat="47.14137" lon="2.21371">
        <ele>112.61</ele>
        <time>2015-08-17T19:21:42Z</time>
      </trkpt>
      <trkpt lat="47.14137" lon="2.21374">
        <ele>112.61</ele>
        <time>2015-08-17T19:21:43Z</time>
      </trkpt>
      <trkpt lat="47.14137" lon="2.21379">
        <ele>112.61</ele>
        <time>2015-08-17T19:21:45Z</time>
      </trkpt>
      <trkpt lat="47.14136" lon="2.21381">
        <ele>112.61</ele>
        <time>2015-08-17T19:21:46Z</time>
      </trkpt>
      <trkpt lat="47.14135" lon="2.21386">
        <ele>112.61</ele>
        <time>2015-08-17T19:21:48Z</time>
      </trkpt>
      <trkpt lat="47.14135" lon="2.21389">
        <ele>112.61</ele>
        <time>2015-08-17T19:21:49Z</time>
      </trkpt>
      <trkpt lat="47.14131" lon="2.21401">
        <ele>112.61</ele>
        <time>2015-08-17T19:21:53Z</time>
      </trkpt>
      <trkpt lat="47.1413" lon="2.21403">
        <ele>112.61</ele>
        <time>2015-08-17T19:21:54Z</time>
      </trkpt>
      <trkpt lat="47.14124" lon="2.21422">
        <ele>112.61</ele>
        <time>2015-08-17T19:22:00Z</time>
      </trkpt>
      <trkpt lat="47.14102" lon="2.21469">
        <ele>112.61</ele>
        <time>2015-08-17T19:22:12Z</time>
      </trkpt>
      <trkpt lat="47.141" lon="2.21472">
        <ele>112.61</ele>
        <time>2015-08-17T19:22:13Z</time>
      </trkpt>
      <trkpt lat="47.14099" lon="2.21474">
        <ele>112.61</ele>
        <time>2015-08-17T19:22:14Z</time>
      </trkpt>
      <trkpt lat="47.14098" lon="2.21476">
        <ele>112.61</ele>
        <time>2015-08-17T19:22:15Z</time>
      </trkpt>
      <trkpt lat="47.14096" lon="2.21478">
        <ele>112.61</ele>
        <time>2015-08-17T19:22:16Z</time>
      </trkpt>
      <trkpt lat="47.14092" lon="2.21488">
        <ele>112.61</ele>
        <time>2015-08-17T19:22:20Z</time>
      </trkpt>
      <trkpt lat="47.14087" lon="2.21498">
        <ele>112.61</ele>
        <time>2015-08-17T19:22:37Z</time>
      </trkpt>
      <trkpt lat="47.14077" lon="2.21514">
        <ele>112.61</ele>
        <time>2015-08-17T19:22:50Z</time>
      </trkpt>
      <trkpt lat="47.14076" lon="2.21516">
        <ele>112.61</ele>
        <time>2015-08-17T19:22:51Z</time>
      </trkpt>
      <trkpt lat="47.14065" lon="2.2153">
        <ele>112.61</ele>
        <time>2015-08-17T19:22:58Z</time>
      </trkpt>
      <trkpt lat="47.14045" lon="2.21556">
        <ele>112.13</ele>
        <time>2015-08-17T19:23:10Z</time>
      </trkpt>
      <trkpt lat="47.14043" lon="2.21559">
        <ele>112.13</ele>
        <time>2015-08-17T19:23:11Z</time>
      </trkpt>
      <trkpt lat="47.14041" lon="2.21561">
        <ele>112.13</ele>
        <time>2015-08-17T19:23:12Z</time>
      </trkpt>
      <trkpt lat="47.14032" lon="2.21565">
        <ele>113.09</ele>
        <time>2015-08-17T19:23:16Z</time>
      </trkpt>
      <trkpt lat="47.14012" lon="2.21583">
        <ele>112.13</ele>
        <time>2015-08-17T19:23:28Z</time>
      </trkpt>
      <trkpt lat="47.14011" lon="2.21585">
        <ele>112.13</ele>
        <time>2015-08-17T19:23:29Z</time>
      </trkpt>
      <trkpt lat="47.1401" lon="2.21589">
        <ele>112.13</ele>
        <time>2015-08-17T19:23:32Z</time>
      </trkpt>
      <trkpt lat="47.1401" lon="2.21588">
        <ele>112.13</ele>
        <time>2015-08-17T19:23:57Z</time>
      </trkpt>
      <trkpt lat="47.14011" lon="2.21588">
        <ele>112.13</ele>
        <time>2015-08-17T19:24:30Z</time>
      </trkpt>
      <trkpt lat="47.14003" lon="2.2159">
        <ele>112.13</ele>
        <time>2015-08-17T19:24:57Z</time>
      </trkpt>
      <trkpt lat="47.13999" lon="2.21588">
        <ele>111.65</ele>
        <time>2015-08-17T19:25:16Z</time>
      </trkpt>
      <trkpt lat="47.13997" lon="2.21591">
        <ele>112.13</ele>
        <time>2015-08-17T19:25:40Z</time>
      </trkpt>
      <trkpt lat="47.13993" lon="2.21591">
        <ele>112.13</ele>
        <time>2015-08-17T19:26:05Z</time>
      </trkpt>
      <trkpt lat="47.1399" lon="2.21592">
        <ele>112.13</ele>
        <time>2015-08-17T19:26:19Z</time>
      </trkpt>
      <trkpt lat="47.13955" lon="2.21605">
        <ele>112.61</ele>
        <time>2015-08-17T19:26:30Z</time>
      </trkpt>
      <trkpt lat="47.13909" lon="2.21621">
        <ele>112.61</ele>
        <time>2015-08-17T19:26:43Z</time>
      </trkpt>
      <trkpt lat="47.1387" lon="2.21621">
        <ele>112.13</ele>
        <time>2015-08-17T19:26:53Z</time>
      </trkpt>
      <trkpt lat="47.13811" lon="2.21604">
        <ele>112.61</ele>
        <time>2015-08-17T19:27:05Z</time>
      </trkpt>
      <trkpt lat="47.13769" lon="2.2158">
        <ele>112.61</ele>
        <time>2015-08-17T19:27:16Z</time>
      </trkpt>
      <trkpt lat="47.13714" lon="2.21551">
        <ele>112.13</ele>
        <time>2015-08-17T19:27:29Z</time>
      </trkpt>
      <trkpt lat="47.13676" lon="2.21544">
        <ele>112.61</ele>
        <time>2015-08-17T19:27:38Z</time>
      </trkpt>
      <trkpt lat="47.13663" lon="2.21543">
        <ele>112.13</ele>
        <time>2015-08-17T19:27:41Z</time>
      </trkpt>
      <trkpt lat="47.13602" lon="2.21549">
        <ele>112.13</ele>
        <time>2015-08-17T19:27:55Z</time>
      </trkpt>
      <trkpt lat="47.13552" lon="2.21565">
        <ele>112.13</ele>
        <time>2015-08-17T19:28:07Z</time>
      </trkpt>
      <trkpt lat="47.13523" lon="2.21579">
        <ele>112.13</ele>
        <time>2015-08-17T19:28:17Z</time>
      </trkpt>
      <trkpt lat="47.13481" lon="2.21594">
        <ele>112.13</ele>
        <time>2015-08-17T19:28:28Z</time>
      </trkpt>
      <trkpt lat="47.13412" lon="2.21617">
        <ele>112.13</ele>
        <time>2015-08-17T19:28:45Z</time>
      </trkpt>
      <trkpt lat="47.13355" lon="2.2164">
        <ele>112.13</ele>
        <time>2015-08-17T19:28:59Z</time>
      </trkpt>
      <trkpt lat="47.13351" lon="2.21642">
        <ele>112.13</ele>
        <time>2015-08-17T19:29:00Z</time>
      </trkpt>
      <trkpt lat="47.13333" lon="2.21649">
        <ele>112.13</ele>
        <time>2015-08-17T19:29:04Z</time>
      </trkpt>
      <trkpt lat="47.1328" lon="2.21693">
        <ele>112.13</ele>
        <time>2015-08-17T19:29:19Z</time>
      </trkpt>
      <trkpt lat="47.13241" lon="2.21722">
        <ele>112.13</ele>
        <time>2015-08-17T19:29:30Z</time>
      </trkpt>
      <trkpt lat="47.13237" lon="2.21725">
        <ele>112.13</ele>
        <time>2015-08-17T19:29:31Z</time>
      </trkpt>
      <trkpt lat="47.13229" lon="2.21734">
        <ele>112.13</ele>
        <time>2015-08-17T19:29:33Z</time>
      </trkpt>
      <trkpt lat="47.13195" lon="2.21762">
        <ele>112.61</ele>
        <time>2015-08-17T19:29:44Z</time>
      </trkpt>
      <trkpt lat="47.13162" lon="2.2182">
        <ele>112.61</ele>
        <time>2015-08-17T19:29:57Z</time>
      </trkpt>
      <trkpt lat="47.13144" lon="2.21862">
        <ele>113.09</ele>
        <time>2015-08-17T19:30:05Z</time>
      </trkpt>
      <trkpt lat="47.13118" lon="2.21921">
        <ele>112.61</ele>
        <time>2015-08-17T19:30:17Z</time>
      </trkpt>
      <trkpt lat="47.13087" lon="2.21985">
        <ele>112.61</ele>
        <time>2015-08-17T19:30:30Z</time>
      </trkpt>
      <trkpt lat="47.13079" lon="2.22001">
        <ele>112.61</ele>
        <time>2015-08-17T19:30:33Z</time>
      </trkpt>
      <trkpt lat="47.13047" lon="2.22057">
        <ele>112.61</ele>
        <time>2015-08-17T19:30:45Z</time>
      </trkpt>
      <trkpt lat="47.13024" lon="2.2211">
        <ele>112.61</ele>
        <time>2015-08-17T19:30:56Z</time>
      </trkpt>
      <trkpt lat="47.12993" lon="2.22178">
        <ele>112.61</ele>
        <time>2015-08-17T19:31:09Z</time>
      </trkpt>
      <trkpt lat="47.12959" lon="2.22237">
        <ele>112.61</ele>
        <time>2015-08-17T19:31:21Z</time>
      </trkpt>
      <trkpt lat="47.12932" lon="2.22294">
        <ele>112.61</ele>
        <time>2015-08-17T19:31:32Z</time>
      </trkpt>
      <trkpt lat="47.12915" lon="2.22344">
        <ele>112.61</ele>
        <time>2015-08-17T19:31:42Z</time>
      </trkpt>
      <trkpt lat="47.12903" lon="2.22381">
        <ele>113.09</ele>
        <time>2015-08-17T19:31:51Z</time>
      </trkpt>
      <trkpt lat="47.12878" lon="2.22437">
        <ele>112.61</ele>
        <time>2015-08-17T19:32:05Z</time>
      </trkpt>
      <trkpt lat="47.1286" lon="2.22473">
        <ele>112.61</ele>
        <time>2015-08-17T19:32:14Z</time>
      </trkpt>
      <trkpt lat="47.12838" lon="2.22521">
        <ele>112.61</ele>
        <time>2015-08-17T19:32:26Z</time>
      </trkpt>
      <trkpt lat="47.12812" lon="2.22582">
        <ele>112.61</ele>
        <time>2015-08-17T19:32:41Z</time>
      </trkpt>
      <trkpt lat="47.12781" lon="2.22653">
        <ele>112.61</ele>
        <time>2015-08-17T19:32:57Z</time>
      </trkpt>
      <trkpt lat="47.12755" lon="2.22723">
        <ele>113.09</ele>
        <time>2015-08-17T19:33:13Z</time>
      </trkpt>
      <trkpt lat="47.12731" lon="2.22785">
        <ele>113.09</ele>
        <time>2015-08-17T19:33:27Z</time>
      </trkpt>
      <trkpt lat="47.12702" lon="2.22841">
        <ele>113.09</ele>
        <time>2015-08-17T19:33:41Z</time>
      </trkpt>
      <trkpt lat="47.12681" lon="2.22889">
        <ele>112.61</ele>
        <time>2015-08-17T19:33:55Z</time>
      </trkpt>
      <trkpt lat="47.12657" lon="2.22938">
        <ele>112.61</ele>
        <time>2015-08-17T19:34:09Z</time>
      </trkpt>
      <trkpt lat="47.12629" lon="2.22992">
        <ele>112.61</ele>
        <time>2015-08-17T19:34:24Z</time>
      </trkpt>
      <trkpt lat="47.12609" lon="2.23037">
        <ele>112.61</ele>
        <time>2015-08-17T19:34:37Z</time>
      </trkpt>
      <trkpt lat="47.12587" lon="2.23084">
        <ele>112.61</ele>
        <time>2015-08-17T19:34:50Z</time>
      </trkpt>
      <trkpt lat="47.12569" lon="2.23123">
        <ele>112.61</ele>
        <time>2015-08-17T19:35:04Z</time>
      </trkpt>
      <trkpt lat="47.12567" lon="2.23131">
        <ele>112.13</ele>
        <time>2015-08-17T19:35:16Z</time>
      </trkpt>
      <trkpt lat="47.12567" lon="2.23133">
        <ele>112.13</ele>
        <time>2015-08-17T19:35:17Z</time>
      </trkpt>
      <trkpt lat="47.12567" lon="2.23135">
        <ele>112.61</ele>
        <time>2015-08-17T19:35:18Z</time>
      </trkpt>
      <trkpt lat="47.12572" lon="2.23148">
        <ele>111.65</ele>
        <time>2015-08-17T19:35:29Z</time>
      </trkpt>
      <trkpt lat="47.12573" lon="2.23156">
        <ele>111.17</ele>
        <time>2015-08-17T19:35:37Z</time>
      </trkpt>
      <trkpt lat="47.12556" lon="2.23196">
        <ele>111.17</ele>
        <time>2015-08-17T19:35:50Z</time>
      </trkpt>
      <trkpt lat="47.12536" lon="2.23239">
        <ele>111.65</ele>
        <time>2015-08-17T19:36:03Z</time>
      </trkpt>
      <trkpt lat="47.12514" lon="2.23288">
        <ele>111.65</ele>
        <time>2015-08-17T19:36:16Z</time>
      </trkpt>
      <trkpt lat="47.12493" lon="2.23343">
        <ele>111.65</ele>
        <time>2015-08-17T19:36:29Z</time>
      </trkpt>
      <trkpt lat="47.12471" lon="2.23379">
        <ele>112.13</ele>
        <time>2015-08-17T19:36:39Z</time>
      </trkpt>
      <trkpt lat="47.12453" lon="2.23419">
        <ele>112.13</ele>
        <time>2015-08-17T19:36:50Z</time>
      </trkpt>
      <trkpt lat="47.12435" lon="2.23458">
        <ele>112.13</ele>
        <time>2015-08-17T19:37:00Z</time>
      </trkpt>
      <trkpt lat="47.12411" lon="2.2351">
        <ele>112.13</ele>
        <time>2015-08-17T19:37:13Z</time>
      </trkpt>
      <trkpt lat="47.1241" lon="2.23513">
        <ele>112.13</ele>
        <time>2015-08-17T19:37:14Z</time>
      </trkpt>
      <trkpt lat="47.12408" lon="2.23516">
        <ele>112.13</ele>
        <time>2015-08-17T19:37:15Z</time>
      </trkpt>
      <trkpt lat="47.12407" lon="2.23519">
        <ele>112.13</ele>
        <time>2015-08-17T19:37:16Z</time>
      </trkpt>
      <trkpt lat="47.12406" lon="2.23522">
        <ele>112.13</ele>
        <time>2015-08-17T19:37:17Z</time>
      </trkpt>
      <trkpt lat="47.12403" lon="2.23528">
        <ele>112.13</ele>
        <time>2015-08-17T19:37:23Z</time>
      </trkpt>
      <trkpt lat="47.12402" lon="2.23529">
        <ele>112.13</ele>
        <time>2015-08-17T19:37:46Z</time>
      </trkpt>
      <trkpt lat="47.12397" lon="2.2354">
        <ele>112.13</ele>
        <time>2015-08-17T19:37:58Z</time>
      </trkpt>
      <trkpt lat="47.1237" lon="2.23587">
        <ele>113.09</ele>
        <time>2015-08-17T19:38:12Z</time>
      </trkpt>
      <trkpt lat="47.12354" lon="2.23622">
        <ele>112.61</ele>
        <time>2015-08-17T19:38:24Z</time>
      </trkpt>
      <trkpt lat="47.12333" lon="2.23667">
        <ele>112.61</ele>
        <time>2015-08-17T19:38:38Z</time>
      </trkpt>
      <trkpt lat="47.12316" lon="2.2373">
        <ele>113.09</ele>
        <time>2015-08-17T19:38:53Z</time>
      </trkpt>
      <trkpt lat="47.12291" lon="2.23772">
        <ele>112.61</ele>
        <time>2015-08-17T19:39:05Z</time>
      </trkpt>
      <trkpt lat="47.12276" lon="2.23818">
        <ele>113.09</ele>
        <time>2015-08-17T19:39:16Z</time>
      </trkpt>
      <trkpt lat="47.12258" lon="2.23857">
        <ele>112.61</ele>
        <time>2015-08-17T19:39:26Z</time>
      </trkpt>
      <trkpt lat="47.12234" lon="2.23894">
        <ele>112.61</ele>
        <time>2015-08-17T19:39:37Z</time>
      </trkpt>
      <trkpt lat="47.12207" lon="2.23916">
        <ele>112.61</ele>
        <time>2015-08-17T19:39:47Z</time>
      </trkpt>
      <trkpt lat="47.12184" lon="2.23942">
        <ele>112.61</ele>
        <time>2015-08-17T19:39:59Z</time>
      </trkpt>
      <trkpt lat="47.12164" lon="2.23963">
        <ele>112.61</ele>
        <time>2015-08-17T19:40:12Z</time>
      </trkpt>
      <trkpt lat="47.12161" lon="2.23965">
        <ele>112.61</ele>
        <time>2015-08-17T19:40:30Z</time>
      </trkpt>
      <trkpt lat="47.1216" lon="2.23969">
        <ele>112.61</ele>
        <time>2015-08-17T19:40:56Z</time>
      </trkpt>
      <trkpt lat="47.1216" lon="2.2397">
        <ele>112.13</ele>
        <time>2015-08-17T19:41:31Z</time>
      </trkpt>
      <trkpt lat="47.12161" lon="2.2397">
        <ele>112.13</ele>
        <time>2015-08-17T19:42:05Z</time>
      </trkpt>
      <trkpt lat="47.12163" lon="2.23971">
        <ele>112.13</ele>
        <time>2015-08-17T19:42:37Z</time>
      </trkpt>
      <trkpt lat="47.12164" lon="2.23973">
        <ele>112.13</ele>
        <time>2015-08-17T19:43:08Z</time>
      </trkpt>
      <trkpt lat="47.12163" lon="2.23974">
        <ele>112.13</ele>
        <time>2015-08-17T19:43:40Z</time>
      </trkpt>
      <trkpt lat="47.12163" lon="2.23974">
        <ele>112.13</ele>
        <time>2015-08-17T19:44:11Z</time>
      </trkpt>
      <trkpt lat="47.12162" lon="2.23974">
        <ele>112.13</ele>
        <time>2015-08-17T19:44:42Z</time>
      </trkpt>
      <trkpt lat="47.12163" lon="2.23975">
        <ele>112.13</ele>
        <time>2015-08-17T19:45:05Z</time>
      </trkpt>
      <trkpt lat="47.12162" lon="2.23974">
        <ele>115.01</ele>
        <time>2015-08-17T19:45:07Z</time>
      </trkpt>
      <trkpt lat="47.12162" lon="2.23974">
        <ele>110.69</ele>
        <time>2015-08-17T19:45:14Z</time>
      </trkpt>
      <trkpt lat="47.12162" lon="2.23974">
        <ele>114.05</ele>
        <time>2015-08-17T19:45:17Z</time>
      </trkpt>
      <trkpt lat="47.12162" lon="2.23974">
        <ele>109.73</ele>
        <time>2015-08-17T19:45:18Z</time>
      </trkpt>
      <trkpt lat="47.12156" lon="2.23975">
        <ele>112.13</ele>
        <time>2015-08-17T19:45:29Z</time>
      </trkpt>
      <trkpt lat="47.12131" lon="2.24">
        <ele>112.13</ele>
        <time>2015-08-17T19:45:41Z</time>
      </trkpt>
      <trkpt lat="47.12096" lon="2.24039">
        <ele>111.65</ele>
        <time>2015-08-17T19:45:56Z</time>
      </trkpt>
      <trkpt lat="47.12052" lon="2.24086">
        <ele>112.13</ele>
        <time>2015-08-17T19:46:12Z</time>
      </trkpt>
      <trkpt lat="47.12012" lon="2.24128">
        <ele>112.13</ele>
        <time>2015-08-17T19:46:26Z</time>
      </trkpt>
      <trkpt lat="47.11968" lon="2.24177">
        <ele>111.65</ele>
        <time>2015-08-17T19:46:42Z</time>
      </trkpt>
      <trkpt lat="47.11929" lon="2.2422">
        <ele>112.13</ele>
        <time>2015-08-17T19:46:56Z</time>
      </trkpt>
      <trkpt lat="47.11894" lon="2.24258">
        <ele>112.13</ele>
        <time>2015-08-17T19:47:09Z</time>
      </trkpt>
      <trkpt lat="47.11854" lon="2.24303">
        <ele>112.13</ele>
        <time>2015-08-17T19:47:24Z</time>
      </trkpt>
      <trkpt lat="47.11809" lon="2.2435">
        <ele>112.13</ele>
        <time>2015-08-17T19:47:40Z</time>
      </trkpt>
      <trkpt lat="47.11771" lon="2.24391">
        <ele>111.65</ele>
        <time>2015-08-17T19:47:55Z</time>
      </trkpt>
      <trkpt lat="47.1174" lon="2.24426">
        <ele>111.65</ele>
        <time>2015-08-17T19:48:09Z</time>
      </trkpt>
      <trkpt lat="47.11717" lon="2.24451">
        <ele>112.13</ele>
        <time>2015-08-17T19:48:21Z</time>
      </trkpt>
      <trkpt lat="47.11683" lon="2.24487">
        <ele>111.65</ele>
        <time>2015-08-17T19:48:36Z</time>
      </trkpt>
      <trkpt lat="47.11651" lon="2.24521">
        <ele>111.65</ele>
        <time>2015-08-17T19:48:49Z</time>
      </trkpt>
      <trkpt lat="47.1161" lon="2.24566">
        <ele>111.65</ele>
        <time>2015-08-17T19:49:05Z</time>
      </trkpt>
      <trkpt lat="47.11576" lon="2.24604">
        <ele>111.65</ele>
        <time>2015-08-17T19:49:19Z</time>
      </trkpt>
      <trkpt lat="47.11572" lon="2.24607">
        <ele>111.65</ele>
        <time>2015-08-17T19:49:20Z</time>
      </trkpt>
      <trkpt lat="47.11557" lon="2.24624">
        <ele>111.65</ele>
        <time>2015-08-17T19:49:25Z</time>
      </trkpt>
      <trkpt lat="47.11514" lon="2.2467">
        <ele>112.13</ele>
        <time>2015-08-17T19:49:40Z</time>
      </trkpt>
      <trkpt lat="47.11463" lon="2.24725">
        <ele>111.65</ele>
        <time>2015-08-17T19:49:58Z</time>
      </trkpt>
      <trkpt lat="47.11428" lon="2.24765">
        <ele>112.13</ele>
        <time>2015-08-17T19:50:11Z</time>
      </trkpt>
      <trkpt lat="47.11387" lon="2.24809">
        <ele>111.65</ele>
        <time>2015-08-17T19:50:26Z</time>
      </trkpt>
      <trkpt lat="47.1134" lon="2.24858">
        <ele>111.65</ele>
        <time>2015-08-17T19:50:43Z</time>
      </trkpt>
      <trkpt lat="47.11303" lon="2.24899">
        <ele>111.65</ele>
        <time>2015-08-17T19:50:57Z</time>
      </trkpt>
      <trkpt lat="47.11269" lon="2.24938">
        <ele>111.65</ele>
        <time>2015-08-17T19:51:11Z</time>
      </trkpt>
      <trkpt lat="47.11235" lon="2.24973">
        <ele>111.65</ele>
        <time>2015-08-17T19:51:24Z</time>
      </trkpt>
      <trkpt lat="47.11193" lon="2.25018">
        <ele>112.13</ele>
        <time>2015-08-17T19:51:40Z</time>
      </trkpt>
      <trkpt lat="47.11154" lon="2.25059">
        <ele>111.65</ele>
        <time>2015-08-17T19:51:55Z</time>
      </trkpt>
      <trkpt lat="47.11115" lon="2.25102">
        <ele>111.65</ele>
        <time>2015-08-17T19:52:11Z</time>
      </trkpt>
      <trkpt lat="47.11078" lon="2.25141">
        <ele>111.65</ele>
        <time>2015-08-17T19:52:25Z</time>
      </trkpt>
      <trkpt lat="47.11041" lon="2.25185">
        <ele>111.65</ele>
        <time>2015-08-17T19:52:39Z</time>
      </trkpt>
      <trkpt lat="47.11002" lon="2.25227">
        <ele>111.65</ele>
        <time>2015-08-17T19:52:53Z</time>
      </trkpt>
      <trkpt lat="47.10956" lon="2.25278">
        <ele>111.65</ele>
        <time>2015-08-17T19:53:10Z</time>
      </trkpt>
      <trkpt lat="47.1091" lon="2.25325">
        <ele>111.17</ele>
        <time>2015-08-17T19:53:27Z</time>
      </trkpt>
      <trkpt lat="47.10864" lon="2.25376">
        <ele>111.17</ele>
        <time>2015-08-17T19:53:44Z</time>
      </trkpt>
      <trkpt lat="47.10834" lon="2.25407">
        <ele>112.13</ele>
        <time>2015-08-17T19:53:56Z</time>
      </trkpt>
      <trkpt lat="47.10832" lon="2.2541">
        <ele>112.13</ele>
        <time>2015-08-17T19:53:57Z</time>
      </trkpt>
      <trkpt lat="47.1083" lon="2.25411">
        <ele>112.13</ele>
        <time>2015-08-17T19:53:58Z</time>
      </trkpt>
      <trkpt lat="47.10828" lon="2.25412">
        <ele>112.13</ele>
        <time>2015-08-17T19:54:00Z</time>
      </trkpt>
      <trkpt lat="47.10827" lon="2.25412">
        <ele>112.13</ele>
        <time>2015-08-17T19:54:23Z</time>
      </trkpt>
      <trkpt lat="47.10823" lon="2.25416">
        <ele>112.61</ele>
        <time>2015-08-17T19:54:37Z</time>
      </trkpt>
      <trkpt lat="47.1082" lon="2.2542">
        <ele>113.09</ele>
        <time>2015-08-17T19:55:01Z</time>
      </trkpt>
      <trkpt lat="47.10819" lon="2.25423">
        <ele>112.61</ele>
        <time>2015-08-17T19:55:11Z</time>
      </trkpt>
      <trkpt lat="47.10792" lon="2.25456">
        <ele>112.61</ele>
        <time>2015-08-17T19:55:25Z</time>
      </trkpt>
      <trkpt lat="47.10761" lon="2.25497">
        <ele>112.61</ele>
        <time>2015-08-17T19:55:39Z</time>
      </trkpt>
      <trkpt lat="47.1073" lon="2.2553">
        <ele>112.61</ele>
        <time>2015-08-17T19:55:51Z</time>
      </trkpt>
      <trkpt lat="47.10699" lon="2.25566">
        <ele>112.61</ele>
        <time>2015-08-17T19:56:04Z</time>
      </trkpt>
      <trkpt lat="47.10696" lon="2.25569">
        <ele>112.61</ele>
        <time>2015-08-17T19:56:05Z</time>
      </trkpt>
      <trkpt lat="47.10693" lon="2.25571">
        <ele>112.61</ele>
        <time>2015-08-17T19:56:06Z</time>
      </trkpt>
      <trkpt lat="47.1069" lon="2.25574">
        <ele>112.61</ele>
        <time>2015-08-17T19:56:07Z</time>
      </trkpt>
      <trkpt lat="47.10688" lon="2.25576">
        <ele>113.09</ele>
        <time>2015-08-17T19:56:08Z</time>
      </trkpt>
      <trkpt lat="47.10685" lon="2.25578">
        <ele>113.09</ele>
        <time>2015-08-17T19:56:09Z</time>
      </trkpt>
      <trkpt lat="47.10661" lon="2.25606">
        <ele>112.61</ele>
        <time>2015-08-17T19:56:19Z</time>
      </trkpt>
      <trkpt lat="47.10624" lon="2.25652">
        <ele>113.09</ele>
        <time>2015-08-17T19:56:34Z</time>
      </trkpt>
      <trkpt lat="47.10595" lon="2.25699">
        <ele>113.09</ele>
        <time>2015-08-17T19:56:48Z</time>
      </trkpt>
      <trkpt lat="47.10574" lon="2.2575">
        <ele>113.09</ele>
        <time>2015-08-17T19:57:02Z</time>
      </trkpt>
      <trkpt lat="47.10565" lon="2.25802">
        <ele>113.09</ele>
        <time>2015-08-17T19:57:15Z</time>
      </trkpt>
      <trkpt lat="47.10556" lon="2.25848">
        <ele>113.09</ele>
        <time>2015-08-17T19:57:27Z</time>
      </trkpt>
      <trkpt lat="47.1055" lon="2.25894">
        <ele>113.09</ele>
        <time>2015-08-17T19:57:40Z</time>
      </trkpt>
      <trkpt lat="47.10549" lon="2.25932">
        <ele>113.09</ele>
        <time>2015-08-17T19:57:51Z</time>
      </trkpt>
      <trkpt lat="47.10547" lon="2.25996">
        <ele>112.61</ele>
        <time>2015-08-17T19:58:07Z</time>
      </trkpt>
      <trkpt lat="47.10546" lon="2.26037">
        <ele>113.09</ele>
        <time>2015-08-17T19:58:18Z</time>
      </trkpt>
      <trkpt lat="47.10544" lon="2.26101">
        <ele>113.09</ele>
        <time>2015-08-17T19:58:33Z</time>
      </trkpt>
      <trkpt lat="47.10543" lon="2.2618">
        <ele>113.09</ele>
        <time>2015-08-17T19:58:50Z</time>
      </trkpt>
      <trkpt lat="47.1054" lon="2.2623">
        <ele>113.09</ele>
        <time>2015-08-17T19:59:02Z</time>
      </trkpt>
      <trkpt lat="47.10539" lon="2.26295">
        <ele>113.09</ele>
        <time>2015-08-17T19:59:16Z</time>
      </trkpt>
      <trkpt lat="47.10537" lon="2.26342">
        <ele>113.09</ele>
        <time>2015-08-17T19:59:27Z</time>
      </trkpt>
      <trkpt lat="47.10538" lon="2.26345">
        <ele>113.09</ele>
        <time>2015-08-17T19:59:28Z</time>
      </trkpt>
      <trkpt lat="47.10536" lon="2.26369">
        <ele>113.09</ele>
        <time>2015-08-17T19:59:34Z</time>
      </trkpt>
      <trkpt lat="47.10533" lon="2.26445">
        <ele>113.09</ele>
        <time>2015-08-17T19:59:52Z</time>
      </trkpt>
      <trkpt lat="47.1053" lon="2.26509">
        <ele>113.09</ele>
        <time>2015-08-17T20:00:08Z</time>
      </trkpt>
      <trkpt lat="47.10528" lon="2.26575">
        <ele>112.61</ele>
        <time>2015-08-17T20:00:24Z</time>
      </trkpt>
      <trkpt lat="47.10526" lon="2.2663">
        <ele>113.09</ele>
        <time>2015-08-17T20:00:40Z</time>
      </trkpt>
      <trkpt lat="47.10526" lon="2.26632">
        <ele>112.61</ele>
        <time>2015-08-17T20:00:41Z</time>
      </trkpt>
      <trkpt lat="47.10526" lon="2.26635">
        <ele>112.61</ele>
        <time>2015-08-17T20:00:42Z</time>
      </trkpt>
      <trkpt lat="47.10526" lon="2.26637">
        <ele>112.61</ele>
        <time>2015-08-17T20:00:43Z</time>
      </trkpt>
      <trkpt lat="47.10525" lon="2.2664">
        <ele>112.61</ele>
        <time>2015-08-17T20:00:44Z</time>
      </trkpt>
      <trkpt lat="47.10524" lon="2.26643">
        <ele>113.09</ele>
        <time>2015-08-17T20:00:45Z</time>
      </trkpt>
      <trkpt lat="47.10522" lon="2.26644">
        <ele>112.61</ele>
        <time>2015-08-17T20:00:46Z</time>
      </trkpt>
      <trkpt lat="47.1052" lon="2.26643">
        <ele>113.09</ele>
        <time>2015-08-17T20:00:47Z</time>
      </trkpt>
      <trkpt lat="47.10515" lon="2.26645">
        <ele>112.61</ele>
        <time>2015-08-17T20:00:54Z</time>
      </trkpt>
      <trkpt lat="47.10516" lon="2.26643">
        <ele>113.09</ele>
        <time>2015-08-17T20:01:05Z</time>
      </trkpt>
      <trkpt lat="47.10517" lon="2.26644">
        <ele>113.09</ele>
        <time>2015-08-17T20:01:06Z</time>
      </trkpt>
      <trkpt lat="47.10519" lon="2.26645">
        <ele>113.09</ele>
        <time>2015-08-17T20:01:07Z</time>
      </trkpt>
      <trkpt lat="47.1052" lon="2.26646">
        <ele>112.61</ele>
        <time>2015-08-17T20:01:08Z</time>
      </trkpt>
      <trkpt lat="47.10522" lon="2.26646">
        <ele>112.61</ele>
        <time>2015-08-17T20:01:09Z</time>
      </trkpt>
      <trkpt lat="47.10524" lon="2.26646">
        <ele>112.61</ele>
        <time>2015-08-17T20:01:10Z</time>
      </trkpt>
      <trkpt lat="47.10526" lon="2.26648">
        <ele>112.61</ele>
        <time>2015-08-17T20:01:11Z</time>
      </trkpt>
      <trkpt lat="47.10527" lon="2.26655">
        <ele>112.61</ele>
        <time>2015-08-17T20:01:14Z</time>
      </trkpt>
      <trkpt lat="47.10525" lon="2.26703">
        <ele>112.61</ele>
        <time>2015-08-17T20:01:28Z</time>
      </trkpt>
      <trkpt lat="47.10523" lon="2.26754">
        <ele>112.61</ele>
        <time>2015-08-17T20:01:42Z</time>
      </trkpt>
      <trkpt lat="47.10521" lon="2.26804">
        <ele>112.61</ele>
        <time>2015-08-17T20:01:55Z</time>
      </trkpt>
      <trkpt lat="47.1052" lon="2.26858">
        <ele>112.61</ele>
        <time>2015-08-17T20:02:09Z</time>
      </trkpt>
      <trkpt lat="47.1052" lon="2.26899">
        <ele>112.61</ele>
        <time>2015-08-17T20:02:20Z</time>
      </trkpt>
      <trkpt lat="47.1052" lon="2.26961">
        <ele>112.61</ele>
        <time>2015-08-17T20:02:35Z</time>
      </trkpt>
      <trkpt lat="47.10517" lon="2.27017">
        <ele>112.61</ele>
        <time>2015-08-17T20:02:48Z</time>
      </trkpt>
      <trkpt lat="47.10517" lon="2.27022">
        <ele>112.61</ele>
        <time>2015-08-17T20:02:49Z</time>
      </trkpt>
      <trkpt lat="47.10515" lon="2.27054">
        <ele>112.61</ele>
        <time>2015-08-17T20:02:57Z</time>
      </trkpt>
      <trkpt lat="47.10516" lon="2.27058">
        <ele>112.61</ele>
        <time>2015-08-17T20:02:58Z</time>
      </trkpt>
      <trkpt lat="47.10516" lon="2.27063">
        <ele>112.61</ele>
        <time>2015-08-17T20:02:59Z</time>
      </trkpt>
      <trkpt lat="47.10515" lon="2.27066">
        <ele>112.61</ele>
        <time>2015-08-17T20:03:00Z</time>
      </trkpt>
      <trkpt lat="47.10515" lon="2.2707">
        <ele>112.61</ele>
        <time>2015-08-17T20:03:01Z</time>
      </trkpt>
      <trkpt lat="47.10515" lon="2.27075">
        <ele>112.61</ele>
        <time>2015-08-17T20:03:02Z</time>
      </trkpt>
      <trkpt lat="47.10515" lon="2.27079">
        <ele>112.61</ele>
        <time>2015-08-17T20:03:03Z</time>
      </trkpt>
      <trkpt lat="47.10514" lon="2.27107">
        <ele>112.61</ele>
        <time>2015-08-17T20:03:09Z</time>
      </trkpt>
      <trkpt lat="47.10511" lon="2.27156">
        <ele>112.61</ele>
        <time>2015-08-17T20:03:22Z</time>
      </trkpt>
      <trkpt lat="47.10512" lon="2.27193">
        <ele>113.09</ele>
        <time>2015-08-17T20:03:31Z</time>
      </trkpt>
      <trkpt lat="47.10512" lon="2.27255">
        <ele>113.09</ele>
        <time>2015-08-17T20:03:44Z</time>
      </trkpt>
      <trkpt lat="47.10511" lon="2.27309">
        <ele>113.09</ele>
        <time>2015-08-17T20:03:56Z</time>
      </trkpt>
      <trkpt lat="47.10505" lon="2.27361">
        <ele>113.09</ele>
        <time>2015-08-17T20:04:09Z</time>
      </trkpt>
      <trkpt lat="47.10497" lon="2.27402">
        <ele>113.09</ele>
        <time>2015-08-17T20:04:19Z</time>
      </trkpt>
      <trkpt lat="47.10496" lon="2.27405">
        <ele>113.09</ele>
        <time>2015-08-17T20:04:20Z</time>
      </trkpt>
      <trkpt lat="47.10497" lon="2.2741">
        <ele>113.09</ele>
        <time>2015-08-17T20:04:21Z</time>
      </trkpt>
      <trkpt lat="47.10493" lon="2.27453">
        <ele>113.09</ele>
        <time>2015-08-17T20:04:31Z</time>
      </trkpt>
      <trkpt lat="47.10488" lon="2.27501">
        <ele>113.09</ele>
        <time>2015-08-17T20:04:42Z</time>
      </trkpt>
      <trkpt lat="47.10484" lon="2.27546">
        <ele>113.09</ele>
        <time>2015-08-17T20:04:54Z</time>
      </trkpt>
      <trkpt lat="47.10479" lon="2.27592">
        <ele>113.57</ele>
        <time>2015-08-17T20:05:05Z</time>
      </trkpt>
      <trkpt lat="47.10481" lon="2.27613">
        <ele>113.09</ele>
        <time>2015-08-17T20:05:10Z</time>
      </trkpt>
      <trkpt lat="47.10478" lon="2.27658">
        <ele>113.57</ele>
        <time>2015-08-17T20:05:21Z</time>
      </trkpt>
      <trkpt lat="47.1047" lon="2.27708">
        <ele>113.09</ele>
        <time>2015-08-17T20:05:32Z</time>
      </trkpt>
      <trkpt lat="47.1047" lon="2.27712">
        <ele>113.09</ele>
        <time>2015-08-17T20:05:33Z</time>
      </trkpt>
      <trkpt lat="47.10469" lon="2.27717">
        <ele>113.09</ele>
        <time>2015-08-17T20:05:34Z</time>
      </trkpt>
      <trkpt lat="47.10469" lon="2.2772">
        <ele>113.09</ele>
        <time>2015-08-17T20:05:35Z</time>
      </trkpt>
      <trkpt lat="47.10468" lon="2.27724">
        <ele>113.09</ele>
        <time>2015-08-17T20:05:36Z</time>
      </trkpt>
      <trkpt lat="47.10467" lon="2.27728">
        <ele>113.09</ele>
        <time>2015-08-17T20:05:37Z</time>
      </trkpt>
      <trkpt lat="47.10466" lon="2.27731">
        <ele>113.09</ele>
        <time>2015-08-17T20:05:38Z</time>
      </trkpt>
      <trkpt lat="47.10466" lon="2.27734">
        <ele>113.09</ele>
        <time>2015-08-17T20:05:39Z</time>
      </trkpt>
      <trkpt lat="47.10466" lon="2.27738">
        <ele>113.09</ele>
        <time>2015-08-17T20:05:40Z</time>
      </trkpt>
      <trkpt lat="47.10465" lon="2.27742">
        <ele>113.09</ele>
        <time>2015-08-17T20:05:41Z</time>
      </trkpt>
      <trkpt lat="47.10464" lon="2.27747">
        <ele>113.57</ele>
        <time>2015-08-17T20:05:42Z</time>
      </trkpt>
      <trkpt lat="47.10464" lon="2.27752">
        <ele>113.09</ele>
        <time>2015-08-17T20:05:43Z</time>
      </trkpt>
      <trkpt lat="47.10464" lon="2.27756">
        <ele>113.09</ele>
        <time>2015-08-17T20:05:44Z</time>
      </trkpt>
      <trkpt lat="47.10465" lon="2.27761">
        <ele>113.09</ele>
        <time>2015-08-17T20:05:45Z</time>
      </trkpt>
      <trkpt lat="47.10465" lon="2.27766">
        <ele>113.57</ele>
        <time>2015-08-17T20:05:46Z</time>
      </trkpt>
      <trkpt lat="47.10465" lon="2.27805">
        <ele>113.57</ele>
        <time>2015-08-17T20:05:53Z</time>
      </trkpt>
      <trkpt lat="47.10464" lon="2.27809">
        <ele>113.57</ele>
        <time>2015-08-17T20:05:54Z</time>
      </trkpt>
      <trkpt lat="47.10462" lon="2.27813">
        <ele>113.57</ele>
        <time>2015-08-17T20:05:55Z</time>
      </trkpt>
      <trkpt lat="47.10461" lon="2.27816">
        <ele>113.09</ele>
        <time>2015-08-17T20:05:56Z</time>
      </trkpt>
      <trkpt lat="47.1046" lon="2.2782">
        <ele>113.57</ele>
        <time>2015-08-17T20:05:57Z</time>
      </trkpt>
      <trkpt lat="47.10459" lon="2.27824">
        <ele>113.57</ele>
        <time>2015-08-17T20:05:58Z</time>
      </trkpt>
      <trkpt lat="47.10458" lon="2.27827">
        <ele>113.57</ele>
        <time>2015-08-17T20:05:59Z</time>
      </trkpt>
      <trkpt lat="47.10458" lon="2.2783">
        <ele>113.57</ele>
        <time>2015-08-17T20:06:00Z</time>
      </trkpt>
      <trkpt lat="47.10457" lon="2.27833">
        <ele>113.57</ele>
        <time>2015-08-17T20:06:01Z</time>
      </trkpt>
      <trkpt lat="47.10456" lon="2.27837">
        <ele>113.09</ele>
        <time>2015-08-17T20:06:02Z</time>
      </trkpt>
      <trkpt lat="47.10455" lon="2.27841">
        <ele>113.57</ele>
        <time>2015-08-17T20:06:03Z</time>
      </trkpt>
      <trkpt lat="47.10455" lon="2.27845">
        <ele>113.57</ele>
        <time>2015-08-17T20:06:05Z</time>
      </trkpt>
      <trkpt lat="47.10455" lon="2.27849">
        <ele>113.57</ele>
        <time>2015-08-17T20:06:07Z</time>
      </trkpt>
      <trkpt lat="47.10458" lon="2.27872">
        <ele>113.09</ele>
        <time>2015-08-17T20:06:34Z</time>
      </trkpt>
      <trkpt lat="47.10457" lon="2.27896">
        <ele>113.57</ele>
        <time>2015-08-17T20:06:46Z</time>
      </trkpt>
      <trkpt lat="47.10455" lon="2.27901">
        <ele>113.57</ele>
        <time>2015-08-17T20:06:47Z</time>
      </trkpt>
      <trkpt lat="47.10454" lon="2.27906">
        <ele>113.57</ele>
        <time>2015-08-17T20:06:48Z</time>
      </trkpt>
      <trkpt lat="47.10454" lon="2.27912">
        <ele>113.57</ele>
        <time>2015-08-17T20:06:49Z</time>
      </trkpt>
      <trkpt lat="47.10452" lon="2.2792">
        <ele>113.57</ele>
        <time>2015-08-17T20:06:50Z</time>
      </trkpt>
      <trkpt lat="47.10451" lon="2.27924">
        <ele>113.57</ele>
        <time>2015-08-17T20:06:51Z</time>
      </trkpt>
      <trkpt lat="47.10449" lon="2.2793">
        <ele>113.57</ele>
        <time>2015-08-17T20:06:52Z</time>
      </trkpt>
      <trkpt lat="47.10448" lon="2.27935">
        <ele>113.57</ele>
        <time>2015-08-17T20:06:53Z</time>
      </trkpt>
      <trkpt lat="47.10446" lon="2.2794">
        <ele>113.57</ele>
        <time>2015-08-17T20:06:54Z</time>
      </trkpt>
      <trkpt lat="47.10446" lon="2.27943">
        <ele>113.57</ele>
        <time>2015-08-17T20:06:55Z</time>
      </trkpt>
      <trkpt lat="47.10445" lon="2.27945">
        <ele>113.57</ele>
        <time>2015-08-17T20:06:56Z</time>
      </trkpt>
      <trkpt lat="47.10445" lon="2.27948">
        <ele>113.57</ele>
        <time>2015-08-17T20:06:57Z</time>
      </trkpt>
      <trkpt lat="47.10444" lon="2.27953">
        <ele>113.57</ele>
        <time>2015-08-17T20:06:58Z</time>
      </trkpt>
      <trkpt lat="47.10444" lon="2.27956">
        <ele>113.57</ele>
        <time>2015-08-17T20:06:59Z</time>
      </trkpt>
      <trkpt lat="47.10443" lon="2.27961">
        <ele>113.57</ele>
        <time>2015-08-17T20:07:00Z</time>
      </trkpt>
      <trkpt lat="47.10441" lon="2.27967">
        <ele>113.57</ele>
        <time>2015-08-17T20:07:01Z</time>
      </trkpt>
      <trkpt lat="47.10439" lon="2.27973">
        <ele>113.57</ele>
        <time>2015-08-17T20:07:02Z</time>
      </trkpt>
      <trkpt lat="47.10437" lon="2.27979">
        <ele>113.57</ele>
        <time>2015-08-17T20:07:03Z</time>
      </trkpt>
      <trkpt lat="47.10438" lon="2.28006">
        <ele>114.05</ele>
        <time>2015-08-17T20:07:13Z</time>
      </trkpt>
      <trkpt lat="47.10431" lon="2.28038">
        <ele>114.05</ele>
        <time>2015-08-17T20:07:20Z</time>
      </trkpt>
      <trkpt lat="47.10431" lon="2.28043">
        <ele>114.05</ele>
        <time>2015-08-17T20:07:21Z</time>
      </trkpt>
      <trkpt lat="47.10431" lon="2.28046">
        <ele>114.05</ele>
        <time>2015-08-17T20:07:22Z</time>
      </trkpt>
      <trkpt lat="47.10428" lon="2.28076">
        <ele>114.05</ele>
        <time>2015-08-17T20:07:28Z</time>
      </trkpt>
      <trkpt lat="47.10428" lon="2.28082">
        <ele>114.05</ele>
        <time>2015-08-17T20:07:29Z</time>
      </trkpt>
      <trkpt lat="47.10422" lon="2.28132">
        <ele>114.05</ele>
        <time>2015-08-17T20:07:38Z</time>
      </trkpt>
      <trkpt lat="47.10411" lon="2.2818">
        <ele>114.05</ele>
        <time>2015-08-17T20:07:49Z</time>
      </trkpt>
      <trkpt lat="47.10404" lon="2.28219">
        <ele>114.05</ele>
        <time>2015-08-17T20:07:57Z</time>
      </trkpt>
      <trkpt lat="47.10393" lon="2.28273">
        <ele>114.05</ele>
        <time>2015-08-17T20:08:07Z</time>
      </trkpt>
      <trkpt lat="47.10391" lon="2.28279">
        <ele>114.05</ele>
        <time>2015-08-17T20:08:08Z</time>
      </trkpt>
      <trkpt lat="47.1039" lon="2.28284">
        <ele>114.05</ele>
        <time>2015-08-17T20:08:09Z</time>
      </trkpt>
      <trkpt lat="47.10388" lon="2.28295">
        <ele>114.05</ele>
        <time>2015-08-17T20:08:12Z</time>
      </trkpt>
      <trkpt lat="47.10382" lon="2.28344">
        <ele>114.05</ele>
        <time>2015-08-17T20:08:22Z</time>
      </trkpt>
      <trkpt lat="47.10382" lon="2.2835">
        <ele>114.05</ele>
        <time>2015-08-17T20:08:23Z</time>
      </trkpt>
      <trkpt lat="47.1038" lon="2.28368">
        <ele>114.53</ele>
        <time>2015-08-17T20:08:27Z</time>
      </trkpt>
      <trkpt lat="47.10366" lon="2.28419">
        <ele>114.53</ele>
        <time>2015-08-17T20:08:38Z</time>
      </trkpt>
      <trkpt lat="47.10362" lon="2.28436">
        <ele>114.53</ele>
        <time>2015-08-17T20:08:47Z</time>
      </trkpt>
      <trkpt lat="47.10362" lon="2.28441">
        <ele>114.53</ele>
        <time>2015-08-17T20:08:50Z</time>
      </trkpt>
      <trkpt lat="47.10363" lon="2.28443">
        <ele>114.53</ele>
        <time>2015-08-17T20:08:51Z</time>
      </trkpt>
      <trkpt lat="47.10362" lon="2.28444">
        <ele>114.53</ele>
        <time>2015-08-17T20:09:24Z</time>
      </trkpt>
      <trkpt lat="47.10361" lon="2.28445">
        <ele>115.01</ele>
        <time>2015-08-17T20:09:50Z</time>
      </trkpt>
      <trkpt lat="47.10362" lon="2.2845">
        <ele>114.53</ele>
        <time>2015-08-17T20:10:03Z</time>
      </trkpt>
      <trkpt lat="47.10352" lon="2.28509">
        <ele>115.01</ele>
        <time>2015-08-17T20:10:17Z</time>
      </trkpt>
      <trkpt lat="47.10343" lon="2.28579">
        <ele>115.01</ele>
        <time>2015-08-17T20:10:29Z</time>
      </trkpt>
      <trkpt lat="47.10333" lon="2.2864">
        <ele>115.5</ele>
        <time>2015-08-17T20:10:42Z</time>
      </trkpt>
      <trkpt lat="47.10321" lon="2.28687">
        <ele>115.5</ele>
        <time>2015-08-17T20:10:52Z</time>
      </trkpt>
      <trkpt lat="47.1032" lon="2.28691">
        <ele>115.5</ele>
        <time>2015-08-17T20:10:53Z</time>
      </trkpt>
      <trkpt lat="47.10319" lon="2.28697">
        <ele>115.5</ele>
        <time>2015-08-17T20:10:54Z</time>
      </trkpt>
      <trkpt lat="47.10318" lon="2.28701">
        <ele>115.5</ele>
        <time>2015-08-17T20:10:55Z</time>
      </trkpt>
      <trkpt lat="47.10318" lon="2.28705">
        <ele>115.5</ele>
        <time>2015-08-17T20:10:56Z</time>
      </trkpt>
      <trkpt lat="47.10317" lon="2.28709">
        <ele>115.5</ele>
        <time>2015-08-17T20:10:57Z</time>
      </trkpt>
      <trkpt lat="47.10316" lon="2.28713">
        <ele>115.5</ele>
        <time>2015-08-17T20:10:58Z</time>
      </trkpt>
      <trkpt lat="47.1031" lon="2.28747">
        <ele>115.5</ele>
        <time>2015-08-17T20:11:06Z</time>
      </trkpt>
      <trkpt lat="47.10299" lon="2.28785">
        <ele>115.5</ele>
        <time>2015-08-17T20:11:15Z</time>
      </trkpt>
      <trkpt lat="47.10298" lon="2.28791">
        <ele>115.98</ele>
        <time>2015-08-17T20:11:16Z</time>
      </trkpt>
      <trkpt lat="47.10297" lon="2.28794">
        <ele>115.5</ele>
        <time>2015-08-17T20:11:17Z</time>
      </trkpt>
      <trkpt lat="47.10297" lon="2.28799">
        <ele>115.98</ele>
        <time>2015-08-17T20:11:18Z</time>
      </trkpt>
      <trkpt lat="47.10295" lon="2.28804">
        <ele>115.5</ele>
        <time>2015-08-17T20:11:19Z</time>
      </trkpt>
      <trkpt lat="47.10294" lon="2.28806">
        <ele>115.5</ele>
        <time>2015-08-17T20:11:20Z</time>
      </trkpt>
      <trkpt lat="47.10292" lon="2.28809">
        <ele>115.98</ele>
        <time>2015-08-17T20:11:21Z</time>
      </trkpt>
      <trkpt lat="47.10291" lon="2.28812">
        <ele>115.98</ele>
        <time>2015-08-17T20:11:22Z</time>
      </trkpt>
      <trkpt lat="47.10283" lon="2.28855">
        <ele>115.5</ele>
        <time>2015-08-17T20:11:31Z</time>
      </trkpt>
      <trkpt lat="47.10279" lon="2.28871">
        <ele>115.5</ele>
        <time>2015-08-17T20:11:35Z</time>
      </trkpt>
      <trkpt lat="47.10266" lon="2.28948">
        <ele>115.5</ele>
        <time>2015-08-17T20:11:50Z</time>
      </trkpt>
      <trkpt lat="47.10254" lon="2.29008">
        <ele>115.5</ele>
        <time>2015-08-17T20:12:02Z</time>
      </trkpt>
      <trkpt lat="47.10236" lon="2.2908">
        <ele>115.5</ele>
        <time>2015-08-17T20:12:17Z</time>
      </trkpt>
      <trkpt lat="47.10226" lon="2.29113">
        <ele>115.98</ele>
        <time>2015-08-17T20:12:26Z</time>
      </trkpt>
      <trkpt lat="47.10225" lon="2.29116">
        <ele>115.5</ele>
        <time>2015-08-17T20:12:27Z</time>
      </trkpt>
      <trkpt lat="47.10225" lon="2.29117">
        <ele>115.5</ele>
        <time>2015-08-17T20:12:28Z</time>
      </trkpt>
      <trkpt lat="47.10225" lon="2.29119">
        <ele>115.98</ele>
        <time>2015-08-17T20:12:35Z</time>
      </trkpt>
      <trkpt lat="47.10226" lon="2.29131">
        <ele>115.98</ele>
        <time>2015-08-17T20:13:01Z</time>
      </trkpt>
      <trkpt lat="47.10225" lon="2.29137">
        <ele>116.46</ele>
        <time>2015-08-17T20:13:12Z</time>
      </trkpt>
      <trkpt lat="47.10222" lon="2.29144">
        <ele>116.46</ele>
        <time>2015-08-17T20:13:15Z</time>
      </trkpt>
      <trkpt lat="47.10206" lon="2.29191">
        <ele>116.46</ele>
        <time>2015-08-17T20:13:26Z</time>
      </trkpt>
      <trkpt lat="47.10183" lon="2.29244">
        <ele>116.94</ele>
        <time>2015-08-17T20:13:38Z</time>
      </trkpt>
      <trkpt lat="47.1017" lon="2.29272">
        <ele>116.94</ele>
        <time>2015-08-17T20:13:45Z</time>
      </trkpt>
      <trkpt lat="47.10151" lon="2.29321">
        <ele>117.42</ele>
        <time>2015-08-17T20:13:56Z</time>
      </trkpt>
      <trkpt lat="47.10133" lon="2.29361">
        <ele>117.42</ele>
        <time>2015-08-17T20:14:07Z</time>
      </trkpt>
      <trkpt lat="47.10114" lon="2.29406">
        <ele>117.9</ele>
        <time>2015-08-17T20:14:20Z</time>
      </trkpt>
      <trkpt lat="47.10099" lon="2.29442">
        <ele>117.9</ele>
        <time>2015-08-17T20:14:31Z</time>
      </trkpt>
      <trkpt lat="47.10085" lon="2.29472">
        <ele>117.9</ele>
        <time>2015-08-17T20:14:41Z</time>
      </trkpt>
      <trkpt lat="47.10075" lon="2.29494">
        <ele>118.38</ele>
        <time>2015-08-17T20:14:49Z</time>
      </trkpt>
      <trkpt lat="47.10058" lon="2.29538">
        <ele>118.38</ele>
        <time>2015-08-17T20:15:02Z</time>
      </trkpt>
      <trkpt lat="47.10037" lon="2.29589">
        <ele>118.38</ele>
        <time>2015-08-17T20:15:15Z</time>
      </trkpt>
      <trkpt lat="47.1001" lon="2.29659">
        <ele>118.86</ele>
        <time>2015-08-17T20:15:32Z</time>
      </trkpt>
      <trkpt lat="47.0999" lon="2.29711">
        <ele>118.86</ele>
        <time>2015-08-17T20:15:44Z</time>
      </trkpt>
      <trkpt lat="47.0997" lon="2.29757">
        <ele>119.34</ele>
        <time>2015-08-17T20:15:55Z</time>
      </trkpt>
      <trkpt lat="47.09946" lon="2.29806">
        <ele>119.82</ele>
        <time>2015-08-17T20:16:09Z</time>
      </trkpt>
      <trkpt lat="47.09945" lon="2.29808">
        <ele>119.82</ele>
        <time>2015-08-17T20:16:10Z</time>
      </trkpt>
      <trkpt lat="47.09944" lon="2.2981">
        <ele>120.3</ele>
        <time>2015-08-17T20:16:11Z</time>
      </trkpt>
      <trkpt lat="47.09943" lon="2.29812">
        <ele>120.3</ele>
        <time>2015-08-17T20:16:12Z</time>
      </trkpt>
      <trkpt lat="47.09942" lon="2.29814">
        <ele>120.3</ele>
        <time>2015-08-17T20:16:13Z</time>
      </trkpt>
      <trkpt lat="47.09941" lon="2.29817">
        <ele>120.3</ele>
        <time>2015-08-17T20:16:14Z</time>
      </trkpt>
      <trkpt lat="47.09939" lon="2.29819">
        <ele>120.3</ele>
        <time>2015-08-17T20:16:15Z</time>
      </trkpt>
      <trkpt lat="47.09938" lon="2.29819">
        <ele>120.3</ele>
        <time>2015-08-17T20:16:16Z</time>
      </trkpt>
      <trkpt lat="47.09935" lon="2.29817">
        <ele>120.78</ele>
        <time>2015-08-17T20:16:18Z</time>
      </trkpt>
      <trkpt lat="47.09934" lon="2.29816">
        <ele>120.3</ele>
        <time>2015-08-17T20:16:19Z</time>
      </trkpt>
      <trkpt lat="47.09933" lon="2.29815">
        <ele>120.3</ele>
        <time>2015-08-17T20:16:20Z</time>
      </trkpt>
      <trkpt lat="47.09932" lon="2.29814">
        <ele>120.3</ele>
        <time>2015-08-17T20:16:21Z</time>
      </trkpt>
      <trkpt lat="47.09931" lon="2.29814">
        <ele>120.3</ele>
        <time>2015-08-17T20:16:22Z</time>
      </trkpt>
      <trkpt lat="47.09931" lon="2.29814">
        <ele>120.3</ele>
        <time>2015-08-17T20:16:25Z</time>
      </trkpt>
      <trkpt lat="47.0993" lon="2.29814">
        <ele>120.3</ele>
        <time>2015-08-17T20:16:50Z</time>
      </trkpt>
      <trkpt lat="47.0993" lon="2.29814">
        <ele>120.3</ele>
        <time>2015-08-17T20:17:06Z</time>
      </trkpt>
      <trkpt lat="47.09929" lon="2.29817">
        <ele>120.78</ele>
        <time>2015-08-17T20:17:17Z</time>
      </trkpt>
      <trkpt lat="47.09907" lon="2.29867">
        <ele>120.78</ele>
        <time>2015-08-17T20:17:33Z</time>
      </trkpt>
      <trkpt lat="47.09886" lon="2.29917">
        <ele>120.78</ele>
        <time>2015-08-17T20:17:48Z</time>
      </trkpt>
      <trkpt lat="47.09863" lon="2.29973">
        <ele>120.78</ele>
        <time>2015-08-17T20:18:03Z</time>
      </trkpt>
      <trkpt lat="47.09841" lon="2.30028">
        <ele>120.78</ele>
        <time>2015-08-17T20:18:18Z</time>
      </trkpt>
      <trkpt lat="47.09816" lon="2.30089">
        <ele>120.78</ele>
        <time>2015-08-17T20:18:35Z</time>
      </trkpt>
      <trkpt lat="47.09791" lon="2.30154">
        <ele>120.78</ele>
        <time>2015-08-17T20:18:52Z</time>
      </trkpt>
      <trkpt lat="47.09762" lon="2.30226">
        <ele>120.78</ele>
        <time>2015-08-17T20:19:10Z</time>
      </trkpt>
      <trkpt lat="47.09739" lon="2.30284">
        <ele>120.78</ele>
        <time>2015-08-17T20:19:26Z</time>
      </trkpt>
      <trkpt lat="47.09716" lon="2.3034">
        <ele>120.78</ele>
        <time>2015-08-17T20:19:42Z</time>
      </trkpt>
      <trkpt lat="47.09689" lon="2.30407">
        <ele>120.78</ele>
        <time>2015-08-17T20:20:00Z</time>
      </trkpt>
      <trkpt lat="47.09668" lon="2.30459">
        <ele>120.78</ele>
        <time>2015-08-17T20:20:15Z</time>
      </trkpt>
      <trkpt lat="47.09648" lon="2.30507">
        <ele>120.78</ele>
        <time>2015-08-17T20:20:29Z</time>
      </trkpt>
      <trkpt lat="47.09634" lon="2.30546">
        <ele>120.78</ele>
        <time>2015-08-17T20:20:41Z</time>
      </trkpt>
      <trkpt lat="47.09616" lon="2.30592">
        <ele>120.78</ele>
        <time>2015-08-17T20:20:55Z</time>
      </trkpt>
      <trkpt lat="47.09599" lon="2.30635">
        <ele>120.78</ele>
        <time>2015-08-17T20:21:09Z</time>
      </trkpt>
      <trkpt lat="47.09592" lon="2.30652">
        <ele>121.26</ele>
        <time>2015-08-17T20:21:22Z</time>
      </trkpt>
      <trkpt lat="47.09589" lon="2.30654">
        <ele>120.78</ele>
        <time>2015-08-17T20:21:35Z</time>
      </trkpt>
      <trkpt lat="47.09588" lon="2.30656">
        <ele>120.78</ele>
        <time>2015-08-17T20:21:36Z</time>
      </trkpt>
      <trkpt lat="47.09576" lon="2.30688">
        <ele>121.26</ele>
        <time>2015-08-17T20:21:46Z</time>
      </trkpt>
      <trkpt lat="47.09561" lon="2.30724">
        <ele>121.26</ele>
        <time>2015-08-17T20:21:57Z</time>
      </trkpt>
      <trkpt lat="47.09538" lon="2.30785">
        <ele>121.26</ele>
        <time>2015-08-17T20:22:14Z</time>
      </trkpt>
      <trkpt lat="47.09514" lon="2.30841">
        <ele>121.26</ele>
        <time>2015-08-17T20:22:30Z</time>
      </trkpt>
      <trkpt lat="47.09495" lon="2.30889">
        <ele>121.26</ele>
        <time>2015-08-17T20:22:44Z</time>
      </trkpt>
      <trkpt lat="47.09482" lon="2.30924">
        <ele>121.26</ele>
        <time>2015-08-17T20:22:57Z</time>
      </trkpt>
      <trkpt lat="47.09482" lon="2.30928">
        <ele>121.26</ele>
        <time>2015-08-17T20:23:00Z</time>
      </trkpt>
      <trkpt lat="47.09488" lon="2.30934">
        <ele>121.26</ele>
        <time>2015-08-17T20:23:06Z</time>
      </trkpt>
      <trkpt lat="47.09488" lon="2.30936">
        <ele>121.26</ele>
        <time>2015-08-17T20:23:07Z</time>
      </trkpt>
      <trkpt lat="47.09489" lon="2.30937">
        <ele>121.26</ele>
        <time>2015-08-17T20:23:31Z</time>
      </trkpt>
      <trkpt lat="47.09482" lon="2.30959">
        <ele>121.74</ele>
        <time>2015-08-17T20:23:42Z</time>
      </trkpt>
      <trkpt lat="47.09453" lon="2.31012">
        <ele>121.26</ele>
        <time>2015-08-17T20:23:58Z</time>
      </trkpt>
      <trkpt lat="47.09422" lon="2.31062">
        <ele>121.74</ele>
        <time>2015-08-17T20:24:13Z</time>
      </trkpt>
      <trkpt lat="47.09391" lon="2.31107">
        <ele>121.74</ele>
        <time>2015-08-17T20:24:28Z</time>
      </trkpt>
      <trkpt lat="47.09359" lon="2.31153">
        <ele>121.74</ele>
        <time>2015-08-17T20:24:43Z</time>
      </trkpt>
      <trkpt lat="47.09332" lon="2.3119">
        <ele>121.74</ele>
        <time>2015-08-17T20:24:56Z</time>
      </trkpt>
      <trkpt lat="47.09306" lon="2.31227">
        <ele>121.74</ele>
        <time>2015-08-17T20:25:08Z</time>
      </trkpt>
      <trkpt lat="47.09279" lon="2.31269">
        <ele>121.74</ele>
        <time>2015-08-17T20:25:22Z</time>
      </trkpt>
      <trkpt lat="47.09256" lon="2.31309">
        <ele>121.74</ele>
        <time>2015-08-17T20:25:36Z</time>
      </trkpt>
      <trkpt lat="47.09227" lon="2.31352">
        <ele>121.74</ele>
        <time>2015-08-17T20:25:52Z</time>
      </trkpt>
      <trkpt lat="47.09208" lon="2.31379">
        <ele>121.74</ele>
        <time>2015-08-17T20:26:05Z</time>
      </trkpt>
      <trkpt lat="47.09206" lon="2.31382">
        <ele>121.74</ele>
        <time>2015-08-17T20:26:06Z</time>
      </trkpt>
      <trkpt lat="47.09205" lon="2.31384">
        <ele>121.74</ele>
        <time>2015-08-17T20:26:07Z</time>
      </trkpt>
      <trkpt lat="47.09203" lon="2.31386">
        <ele>121.74</ele>
        <time>2015-08-17T20:26:08Z</time>
      </trkpt>
      <trkpt lat="47.09202" lon="2.31388">
        <ele>121.74</ele>
        <time>2015-08-17T20:26:09Z</time>
      </trkpt>
      <trkpt lat="47.092" lon="2.31391">
        <ele>121.74</ele>
        <time>2015-08-17T20:26:10Z</time>
      </trkpt>
      <trkpt lat="47.09199" lon="2.31392">
        <ele>121.74</ele>
        <time>2015-08-17T20:26:11Z</time>
      </trkpt>
      <trkpt lat="47.09197" lon="2.31394">
        <ele>121.74</ele>
        <time>2015-08-17T20:26:12Z</time>
      </trkpt>
      <trkpt lat="47.09187" lon="2.31408">
        <ele>121.74</ele>
        <time>2015-08-17T20:26:18Z</time>
      </trkpt>
      <trkpt lat="47.09162" lon="2.31444">
        <ele>121.74</ele>
        <time>2015-08-17T20:26:32Z</time>
      </trkpt>
      <trkpt lat="47.09138" lon="2.31476">
        <ele>121.74</ele>
        <time>2015-08-17T20:26:45Z</time>
      </trkpt>
      <trkpt lat="47.09133" lon="2.31483">
        <ele>121.74</ele>
        <time>2015-08-17T20:27:05Z</time>
      </trkpt>
      <trkpt lat="47.09132" lon="2.31487">
        <ele>121.74</ele>
        <time>2015-08-17T20:27:20Z</time>
      </trkpt>
      <trkpt lat="47.0913" lon="2.31488">
        <ele>122.22</ele>
        <time>2015-08-17T20:27:21Z</time>
      </trkpt>
      <trkpt lat="47.09126" lon="2.31493">
        <ele>122.22</ele>
        <time>2015-08-17T20:27:24Z</time>
      </trkpt>
      <trkpt lat="47.09125" lon="2.31495">
        <ele>122.71</ele>
        <time>2015-08-17T20:27:25Z</time>
      </trkpt>
      <trkpt lat="47.09123" lon="2.31497">
        <ele>121.74</ele>
        <time>2015-08-17T20:27:26Z</time>
      </trkpt>
      <trkpt lat="47.09122" lon="2.31499">
        <ele>121.74</ele>
        <time>2015-08-17T20:27:27Z</time>
      </trkpt>
      <trkpt lat="47.0912" lon="2.315">
        <ele>121.74</ele>
        <time>2015-08-17T20:27:28Z</time>
      </trkpt>
      <trkpt lat="47.09119" lon="2.31501">
        <ele>121.74</ele>
        <time>2015-08-17T20:27:29Z</time>
      </trkpt>
      <trkpt lat="47.09117" lon="2.31502">
        <ele>122.22</ele>
        <time>2015-08-17T20:27:30Z</time>
      </trkpt>
      <trkpt lat="47.09116" lon="2.31502">
        <ele>122.22</ele>
        <time>2015-08-17T20:27:31Z</time>
      </trkpt>
      <trkpt lat="47.09115" lon="2.31503">
        <ele>122.22</ele>
        <time>2015-08-17T20:27:36Z</time>
      </trkpt>
      <trkpt lat="47.09114" lon="2.31504">
        <ele>121.74</ele>
        <time>2015-08-17T20:28:07Z</time>
      </trkpt>
      <trkpt lat="47.0911" lon="2.31505">
        <ele>121.74</ele>
        <time>2015-08-17T20:28:21Z</time>
      </trkpt>
      <trkpt lat="47.0909" lon="2.31512">
        <ele>121.74</ele>
        <time>2015-08-17T20:28:30Z</time>
      </trkpt>
      <trkpt lat="47.09074" lon="2.31544">
        <ele>121.74</ele>
        <time>2015-08-17T20:28:42Z</time>
      </trkpt>
      <trkpt lat="47.09035" lon="2.316">
        <ele>121.74</ele>
        <time>2015-08-17T20:28:58Z</time>
      </trkpt>
      <trkpt lat="47.09001" lon="2.31649">
        <ele>121.74</ele>
        <time>2015-08-17T20:29:12Z</time>
      </trkpt>
      <trkpt lat="47.0896" lon="2.31706">
        <ele>122.22</ele>
        <time>2015-08-17T20:29:29Z</time>
      </trkpt>
      <trkpt lat="47.08914" lon="2.31769">
        <ele>122.22</ele>
        <time>2015-08-17T20:29:48Z</time>
      </trkpt>
      <trkpt lat="47.08874" lon="2.31837">
        <ele>122.22</ele>
        <time>2015-08-17T20:30:06Z</time>
      </trkpt>
      <trkpt lat="47.08848" lon="2.31899">
        <ele>122.22</ele>
        <time>2015-08-17T20:30:22Z</time>
      </trkpt>
      <trkpt lat="47.08833" lon="2.31955">
        <ele>122.22</ele>
        <time>2015-08-17T20:30:36Z</time>
      </trkpt>
      <trkpt lat="47.08816" lon="2.32024">
        <ele>121.74</ele>
        <time>2015-08-17T20:30:51Z</time>
      </trkpt>
      <trkpt lat="47.08799" lon="2.32099">
        <ele>122.22</ele>
        <time>2015-08-17T20:31:07Z</time>
      </trkpt>
      <trkpt lat="47.0878" lon="2.32181">
        <ele>122.22</ele>
        <time>2015-08-17T20:31:25Z</time>
      </trkpt>
      <trkpt lat="47.08764" lon="2.32246">
        <ele>121.74</ele>
        <time>2015-08-17T20:31:40Z</time>
      </trkpt>
      <trkpt lat="47.08749" lon="2.3231">
        <ele>122.22</ele>
        <time>2015-08-17T20:31:55Z</time>
      </trkpt>
      <trkpt lat="47.08733" lon="2.32379">
        <ele>122.22</ele>
        <time>2015-08-17T20:32:11Z</time>
      </trkpt>
      <trkpt lat="47.08714" lon="2.32459">
        <ele>122.22</ele>
        <time>2015-08-17T20:32:28Z</time>
      </trkpt>
      <trkpt lat="47.08697" lon="2.3253">
        <ele>122.22</ele>
        <time>2015-08-17T20:32:44Z</time>
      </trkpt>
      <trkpt lat="47.08678" lon="2.32608">
        <ele>122.22</ele>
        <time>2015-08-17T20:33:02Z</time>
      </trkpt>
      <trkpt lat="47.08664" lon="2.32671">
        <ele>122.22</ele>
        <time>2015-08-17T20:33:17Z</time>
      </trkpt>
      <trkpt lat="47.08647" lon="2.32742">
        <ele>122.22</ele>
        <time>2015-08-17T20:33:33Z</time>
      </trkpt>
      <trkpt lat="47.08632" lon="2.32802">
        <ele>122.71</ele>
        <time>2015-08-17T20:33:46Z</time>
      </trkpt>
      <trkpt lat="47.08623" lon="2.3284">
        <ele>122.22</ele>
        <time>2015-08-17T20:33:58Z</time>
      </trkpt>
      <trkpt lat="47.08607" lon="2.32903">
        <ele>122.22</ele>
        <time>2015-08-17T20:34:14Z</time>
      </trkpt>
      <trkpt lat="47.08596" lon="2.3296">
        <ele>122.71</ele>
        <time>2015-08-17T20:34:29Z</time>
      </trkpt>
      <trkpt lat="47.08577" lon="2.33036">
        <ele>122.71</ele>
        <time>2015-08-17T20:34:47Z</time>
      </trkpt>
      <trkpt lat="47.08559" lon="2.33118">
        <ele>122.71</ele>
        <time>2015-08-17T20:35:06Z</time>
      </trkpt>
      <trkpt lat="47.08543" lon="2.33183">
        <ele>122.71</ele>
        <time>2015-08-17T20:35:23Z</time>
      </trkpt>
      <trkpt lat="47.0853" lon="2.33237">
        <ele>122.71</ele>
        <time>2015-08-17T20:35:37Z</time>
      </trkpt>
      <trkpt lat="47.08516" lon="2.33298">
        <ele>123.19</ele>
        <time>2015-08-17T20:35:52Z</time>
      </trkpt>
      <trkpt lat="47.085" lon="2.33363">
        <ele>123.19</ele>
        <time>2015-08-17T20:36:08Z</time>
      </trkpt>
      <trkpt lat="47.08484" lon="2.33431">
        <ele>123.19</ele>
        <time>2015-08-17T20:36:24Z</time>
      </trkpt>
      <trkpt lat="47.08464" lon="2.33508">
        <ele>123.67</ele>
        <time>2015-08-17T20:36:42Z</time>
      </trkpt>
      <trkpt lat="47.08461" lon="2.33523">
        <ele>123.67</ele>
        <time>2015-08-17T20:37:01Z</time>
      </trkpt>
      <trkpt lat="47.08462" lon="2.33528">
        <ele>123.19</ele>
        <time>2015-08-17T20:37:13Z</time>
      </trkpt>
      <trkpt lat="47.08452" lon="2.3361">
        <ele>123.67</ele>
        <time>2015-08-17T20:37:31Z</time>
      </trkpt>
      <trkpt lat="47.08448" lon="2.33706">
        <ele>123.67</ele>
        <time>2015-08-17T20:37:50Z</time>
      </trkpt>
      <trkpt lat="47.0845" lon="2.3378">
        <ele>123.67</ele>
        <time>2015-08-17T20:38:05Z</time>
      </trkpt>
      <trkpt lat="47.08453" lon="2.33845">
        <ele>123.67</ele>
        <time>2015-08-17T20:38:19Z</time>
      </trkpt>
      <trkpt lat="47.08453" lon="2.3385">
        <ele>124.15</ele>
        <time>2015-08-17T20:38:20Z</time>
      </trkpt>
      <trkpt lat="47.08453" lon="2.33855">
        <ele>123.67</ele>
        <time>2015-08-17T20:38:21Z</time>
      </trkpt>
      <trkpt lat="47.08451" lon="2.33866">
        <ele>124.15</ele>
        <time>2015-08-17T20:38:24Z</time>
      </trkpt>
      <trkpt lat="47.08452" lon="2.3391">
        <ele>124.15</ele>
        <time>2015-08-17T20:38:35Z</time>
      </trkpt>
      <trkpt lat="47.08452" lon="2.33963">
        <ele>124.15</ele>
        <time>2015-08-17T20:38:48Z</time>
      </trkpt>
      <trkpt lat="47.08453" lon="2.34023">
        <ele>124.15</ele>
        <time>2015-08-17T20:39:02Z</time>
      </trkpt>
      <trkpt lat="47.08454" lon="2.34091">
        <ele>124.63</ele>
        <time>2015-08-17T20:39:17Z</time>
      </trkpt>
      <trkpt lat="47.08456" lon="2.34148">
        <ele>125.59</ele>
        <time>2015-08-17T20:39:30Z</time>
      </trkpt>
      <trkpt lat="47.08456" lon="2.34212">
        <ele>124.63</ele>
        <time>2015-08-17T20:39:44Z</time>
      </trkpt>
      <trkpt lat="47.08457" lon="2.34257">
        <ele>125.59</ele>
        <time>2015-08-17T20:39:57Z</time>
      </trkpt>
      <trkpt lat="47.08457" lon="2.34259">
        <ele>126.07</ele>
        <time>2015-08-17T20:39:58Z</time>
      </trkpt>
      <trkpt lat="47.08457" lon="2.34261">
        <ele>126.07</ele>
        <time>2015-08-17T20:39:59Z</time>
      </trkpt>
      <trkpt lat="47.08458" lon="2.34264">
        <ele>126.07</ele>
        <time>2015-08-17T20:40:00Z</time>
      </trkpt>
      <trkpt lat="47.08458" lon="2.34266">
        <ele>126.07</ele>
        <time>2015-08-17T20:40:01Z</time>
      </trkpt>
      <trkpt lat="47.08458" lon="2.34269">
        <ele>126.07</ele>
        <time>2015-08-17T20:40:02Z</time>
      </trkpt>
      <trkpt lat="47.08458" lon="2.34271">
        <ele>126.07</ele>
        <time>2015-08-17T20:40:03Z</time>
      </trkpt>
      <trkpt lat="47.08458" lon="2.34274">
        <ele>126.07</ele>
        <time>2015-08-17T20:40:04Z</time>
      </trkpt>
      <trkpt lat="47.08457" lon="2.34276">
        <ele>126.55</ele>
        <time>2015-08-17T20:40:05Z</time>
      </trkpt>
      <trkpt lat="47.08457" lon="2.34278">
        <ele>126.07</ele>
        <time>2015-08-17T20:40:06Z</time>
      </trkpt>
      <trkpt lat="47.08456" lon="2.3428">
        <ele>126.07</ele>
        <time>2015-08-17T20:40:07Z</time>
      </trkpt>
      <trkpt lat="47.08455" lon="2.34282">
        <ele>126.55</ele>
        <time>2015-08-17T20:40:08Z</time>
      </trkpt>
      <trkpt lat="47.08455" lon="2.34284">
        <ele>126.07</ele>
        <time>2015-08-17T20:40:09Z</time>
      </trkpt>
      <trkpt lat="47.08456" lon="2.34287">
        <ele>126.55</ele>
        <time>2015-08-17T20:40:10Z</time>
      </trkpt>
      <trkpt lat="47.08454" lon="2.34312">
        <ele>126.55</ele>
        <time>2015-08-17T20:40:22Z</time>
      </trkpt>
      <trkpt lat="47.08455" lon="2.34317">
        <ele>126.55</ele>
        <time>2015-08-17T20:40:41Z</time>
      </trkpt>
      <trkpt lat="47.08455" lon="2.34316">
        <ele>126.55</ele>
        <time>2015-08-17T20:41:14Z</time>
      </trkpt>
      <trkpt lat="47.08456" lon="2.34317">
        <ele>126.55</ele>
        <time>2015-08-17T20:41:44Z</time>
      </trkpt>
      <trkpt lat="47.08457" lon="2.34316">
        <ele>126.55</ele>
        <time>2015-08-17T20:42:21Z</time>
      </trkpt>
      <trkpt lat="47.08456" lon="2.34314">
        <ele>126.07</ele>
        <time>2015-08-17T20:42:41Z</time>
      </trkpt>
      <trkpt lat="47.08456" lon="2.34315">
        <ele>126.55</ele>
        <time>2015-08-17T20:43:06Z</time>
      </trkpt>
      <trkpt lat="47.08459" lon="2.3434">
        <ele>126.55</ele>
        <time>2015-08-17T20:43:17Z</time>
      </trkpt>
      <trkpt lat="47.08462" lon="2.3441">
        <ele>126.55</ele>
        <time>2015-08-17T20:43:29Z</time>
      </trkpt>
      <trkpt lat="47.0846" lon="2.34454">
        <ele>126.55</ele>
        <time>2015-08-17T20:43:36Z</time>
      </trkpt>
      <trkpt lat="47.08458" lon="2.34515">
        <ele>126.55</ele>
        <time>2015-08-17T20:43:46Z</time>
      </trkpt>
      <trkpt lat="47.08455" lon="2.34584">
        <ele>126.55</ele>
        <time>2015-08-17T20:43:58Z</time>
      </trkpt>
      <trkpt lat="47.08453" lon="2.34633">
        <ele>127.03</ele>
        <time>2015-08-17T20:44:08Z</time>
      </trkpt>
      <trkpt lat="47.08449" lon="2.34697">
        <ele>126.55</ele>
        <time>2015-08-17T20:44:20Z</time>
      </trkpt>
      <trkpt lat="47.08449" lon="2.34701">
        <ele>126.55</ele>
        <time>2015-08-17T20:44:21Z</time>
      </trkpt>
      <trkpt lat="47.0845" lon="2.34706">
        <ele>126.55</ele>
        <time>2015-08-17T20:44:22Z</time>
      </trkpt>
      <trkpt lat="47.08451" lon="2.34725">
        <ele>127.03</ele>
        <time>2015-08-17T20:44:26Z</time>
      </trkpt>
      <trkpt lat="47.08452" lon="2.34783">
        <ele>126.55</ele>
        <time>2015-08-17T20:44:37Z</time>
      </trkpt>
      <trkpt lat="47.08456" lon="2.34847">
        <ele>127.03</ele>
        <time>2015-08-17T20:44:48Z</time>
      </trkpt>
      <trkpt lat="47.0846" lon="2.34908">
        <ele>127.03</ele>
        <time>2015-08-17T20:44:59Z</time>
      </trkpt>
      <trkpt lat="47.08464" lon="2.34964">
        <ele>127.03</ele>
        <time>2015-08-17T20:45:10Z</time>
      </trkpt>
      <trkpt lat="47.08465" lon="2.34969">
        <ele>127.03</ele>
        <time>2015-08-17T20:45:11Z</time>
      </trkpt>
      <trkpt lat="47.08465" lon="2.34973">
        <ele>127.03</ele>
        <time>2015-08-17T20:45:12Z</time>
      </trkpt>
      <trkpt lat="47.08467" lon="2.34982">
        <ele>127.03</ele>
        <time>2015-08-17T20:45:14Z</time>
      </trkpt>
      <trkpt lat="47.08471" lon="2.35039">
        <ele>127.03</ele>
        <time>2015-08-17T20:45:26Z</time>
      </trkpt>
      <trkpt lat="47.08477" lon="2.35111">
        <ele>127.51</ele>
        <time>2015-08-17T20:45:39Z</time>
      </trkpt>
      <trkpt lat="47.08484" lon="2.35173">
        <ele>127.51</ele>
        <time>2015-08-17T20:45:51Z</time>
      </trkpt>
      <trkpt lat="47.08492" lon="2.35259">
        <ele>127.51</ele>
        <time>2015-08-17T20:46:07Z</time>
      </trkpt>
      <trkpt lat="47.08499" lon="2.35338">
        <ele>127.51</ele>
        <time>2015-08-17T20:46:20Z</time>
      </trkpt>
      <trkpt lat="47.08503" lon="2.35392">
        <ele>127.99</ele>
        <time>2015-08-17T20:46:30Z</time>
      </trkpt>
      <trkpt lat="47.0851" lon="2.35458">
        <ele>127.99</ele>
        <time>2015-08-17T20:46:43Z</time>
      </trkpt>
      <trkpt lat="47.08515" lon="2.35524">
        <ele>127.51</ele>
        <time>2015-08-17T20:46:57Z</time>
      </trkpt>
      <trkpt lat="47.08521" lon="2.35565">
        <ele>127.51</ele>
        <time>2015-08-17T20:47:06Z</time>
      </trkpt>
      <trkpt lat="47.08521" lon="2.35568">
        <ele>127.99</ele>
        <time>2015-08-17T20:47:07Z</time>
      </trkpt>
      <trkpt lat="47.0852" lon="2.3557">
        <ele>127.51</ele>
        <time>2015-08-17T20:47:08Z</time>
      </trkpt>
      <trkpt lat="47.08519" lon="2.35572">
        <ele>127.51</ele>
        <time>2015-08-17T20:47:09Z</time>
      </trkpt>
      <trkpt lat="47.08519" lon="2.35574">
        <ele>127.51</ele>
        <time>2015-08-17T20:47:10Z</time>
      </trkpt>
      <trkpt lat="47.08518" lon="2.35576">
        <ele>127.51</ele>
        <time>2015-08-17T20:47:29Z</time>
      </trkpt>
      <trkpt lat="47.0852" lon="2.35577">
        <ele>127.51</ele>
        <time>2015-08-17T20:47:59Z</time>
      </trkpt>
      <trkpt lat="47.08521" lon="2.35579">
        <ele>127.99</ele>
        <time>2015-08-17T20:48:16Z</time>
      </trkpt>
      <trkpt lat="47.08542" lon="2.35638">
        <ele>127.99</ele>
        <time>2015-08-17T20:48:31Z</time>
      </trkpt>
      <trkpt lat="47.08545" lon="2.35644">
        <ele>128.47</ele>
        <time>2015-08-17T20:48:32Z</time>
      </trkpt>
      <trkpt lat="47.08547" lon="2.3565">
        <ele>128.47</ele>
        <time>2015-08-17T20:48:33Z</time>
      </trkpt>
      <trkpt lat="47.08561" lon="2.35685">
        <ele>127.99</ele>
        <time>2015-08-17T20:48:39Z</time>
      </trkpt>
      <trkpt lat="47.08586" lon="2.35748">
        <ele>127.99</ele>
        <time>2015-08-17T20:48:51Z</time>
      </trkpt>
      <trkpt lat="47.08604" lon="2.35794">
        <ele>128.47</ele>
        <time>2015-08-17T20:49:01Z</time>
      </trkpt>
      <trkpt lat="47.08619" lon="2.35833">
        <ele>127.99</ele>
        <time>2015-08-17T20:49:11Z</time>
      </trkpt>
      <trkpt lat="47.08621" lon="2.35837">
        <ele>127.99</ele>
        <time>2015-08-17T20:49:12Z</time>
      </trkpt>
      <trkpt lat="47.08623" lon="2.35852">
        <ele>127.99</ele>
        <time>2015-08-17T20:49:17Z</time>
      </trkpt>
      <trkpt lat="47.08635" lon="2.35882">
        <ele>127.99</ele>
        <time>2015-08-17T20:49:27Z</time>
      </trkpt>
      <trkpt lat="47.08646" lon="2.3594">
        <ele>127.51</ele>
        <time>2015-08-17T20:49:40Z</time>
      </trkpt>
      <trkpt lat="47.08646" lon="2.35944">
        <ele>127.51</ele>
        <time>2015-08-17T20:49:41Z</time>
      </trkpt>
      <trkpt lat="47.08647" lon="2.35948">
        <ele>127.99</ele>
        <time>2015-08-17T20:49:43Z</time>
      </trkpt>
      <trkpt lat="47.08647" lon="2.35951">
        <ele>127.99</ele>
        <time>2015-08-17T20:49:44Z</time>
      </trkpt>
      <trkpt lat="47.08647" lon="2.35956">
        <ele>127.99</ele>
        <time>2015-08-17T20:49:45Z</time>
      </trkpt>
      <trkpt lat="47.08647" lon="2.3596">
        <ele>127.99</ele>
        <time>2015-08-17T20:49:46Z</time>
      </trkpt>
      <trkpt lat="47.08648" lon="2.35964">
        <ele>127.99</ele>
        <time>2015-08-17T20:49:47Z</time>
      </trkpt>
      <trkpt lat="47.08648" lon="2.35969">
        <ele>127.99</ele>
        <time>2015-08-17T20:49:48Z</time>
      </trkpt>
      <trkpt lat="47.08648" lon="2.35973">
        <ele>127.99</ele>
        <time>2015-08-17T20:49:49Z</time>
      </trkpt>
      <trkpt lat="47.08648" lon="2.35991">
        <ele>127.99</ele>
        <time>2015-08-17T20:49:53Z</time>
      </trkpt>
      <trkpt lat="47.08648" lon="2.36038">
        <ele>127.99</ele>
        <time>2015-08-17T20:50:03Z</time>
      </trkpt>
      <trkpt lat="47.08649" lon="2.36043">
        <ele>127.99</ele>
        <time>2015-08-17T20:50:04Z</time>
      </trkpt>
      <trkpt lat="47.08649" lon="2.36048">
        <ele>127.99</ele>
        <time>2015-08-17T20:50:05Z</time>
      </trkpt>
      <trkpt lat="47.08649" lon="2.36053">
        <ele>127.99</ele>
        <time>2015-08-17T20:50:06Z</time>
      </trkpt>
      <trkpt lat="47.08649" lon="2.36057">
        <ele>127.99</ele>
        <time>2015-08-17T20:50:07Z</time>
      </trkpt>
      <trkpt lat="47.08649" lon="2.36061">
        <ele>127.99</ele>
        <time>2015-08-17T20:50:08Z</time>
      </trkpt>
      <trkpt lat="47.08649" lon="2.36065">
        <ele>127.99</ele>
        <time>2015-08-17T20:50:09Z</time>
      </trkpt>
      <trkpt lat="47.08649" lon="2.36069">
        <ele>127.99</ele>
        <time>2015-08-17T20:50:10Z</time>
      </trkpt>
      <trkpt lat="47.08649" lon="2.36074">
        <ele>127.99</ele>
        <time>2015-08-17T20:50:11Z</time>
      </trkpt>
      <trkpt lat="47.08648" lon="2.36078">
        <ele>127.99</ele>
        <time>2015-08-17T20:50:12Z</time>
      </trkpt>
      <trkpt lat="47.08646" lon="2.36111">
        <ele>127.99</ele>
        <time>2015-08-17T20:50:19Z</time>
      </trkpt>
      <trkpt lat="47.08649" lon="2.36158">
        <ele>127.99</ele>
        <time>2015-08-17T20:50:30Z</time>
      </trkpt>
      <trkpt lat="47.0865" lon="2.36211">
        <ele>127.99</ele>
        <time>2015-08-17T20:50:41Z</time>
      </trkpt>
      <trkpt lat="47.0865" lon="2.36216">
        <ele>127.99</ele>
        <time>2015-08-17T20:50:42Z</time>
      </trkpt>
      <trkpt lat="47.0865" lon="2.3622">
        <ele>127.99</ele>
        <time>2015-08-17T20:50:43Z</time>
      </trkpt>
      <trkpt lat="47.0865" lon="2.36224">
        <ele>128.47</ele>
        <time>2015-08-17T20:50:44Z</time>
      </trkpt>
      <trkpt lat="47.08651" lon="2.36229">
        <ele>128.47</ele>
        <time>2015-08-17T20:50:45Z</time>
      </trkpt>
      <trkpt lat="47.08651" lon="2.36233">
        <ele>127.99</ele>
        <time>2015-08-17T20:50:46Z</time>
      </trkpt>
      <trkpt lat="47.08651" lon="2.36248">
        <ele>127.99</ele>
        <time>2015-08-17T20:50:49Z</time>
      </trkpt>
      <trkpt lat="47.08654" lon="2.36291">
        <ele>127.99</ele>
        <time>2015-08-17T20:50:58Z</time>
      </trkpt>
      <trkpt lat="47.08652" lon="2.36332">
        <ele>127.99</ele>
        <time>2015-08-17T20:51:08Z</time>
      </trkpt>
      <trkpt lat="47.08652" lon="2.36374">
        <ele>127.99</ele>
        <time>2015-08-17T20:51:17Z</time>
      </trkpt>
      <trkpt lat="47.08653" lon="2.36378">
        <ele>127.99</ele>
        <time>2015-08-17T20:51:18Z</time>
      </trkpt>
      <trkpt lat="47.08652" lon="2.36383">
        <ele>127.99</ele>
        <time>2015-08-17T20:51:19Z</time>
      </trkpt>
      <trkpt lat="47.08652" lon="2.36387">
        <ele>127.99</ele>
        <time>2015-08-17T20:51:20Z</time>
      </trkpt>
      <trkpt lat="47.08652" lon="2.36392">
        <ele>127.99</ele>
        <time>2015-08-17T20:51:21Z</time>
      </trkpt>
      <trkpt lat="47.08652" lon="2.36396">
        <ele>127.99</ele>
        <time>2015-08-17T20:51:22Z</time>
      </trkpt>
      <trkpt lat="47.08653" lon="2.36426">
        <ele>127.99</ele>
        <time>2015-08-17T20:51:30Z</time>
      </trkpt>
      <trkpt lat="47.08654" lon="2.3649">
        <ele>127.99</ele>
        <time>2015-08-17T20:51:43Z</time>
      </trkpt>
      <trkpt lat="47.08654" lon="2.36494">
        <ele>127.99</ele>
        <time>2015-08-17T20:51:44Z</time>
      </trkpt>
      <trkpt lat="47.08655" lon="2.36498">
        <ele>127.99</ele>
        <time>2015-08-17T20:51:45Z</time>
      </trkpt>
      <trkpt lat="47.08655" lon="2.36502">
        <ele>127.99</ele>
        <time>2015-08-17T20:51:46Z</time>
      </trkpt>
      <trkpt lat="47.08655" lon="2.36507">
        <ele>127.99</ele>
        <time>2015-08-17T20:51:47Z</time>
      </trkpt>
      <trkpt lat="47.08656" lon="2.36511">
        <ele>127.99</ele>
        <time>2015-08-17T20:51:48Z</time>
      </trkpt>
      <trkpt lat="47.08657" lon="2.36515">
        <ele>127.51</ele>
        <time>2015-08-17T20:51:49Z</time>
      </trkpt>
      <trkpt lat="47.08657" lon="2.36519">
        <ele>127.99</ele>
        <time>2015-08-17T20:51:50Z</time>
      </trkpt>
      <trkpt lat="47.08658" lon="2.36544">
        <ele>127.99</ele>
        <time>2015-08-17T20:51:56Z</time>
      </trkpt>
      <trkpt lat="47.0866" lon="2.36586">
        <ele>127.51</ele>
        <time>2015-08-17T20:52:06Z</time>
      </trkpt>
      <trkpt lat="47.08659" lon="2.36627">
        <ele>127.51</ele>
        <time>2015-08-17T20:52:15Z</time>
      </trkpt>
      <trkpt lat="47.0866" lon="2.36678">
        <ele>127.99</ele>
        <time>2015-08-17T20:52:25Z</time>
      </trkpt>
      <trkpt lat="47.0866" lon="2.36683">
        <ele>127.99</ele>
        <time>2015-08-17T20:52:26Z</time>
      </trkpt>
      <trkpt lat="47.08662" lon="2.36703">
        <ele>127.99</ele>
        <time>2015-08-17T20:52:30Z</time>
      </trkpt>
      <trkpt lat="47.08661" lon="2.36721">
        <ele>127.99</ele>
        <time>2015-08-17T20:52:34Z</time>
      </trkpt>
      <trkpt lat="47.08661" lon="2.36725">
        <ele>127.99</ele>
        <time>2015-08-17T20:52:35Z</time>
      </trkpt>
      <trkpt lat="47.08661" lon="2.3673">
        <ele>127.99</ele>
        <time>2015-08-17T20:52:36Z</time>
      </trkpt>
      <trkpt lat="47.08662" lon="2.36735">
        <ele>127.99</ele>
        <time>2015-08-17T20:52:37Z</time>
      </trkpt>
      <trkpt lat="47.08663" lon="2.36742">
        <ele>127.99</ele>
        <time>2015-08-17T20:52:38Z</time>
      </trkpt>
      <trkpt lat="47.0866" lon="2.36784">
        <ele>127.99</ele>
        <time>2015-08-17T20:52:49Z</time>
      </trkpt>
      <trkpt lat="47.08662" lon="2.36804">
        <ele>127.99</ele>
        <time>2015-08-17T20:52:53Z</time>
      </trkpt>
      <trkpt lat="47.0866" lon="2.36847">
        <ele>127.99</ele>
        <time>2015-08-17T20:53:03Z</time>
      </trkpt>
      <trkpt lat="47.08659" lon="2.36851">
        <ele>127.99</ele>
        <time>2015-08-17T20:53:04Z</time>
      </trkpt>
      <trkpt lat="47.08658" lon="2.36856">
        <ele>127.99</ele>
        <time>2015-08-17T20:53:05Z</time>
      </trkpt>
      <trkpt lat="47.08658" lon="2.36861">
        <ele>127.99</ele>
        <time>2015-08-17T20:53:06Z</time>
      </trkpt>
      <trkpt lat="47.08659" lon="2.36865">
        <ele>127.99</ele>
        <time>2015-08-17T20:53:07Z</time>
      </trkpt>
      <trkpt lat="47.08659" lon="2.36869">
        <ele>127.99</ele>
        <time>2015-08-17T20:53:08Z</time>
      </trkpt>
      <trkpt lat="47.08659" lon="2.36874">
        <ele>128.47</ele>
        <time>2015-08-17T20:53:09Z</time>
      </trkpt>
      <trkpt lat="47.08659" lon="2.3688">
        <ele>127.99</ele>
        <time>2015-08-17T20:53:10Z</time>
      </trkpt>
      <trkpt lat="47.08661" lon="2.36898">
        <ele>128.47</ele>
        <time>2015-08-17T20:53:14Z</time>
      </trkpt>
      <trkpt lat="47.08661" lon="2.36901">
        <ele>127.99</ele>
        <time>2015-08-17T20:53:15Z</time>
      </trkpt>
      <trkpt lat="47.08664" lon="2.36951">
        <ele>127.99</ele>
        <time>2015-08-17T20:53:26Z</time>
      </trkpt>
      <trkpt lat="47.08663" lon="2.36998">
        <ele>129.43</ele>
        <time>2015-08-17T20:53:37Z</time>
      </trkpt>
      <trkpt lat="47.08664" lon="2.37041">
        <ele>127.99</ele>
        <time>2015-08-17T20:53:47Z</time>
      </trkpt>
      <trkpt lat="47.08664" lon="2.37083">
        <ele>127.99</ele>
        <time>2015-08-17T20:53:57Z</time>
      </trkpt>
      <trkpt lat="47.08664" lon="2.37086">
        <ele>127.99</ele>
        <time>2015-08-17T20:53:58Z</time>
      </trkpt>
      <trkpt lat="47.08664" lon="2.3709">
        <ele>127.51</ele>
        <time>2015-08-17T20:53:59Z</time>
      </trkpt>
      <trkpt lat="47.08666" lon="2.37125">
        <ele>127.99</ele>
        <time>2015-08-17T20:54:07Z</time>
      </trkpt>
      <trkpt lat="47.08666" lon="2.37183">
        <ele>127.99</ele>
        <time>2015-08-17T20:54:18Z</time>
      </trkpt>
      <trkpt lat="47.08663" lon="2.37232">
        <ele>127.99</ele>
        <time>2015-08-17T20:54:28Z</time>
      </trkpt>
      <trkpt lat="47.08664" lon="2.37261">
        <ele>127.51</ele>
        <time>2015-08-17T20:54:36Z</time>
      </trkpt>
      <trkpt lat="47.08664" lon="2.37262">
        <ele>127.51</ele>
        <time>2015-08-17T20:54:37Z</time>
      </trkpt>
      <trkpt lat="47.08664" lon="2.37264">
        <ele>127.51</ele>
        <time>2015-08-17T20:54:38Z</time>
      </trkpt>
      <trkpt lat="47.08665" lon="2.37267">
        <ele>127.51</ele>
        <time>2015-08-17T20:54:39Z</time>
      </trkpt>
      <trkpt lat="47.08665" lon="2.37269">
        <ele>127.51</ele>
        <time>2015-08-17T20:54:40Z</time>
      </trkpt>
      <trkpt lat="47.08665" lon="2.3728">
        <ele>127.99</ele>
        <time>2015-08-17T20:54:43Z</time>
      </trkpt>
      <trkpt lat="47.08666" lon="2.37285">
        <ele>127.99</ele>
        <time>2015-08-17T20:54:58Z</time>
      </trkpt>
      <trkpt lat="47.08665" lon="2.37286">
        <ele>127.51</ele>
        <time>2015-08-17T20:55:17Z</time>
      </trkpt>
      <trkpt lat="47.08666" lon="2.37287">
        <ele>127.51</ele>
        <time>2015-08-17T20:55:53Z</time>
      </trkpt>
      <trkpt lat="47.08665" lon="2.37288">
        <ele>127.03</ele>
        <time>2015-08-17T20:56:34Z</time>
      </trkpt>
      <trkpt lat="47.08665" lon="2.37288">
        <ele>127.03</ele>
        <time>2015-08-17T20:57:09Z</time>
      </trkpt>
      <trkpt lat="47.08666" lon="2.37287">
        <ele>127.03</ele>
        <time>2015-08-17T20:57:42Z</time>
      </trkpt>
      <trkpt lat="47.08666" lon="2.37284">
        <ele>126.55</ele>
        <time>2015-08-17T20:58:17Z</time>
      </trkpt>
      <trkpt lat="47.08666" lon="2.37284">
        <ele>126.07</ele>
        <time>2015-08-17T20:58:52Z</time>
      </trkpt>
      <trkpt lat="47.08667" lon="2.37283">
        <ele>126.55</ele>
        <time>2015-08-17T20:59:16Z</time>
      </trkpt>
      <trkpt lat="47.08666" lon="2.37283">
        <ele>126.07</ele>
        <time>2015-08-17T20:59:42Z</time>
      </trkpt>
      <trkpt lat="47.08668" lon="2.37283">
        <ele>126.07</ele>
        <time>2015-08-17T21:00:15Z</time>
      </trkpt>
      <trkpt lat="47.08669" lon="2.37288">
        <ele>126.07</ele>
        <time>2015-08-17T21:00:43Z</time>
      </trkpt>
      <trkpt lat="47.0867" lon="2.37296">
        <ele>125.59</ele>
        <time>2015-08-17T21:01:08Z</time>
      </trkpt>
      <trkpt lat="47.08671" lon="2.37309">
        <ele>126.07</ele>
        <time>2015-08-17T21:01:18Z</time>
      </trkpt>
      <trkpt lat="47.08669" lon="2.37326">
        <ele>126.07</ele>
        <time>2015-08-17T21:01:22Z</time>
      </trkpt>
      <trkpt lat="47.08662" lon="2.37376">
        <ele>126.07</ele>
        <time>2015-08-17T21:01:32Z</time>
      </trkpt>
      <trkpt lat="47.08653" lon="2.3742">
        <ele>126.07</ele>
        <time>2015-08-17T21:01:40Z</time>
      </trkpt>
      <trkpt lat="47.0864" lon="2.37456">
        <ele>125.59</ele>
        <time>2015-08-17T21:01:50Z</time>
      </trkpt>
      <trkpt lat="47.08639" lon="2.3746">
        <ele>125.59</ele>
        <time>2015-08-17T21:01:51Z</time>
      </trkpt>
      <trkpt lat="47.08637" lon="2.37466">
        <ele>125.59</ele>
        <time>2015-08-17T21:01:52Z</time>
      </trkpt>
      <trkpt lat="47.08636" lon="2.3747">
        <ele>125.59</ele>
        <time>2015-08-17T21:01:53Z</time>
      </trkpt>
      <trkpt lat="47.08634" lon="2.37476">
        <ele>125.59</ele>
        <time>2015-08-17T21:01:54Z</time>
      </trkpt>
      <trkpt lat="47.08632" lon="2.37481">
        <ele>125.59</ele>
        <time>2015-08-17T21:01:55Z</time>
      </trkpt>
      <trkpt lat="47.08631" lon="2.37487">
        <ele>125.59</ele>
        <time>2015-08-17T21:01:56Z</time>
      </trkpt>
      <trkpt lat="47.08629" lon="2.37491">
        <ele>125.59</ele>
        <time>2015-08-17T21:01:57Z</time>
      </trkpt>
      <trkpt lat="47.08627" lon="2.37495">
        <ele>125.59</ele>
        <time>2015-08-17T21:01:58Z</time>
      </trkpt>
      <trkpt lat="47.08625" lon="2.37498">
        <ele>125.59</ele>
        <time>2015-08-17T21:01:59Z</time>
      </trkpt>
      <trkpt lat="47.08614" lon="2.37525">
        <ele>126.07</ele>
        <time>2015-08-17T21:02:05Z</time>
      </trkpt>
      <trkpt lat="47.0859" lon="2.37571">
        <ele>125.59</ele>
        <time>2015-08-17T21:02:16Z</time>
      </trkpt>
      <trkpt lat="47.08566" lon="2.37611">
        <ele>126.07</ele>
        <time>2015-08-17T21:02:26Z</time>
      </trkpt>
      <trkpt lat="47.08539" lon="2.37679">
        <ele>126.07</ele>
        <time>2015-08-17T21:02:38Z</time>
      </trkpt>
      <trkpt lat="47.08525" lon="2.37736">
        <ele>126.07</ele>
        <time>2015-08-17T21:02:50Z</time>
      </trkpt>
      <trkpt lat="47.08516" lon="2.37747">
        <ele>127.51</ele>
        <time>2015-08-17T21:02:57Z</time>
      </trkpt>
      <trkpt lat="47.08512" lon="2.3775">
        <ele>127.51</ele>
        <time>2015-08-17T21:02:59Z</time>
      </trkpt>
      <trkpt lat="47.0851" lon="2.37752">
        <ele>127.51</ele>
        <time>2015-08-17T21:03:00Z</time>
      </trkpt>
      <trkpt lat="47.08509" lon="2.37754">
        <ele>127.51</ele>
        <time>2015-08-17T21:03:01Z</time>
      </trkpt>
      <trkpt lat="47.08507" lon="2.37755">
        <ele>127.51</ele>
        <time>2015-08-17T21:03:02Z</time>
      </trkpt>
      <trkpt lat="47.08506" lon="2.37757">
        <ele>127.51</ele>
        <time>2015-08-17T21:03:03Z</time>
      </trkpt>
      <trkpt lat="47.08504" lon="2.37759">
        <ele>127.51</ele>
        <time>2015-08-17T21:03:04Z</time>
      </trkpt>
      <trkpt lat="47.08503" lon="2.37762">
        <ele>127.51</ele>
        <time>2015-08-17T21:03:05Z</time>
      </trkpt>
      <trkpt lat="47.08502" lon="2.37764">
        <ele>127.51</ele>
        <time>2015-08-17T21:03:06Z</time>
      </trkpt>
      <trkpt lat="47.08502" lon="2.37768">
        <ele>127.51</ele>
        <time>2015-08-17T21:03:07Z</time>
      </trkpt>
      <trkpt lat="47.08502" lon="2.37771">
        <ele>127.51</ele>
        <time>2015-08-17T21:03:08Z</time>
      </trkpt>
      <trkpt lat="47.08502" lon="2.37774">
        <ele>127.51</ele>
        <time>2015-08-17T21:03:09Z</time>
      </trkpt>
      <trkpt lat="47.08502" lon="2.37776">
        <ele>127.51</ele>
        <time>2015-08-17T21:03:10Z</time>
      </trkpt>
      <trkpt lat="47.08515" lon="2.37761">
        <ele>127.99</ele>
        <time>2015-08-17T21:03:15Z</time>
      </trkpt>
      <trkpt lat="47.08533" lon="2.37712">
        <ele>129.43</ele>
        <time>2015-08-17T21:03:25Z</time>
      </trkpt>
      <trkpt lat="47.08534" lon="2.37707">
        <ele>129.43</ele>
        <time>2015-08-17T21:03:26Z</time>
      </trkpt>
      <trkpt lat="47.08535" lon="2.37704">
        <ele>129.43</ele>
        <time>2015-08-17T21:03:27Z</time>
      </trkpt>
      <trkpt lat="47.08536" lon="2.377">
        <ele>129.43</ele>
        <time>2015-08-17T21:03:28Z</time>
      </trkpt>
      <trkpt lat="47.08536" lon="2.37696">
        <ele>129.43</ele>
        <time>2015-08-17T21:03:29Z</time>
      </trkpt>
      <trkpt lat="47.08535" lon="2.37693">
        <ele>129.43</ele>
        <time>2015-08-17T21:03:30Z</time>
      </trkpt>
      <trkpt lat="47.08531" lon="2.37686">
        <ele>129.92</ele>
        <time>2015-08-17T21:03:33Z</time>
      </trkpt>
      <trkpt lat="47.0853" lon="2.37685">
        <ele>129.92</ele>
        <time>2015-08-17T21:03:34Z</time>
      </trkpt>
      <trkpt lat="47.08529" lon="2.37684">
        <ele>129.43</ele>
        <time>2015-08-17T21:03:35Z</time>
      </trkpt>
      <trkpt lat="47.08527" lon="2.37682">
        <ele>129.92</ele>
        <time>2015-08-17T21:03:37Z</time>
      </trkpt>
      <trkpt lat="47.08525" lon="2.37682">
        <ele>129.43</ele>
        <time>2015-08-17T21:03:44Z</time>
      </trkpt>
      <trkpt lat="47.08527" lon="2.3768">
        <ele>129.43</ele>
        <time>2015-08-17T21:04:15Z</time>
      </trkpt>
      <trkpt lat="47.08527" lon="2.37679">
        <ele>129.43</ele>
        <time>2015-08-17T21:04:45Z</time>
      </trkpt>
      <trkpt lat="47.08527" lon="2.37678">
        <ele>128.95</ele>
        <time>2015-08-17T21:05:12Z</time>
      </trkpt>
      <trkpt lat="47.08527" lon="2.37678">
        <ele>129.92</ele>
        <time>2015-08-17T21:05:43Z</time>
      </trkpt>
      <trkpt lat="47.08526" lon="2.37678">
        <ele>128.47</ele>
        <time>2015-08-17T21:06:13Z</time>
      </trkpt>
      <trkpt lat="47.08526" lon="2.37679">
        <ele>127.99</ele>
        <time>2015-08-17T21:06:44Z</time>
      </trkpt>
      <trkpt lat="47.08526" lon="2.37677">
        <ele>127.99</ele>
        <time>2015-08-17T21:07:15Z</time>
      </trkpt>
      <trkpt lat="47.08525" lon="2.37678">
        <ele>127.51</ele>
        <time>2015-08-17T21:07:41Z</time>
      </trkpt>
      <trkpt lat="47.08526" lon="2.37679">
        <ele>127.51</ele>
        <time>2015-08-17T21:08:10Z</time>
      </trkpt>
      <trkpt lat="47.08526" lon="2.3768">
        <ele>127.03</ele>
        <time>2015-08-17T21:08:46Z</time>
      </trkpt>
      <trkpt lat="47.08526" lon="2.37681">
        <ele>126.55</ele>
        <time>2015-08-17T21:09:19Z</time>
      </trkpt>
      <trkpt lat="47.08525" lon="2.3768">
        <ele>126.55</ele>
        <time>2015-08-17T21:09:51Z</time>
      </trkpt>
      <trkpt lat="47.08525" lon="2.3768">
        <ele>126.07</ele>
        <time>2015-08-17T21:10:20Z</time>
      </trkpt>
      <trkpt lat="47.08525" lon="2.37681">
        <ele>126.07</ele>
        <time>2015-08-17T21:10:49Z</time>
      </trkpt>
      <trkpt lat="47.08524" lon="2.37681">
        <ele>125.59</ele>
        <time>2015-08-17T21:11:19Z</time>
      </trkpt>
      <trkpt lat="47.08524" lon="2.37679">
        <ele>125.59</ele>
        <time>2015-08-17T21:11:44Z</time>
      </trkpt>
      <trkpt lat="47.08525" lon="2.37678">
        <ele>125.11</ele>
        <time>2015-08-17T21:12:12Z</time>
      </trkpt>
      <trkpt lat="47.08525" lon="2.37679">
        <ele>125.11</ele>
        <time>2015-08-17T21:12:40Z</time>
      </trkpt>
      <trkpt lat="47.08525" lon="2.37679">
        <ele>124.63</ele>
        <time>2015-08-17T21:13:07Z</time>
      </trkpt>
      <trkpt lat="47.08525" lon="2.37679">
        <ele>124.15</ele>
        <time>2015-08-17T21:13:37Z</time>
      </trkpt>
      <trkpt lat="47.08524" lon="2.3768">
        <ele>123.67</ele>
        <time>2015-08-17T21:14:08Z</time>
      </trkpt>
      <trkpt lat="47.08524" lon="2.3768">
        <ele>123.67</ele>
        <time>2015-08-17T21:14:40Z</time>
      </trkpt>
      <trkpt lat="47.08522" lon="2.37679">
        <ele>123.19</ele>
        <time>2015-08-17T21:15:12Z</time>
      </trkpt>
      <trkpt lat="47.08521" lon="2.37677">
        <ele>122.71</ele>
        <time>2015-08-17T21:15:42Z</time>
      </trkpt>
      <trkpt lat="47.08521" lon="2.37676">
        <ele>122.71</ele>
        <time>2015-08-17T21:16:12Z</time>
      </trkpt>
      <trkpt lat="47.0852" lon="2.37673">
        <ele>122.71</ele>
        <time>2015-08-17T21:16:28Z</time>
      </trkpt>
      <trkpt lat="47.0852" lon="2.37673">
        <ele>122.22</ele>
        <time>2015-08-17T21:16:40Z</time>
      </trkpt>
      <trkpt lat="47.08519" lon="2.3767">
        <ele>122.22</ele>
        <time>2015-08-17T21:17:06Z</time>
      </trkpt>
      <trkpt lat="47.0852" lon="2.37671">
        <ele>122.22</ele>
        <time>2015-08-17T21:17:40Z</time>
      </trkpt>
      <trkpt lat="47.08521" lon="2.37671">
        <ele>121.74</ele>
        <time>2015-08-17T21:18:12Z</time>
      </trkpt>
      <trkpt lat="47.08524" lon="2.37676">
        <ele>121.74</ele>
        <time>2015-08-17T21:18:30Z</time>
      </trkpt>
      <trkpt lat="47.08534" lon="2.37691">
        <ele>121.26</ele>
        <time>2015-08-17T21:18:43Z</time>
      </trkpt>
      <trkpt lat="47.08535" lon="2.37692">
        <ele>121.26</ele>
        <time>2015-08-17T21:18:44Z</time>
      </trkpt>
      <trkpt lat="47.08536" lon="2.37694">
        <ele>121.26</ele>
        <time>2015-08-17T21:18:45Z</time>
      </trkpt>
      <trkpt lat="47.08538" lon="2.37695">
        <ele>121.26</ele>
        <time>2015-08-17T21:18:46Z</time>
      </trkpt>
      <trkpt lat="47.08539" lon="2.37696">
        <ele>121.26</ele>
        <time>2015-08-17T21:18:47Z</time>
      </trkpt>
      <trkpt lat="47.0854" lon="2.377">
        <ele>121.26</ele>
        <time>2015-08-17T21:18:50Z</time>
      </trkpt>
      <trkpt lat="47.08541" lon="2.37702">
        <ele>121.26</ele>
        <time>2015-08-17T21:18:51Z</time>
      </trkpt>
      <trkpt lat="47.08541" lon="2.37705">
        <ele>120.78</ele>
        <time>2015-08-17T21:18:52Z</time>
      </trkpt>
      <trkpt lat="47.0854" lon="2.37707">
        <ele>120.78</ele>
        <time>2015-08-17T21:18:53Z</time>
      </trkpt>
      <trkpt lat="47.08539" lon="2.37709">
        <ele>120.78</ele>
        <time>2015-08-17T21:18:54Z</time>
      </trkpt>
      <trkpt lat="47.08537" lon="2.37713">
        <ele>120.78</ele>
        <time>2015-08-17T21:18:56Z</time>
      </trkpt>
      <trkpt lat="47.08532" lon="2.37722">
        <ele>119.82</ele>
        <time>2015-08-17T21:19:17Z</time>
      </trkpt>
      <trkpt lat="47.08527" lon="2.37738">
        <ele>119.82</ele>
        <time>2015-08-17T21:19:28Z</time>
      </trkpt>
      <trkpt lat="47.08525" lon="2.37742">
        <ele>119.82</ele>
        <time>2015-08-17T21:19:29Z</time>
      </trkpt>
      <trkpt lat="47.08524" lon="2.37746">
        <ele>119.82</ele>
        <time>2015-08-17T21:19:30Z</time>
      </trkpt>
      <trkpt lat="47.08523" lon="2.37751">
        <ele>119.34</ele>
        <time>2015-08-17T21:19:31Z</time>
      </trkpt>
      <trkpt lat="47.08521" lon="2.37755">
        <ele>119.34</ele>
        <time>2015-08-17T21:19:32Z</time>
      </trkpt>
      <trkpt lat="47.0852" lon="2.37759">
        <ele>119.34</ele>
        <time>2015-08-17T21:19:33Z</time>
      </trkpt>
      <trkpt lat="47.08518" lon="2.37763">
        <ele>119.34</ele>
        <time>2015-08-17T21:19:34Z</time>
      </trkpt>
      <trkpt lat="47.08517" lon="2.37767">
        <ele>119.34</ele>
        <time>2015-08-17T21:19:35Z</time>
      </trkpt>
      <trkpt lat="47.08512" lon="2.37779">
        <ele>118.86</ele>
        <time>2015-08-17T21:19:39Z</time>
      </trkpt>
      <trkpt lat="47.08502" lon="2.37788">
        <ele>118.86</ele>
        <time>2015-08-17T21:19:43Z</time>
      </trkpt>
      <trkpt lat="47.0846" lon="2.37875">
        <ele>118.86</ele>
        <time>2015-08-17T21:19:59Z</time>
      </trkpt>
      <trkpt lat="47.08442" lon="2.37922">
        <ele>118.38</ele>
        <time>2015-08-17T21:20:07Z</time>
      </trkpt>
      <trkpt lat="47.08436" lon="2.37932">
        <ele>118.38</ele>
        <time>2015-08-17T21:20:09Z</time>
      </trkpt>
      <trkpt lat="47.08404" lon="2.38011">
        <ele>117.9</ele>
        <time>2015-08-17T21:20:24Z</time>
      </trkpt>
      <trkpt lat="47.08402" lon="2.38016">
        <ele>117.9</ele>
        <time>2015-08-17T21:20:25Z</time>
      </trkpt>
      <trkpt lat="47.084" lon="2.38022">
        <ele>117.9</ele>
        <time>2015-08-17T21:20:26Z</time>
      </trkpt>
      <trkpt lat="47.08373" lon="2.38084">
        <ele>117.42</ele>
        <time>2015-08-17T21:20:37Z</time>
      </trkpt>
      <trkpt lat="47.08368" lon="2.38095">
        <ele>117.42</ele>
        <time>2015-08-17T21:20:39Z</time>
      </trkpt>
      <trkpt lat="47.08362" lon="2.38104">
        <ele>117.42</ele>
        <time>2015-08-17T21:20:41Z</time>
      </trkpt>
      <trkpt lat="47.08356" lon="2.38115">
        <ele>117.42</ele>
        <time>2015-08-17T21:20:43Z</time>
      </trkpt>
      <trkpt lat="47.08353" lon="2.3812">
        <ele>116.94</ele>
        <time>2015-08-17T21:20:44Z</time>
      </trkpt>
      <trkpt lat="47.08351" lon="2.38125">
        <ele>117.42</ele>
        <time>2015-08-17T21:20:45Z</time>
      </trkpt>
      <trkpt lat="47.0835" lon="2.38132">
        <ele>117.42</ele>
        <time>2015-08-17T21:20:46Z</time>
      </trkpt>
      <trkpt lat="47.08348" lon="2.38138">
        <ele>117.42</ele>
        <time>2015-08-17T21:20:47Z</time>
      </trkpt>
      <trkpt lat="47.08347" lon="2.38146">
        <ele>117.42</ele>
        <time>2015-08-17T21:20:48Z</time>
      </trkpt>
      <trkpt lat="47.08334" lon="2.38184">
        <ele>117.9</ele>
        <time>2015-08-17T21:20:54Z</time>
      </trkpt>
      <trkpt lat="47.08296" lon="2.38282">
        <ele>118.38</ele>
        <time>2015-08-17T21:21:10Z</time>
      </trkpt>
      <trkpt lat="47.08272" lon="2.38341">
        <ele>118.86</ele>
        <time>2015-08-17T21:21:19Z</time>
      </trkpt>
      <trkpt lat="47.08268" lon="2.38353">
        <ele>118.38</ele>
        <time>2015-08-17T21:21:21Z</time>
      </trkpt>
      <trkpt lat="47.08248" lon="2.38403">
        <ele>118.86</ele>
        <time>2015-08-17T21:21:31Z</time>
      </trkpt>
      <trkpt lat="47.08232" lon="2.38439">
        <ele>118.86</ele>
        <time>2015-08-17T21:21:42Z</time>
      </trkpt>
      <trkpt lat="47.08231" lon="2.38442">
        <ele>118.86</ele>
        <time>2015-08-17T21:21:43Z</time>
      </trkpt>
      <trkpt lat="47.0823" lon="2.38444">
        <ele>118.86</ele>
        <time>2015-08-17T21:21:44Z</time>
      </trkpt>
      <trkpt lat="47.08227" lon="2.3845">
        <ele>118.38</ele>
        <time>2015-08-17T21:21:58Z</time>
      </trkpt>
      <trkpt lat="47.08225" lon="2.38454">
        <ele>118.38</ele>
        <time>2015-08-17T21:22:13Z</time>
      </trkpt>
      <trkpt lat="47.08211" lon="2.38483">
        <ele>117.42</ele>
        <time>2015-08-17T21:22:24Z</time>
      </trkpt>
      <trkpt lat="47.08191" lon="2.38549">
        <ele>117.42</ele>
        <time>2015-08-17T21:22:35Z</time>
      </trkpt>
      <trkpt lat="47.08188" lon="2.38556">
        <ele>117.42</ele>
        <time>2015-08-17T21:22:36Z</time>
      </trkpt>
      <trkpt lat="47.08187" lon="2.38564">
        <ele>117.42</ele>
        <time>2015-08-17T21:22:37Z</time>
      </trkpt>
      <trkpt lat="47.08166" lon="2.38617">
        <ele>117.9</ele>
        <time>2015-08-17T21:22:47Z</time>
      </trkpt>
      <trkpt lat="47.08141" lon="2.38675">
        <ele>117.9</ele>
        <time>2015-08-17T21:22:58Z</time>
      </trkpt>
      <trkpt lat="47.08139" lon="2.38683">
        <ele>117.9</ele>
        <time>2015-08-17T21:22:59Z</time>
      </trkpt>
      <trkpt lat="47.08137" lon="2.38691">
        <ele>117.9</ele>
        <time>2015-08-17T21:23:00Z</time>
      </trkpt>
    </trkseg>
  </trk>
</gpx>